[[{"header":{"parameterUnit":"m.s-1","parameterCategory":1,"la1":30.6,"la2":29.2853,"lo1":-89.7004,"lo2":-87.6739,"dy":0.0162,"dx":0.0183,"nx":112,"ny":82,"refTime":"2024-06-30T00:00:00:Z","depth":0,"parameterNumber":2,"parameterNumberName":"U-component_of_WINDS"},"data":[0.0,0.0,0.0,0.0,0.0,0.0,0.0,0.0,0.0,0.0,0.0,0.0,0.0,0.0,0.0,0.0,0.0,0.0,0.0,0.0,0.0,0.0,0.0,0.0,0.0,0.0,0.0,0.0,0.0,0.0,0.0,0.0,0.0,0.0,0.0,0.0,0.0,0.0,0.0,0.0,0.0,0.0,0.0,0.0,0.0,0.0,0.0,0.0,0.0,0.0,0.0,0.0,0.0,0.0,0.0,0.0,0.0,0.0,0.0,0.0,0.0,0.0,0.0,0.0,0.0,0.0,0.0,0.0,0.0,0.0,0.0,0.0,0.0,0.0,0.0,0.0,0.0,0.0,0.0,0.0,0.0,0.0,0.0,0.0,0.0,0.0,0.0,0.0,0.0,0.0,0.0,1.6871,1.1343,0.6854,0.4437,0.4772,0.4573,0.3399,0.0,0.0,0.0,0.0,0.0,0.0,0.0,0.0,0.0,0.0,0.0,0.0,0.0,0.0,0.0,0.0,0.0,0.0,0.0,0.0,0.0,0.0,0.0,0.0,0.0,0.0,0.0,0.0,0.0,0.0,0.0,0.0,0.0,0.0,0.0,0.0,0.0,0.0,0.0,0.0,0.0,0.0,0.0,0.0,0.0,0.0,0.0,0.0,0.0,0.0,0.0,0.0,0.0,0.0,0.0,0.0,0.0,0.0,0.0,0.0,0.0,0.0,0.0,0.0,0.0,0.0,0.0,0.0,0.0,0.0,0.0,0.0,0.0,0.0,0.0,0.0,0.0,0.0,0.0,0.0,0.0,0.0,0.0,0.0,0.0,0.0,0.0,0.0,0.0,0.0,0.0,0.0,0.0,0.0,0.0,0.0,0.0,0.0,0.0,0.0,0.0,0.0,0.0,0.0,1.949,1.6547,1.316,1.006,0.7481,0.6029,0.469,0.3399,0.0,0.0,0.0,0.0,0.0,0.0,0.0,0.0,0.0,0.0,0.0,0.0,0.0,0.0,0.0,0.0,0.0,0.0,0.0,0.0,0.0,0.0,0.0,0.0,0.0,0.0,0.0,0.0,0.0,0.0,0.0,0.0,0.0,0.0,0.0,0.0,0.0,0.0,0.0,0.0,0.0,0.0,0.0,0.0,0.0,0.0,0.0,0.0,0.0,0.0,0.0,0.0,0.0,0.0,0.0,0.0,0.0,0.0,0.0,0.0,0.0,0.0,0.0,0.0,0.0,0.0,0.0,0.0,0.0,0.0,0.0,0.0,0.0,0.0,0.0,0.0,0.0,0.0,0.0,0.0,0.0,0.0,0.0,0.0,0.0,0.0,0.0,0.0,0.0,0.0,0.0,0.0,0.0,0.0,0.0,0.0,0.0,0.0,0.0,0.0,0.0,0.0,0.0,1.9869,1.8459,1.597,1.3499,1.1069,0.8553,0.6828,0.5277,0.3766,0.3018,0.0,0.0,0.0,0.0,0.0,0.0,0.0,0.0,0.0,0.0,0.0,0.0,0.0,0.0,0.0,0.0,0.0,0.0,0.0,0.0,0.0,0.0,0.0,0.0,0.0,0.0,0.0,0.0,0.0,0.0,0.0,0.0,0.0,0.0,0.0,0.0,0.0,0.0,0.0,0.0,0.0,0.0,0.0,0.0,0.0,0.0,0.0,0.0,0.0,0.0,0.0,0.0,0.0,0.0,0.0,0.0,0.0,0.0,0.0,0.0,0.0,0.0,0.0,0.0,0.0,0.0,0.0,0.0,0.0,0.0,0.0,0.0,0.0,0.0,0.0,0.0,0.0,0.0,0.0,0.0,0.0,0.0,0.0,0.0,0.0,0.0,0.0,0.0,0.0,0.0,0.0,0.0,0.0,0.0,0.0,0.0,0.0,0.0,0.0,0.0,0.0,0.0,1.7376,1.6252,1.4468,1.2565,1.0554,0.8297,0.6902,0.5474,0.4072,0.3383,0.0,0.0,0.0,0.0,0.0,0.0,0.0,0.0,0.0,0.0,0.0,0.0,0.0,0.0,0.0,0.0,0.0,0.0,0.0,0.0,0.0,0.0,0.0,0.0,0.0,0.0,0.0,0.0,0.0,0.0,0.0,0.0,0.0,0.0,0.0,0.0,0.0,0.0,0.0,0.0,0.0,0.0,0.0,0.0,0.0,0.0,0.0,0.0,0.0,0.0,0.0,0.0,0.0,0.0,0.0,0.0,0.0,0.0,0.0,0.0,0.0,0.0,0.0,0.0,0.0,0.0,0.0,0.0,0.0,0.0,0.0,0.0,0.0,0.0,0.0,0.0,0.0,0.0,0.0,0.0,0.0,0.0,0.0,0.0,0.0,0.0,0.0,0.0,0.0,0.0,0.0,0.0,0.0,0.0,0.0,0.0,0.0,0.0,0.0,0.0,0.0,0.0,1.392,1.2832,1.1137,0.9723,0.8296,0.6586,0.5712,0.4825,0.395,0.3447,0.0,0.0,0.0,0.0,0.0,0.0,0.0,0.0,0.0,0.0,0.0,0.0,0.0,0.0,0.0,0.0,0.0,0.0,0.0,0.0,0.0,0.0,0.0,0.0,0.0,0.0,0.0,0.0,0.0,0.0,0.0,0.0,0.0,0.0,0.0,0.0,0.0,0.0,0.0,0.0,0.0,0.0,0.0,0.0,0.0,0.0,0.0,0.0,0.0,0.0,0.0,0.0,0.0,0.0,0.0,0.0,0.0,0.0,0.0,0.0,0.0,0.0,0.0,0.0,0.0,0.0,0.0,0.0,0.0,0.0,0.0,0.0,0.0,0.0,0.0,0.0,0.0,0.0,0.0,0.0,0.0,0.0,0.0,0.0,0.0,0.0,0.0,0.0,0.0,0.0,0.0,0.0,0.0,0.0,0.0,0.0,0.0,0.0,0.0,0.0,0.0,0.0,0.9239,0.8149,0.0,0.6953,0.6375,0.4832,0.4655,0.4486,0.4069,0.0,0.0,0.0,0.0,0.0,0.0,0.0,0.0,0.0,0.0,0.0,0.0,0.0,0.0,0.0,0.0,0.0,0.0,0.0,0.0,0.0,0.0,0.0,0.0,0.0,0.0,0.0,0.0,0.0,0.0,0.0,0.0,0.0,0.0,0.0,0.0,0.0,0.0,0.0,0.0,0.0,0.0,0.0,0.0,0.0,0.0,0.0,0.0,0.0,0.0,0.0,0.0,0.0,0.0,0.0,0.0,0.0,0.0,0.0,0.0,0.0,0.0,0.0,0.0,0.0,0.0,0.0,0.0,0.0,0.0,0.0,0.0,0.0,0.0,0.0,0.0,0.0,0.0,0.0,0.0,0.0,0.0,0.0,0.0,0.0,0.0,0.0,0.0,0.0,0.0,0.0,0.0,0.0,0.0,0.0,0.0,0.0,0.0,0.0,0.0,0.0,0.0,0.6237,0.4933,0.3947,0.0,0.3962,0.4056,0.3133,0.3584,0.3995,0.4064,0.0,0.0,0.0,0.0,0.0,0.0,0.0,0.0,0.0,0.0,0.0,0.0,0.0,0.0,0.0,0.0,0.0,0.0,0.0,0.0,0.0,0.0,0.0,0.0,0.0,0.0,0.0,0.0,0.0,0.0,0.0,0.0,0.0,0.0,0.0,0.0,0.0,0.0,0.0,0.0,0.0,0.0,0.0,0.0,0.0,0.0,0.0,0.0,0.0,0.0,0.0,0.0,0.0,0.0,0.0,0.0,0.0,0.0,0.0,0.0,0.0,0.0,0.0,0.0,0.0,0.0,0.0,0.0,0.0,0.0,0.0,0.0,0.0,0.0,0.0,0.0,0.0,0.0,0.0,0.0,0.0,0.0,0.0,0.0,0.0,0.0,0.0,0.0,0.0,0.0,0.0,0.0,0.0,0.0,0.0,0.0,0.0,0.0,0.0,0.0,0.0,0.0,0.1845,0.1211,0.0625,0.0067,0.067,0.1208,0.1547,0.2487,0.3299,0.0,0.0,0.0,0.0,0.0,0.0,0.0,0.0,0.0,0.0,0.0,0.0,0.0,0.0,0.0,0.0,0.0,0.0,0.0,0.0,0.0,0.0,0.0,0.0,0.0,0.0,0.0,0.0,0.0,0.0,0.0,0.0,0.0,0.0,0.0,0.0,0.0,0.0,0.0,0.0,0.0,0.0,0.0,0.0,0.0,0.0,0.0,0.0,0.0,0.0,0.0,0.0,0.0,0.0,0.0,0.0,0.0,0.0,0.0,0.0,0.0,0.0,0.0,0.0,0.0,0.0,0.0,0.0,0.0,0.0,0.0,0.0,0.0,0.0,0.0,0.0,0.0,0.0,0.0,0.0,0.0,0.0,0.0,0.0,0.0,0.0,0.0,0.0,0.0,0.0,0.0,0.0,0.0,0.0,0.0,0.0,0.0,0.0,0.0,0.0,0.0,0.0,0.0,-0.0485,-0.1435,-0.1737,-0.1202,0.0201,0.1342,0.1876,0.3336,0.4347,0.4661,0.0,0.0,0.0,0.0,0.0,0.0,0.0,0.0,0.0,0.0,0.0,0.0,0.0,0.0,0.0,0.0,0.0,0.0,0.0,0.0,0.0,0.0,0.0,0.0,0.0,0.0,0.0,0.0,0.0,0.0,0.0,0.0,0.0,0.0,0.0,0.0,0.0,0.0,0.0,0.0,0.0,0.0,0.0,0.0,0.0,0.0,0.0,0.0,0.0,0.0,0.0,0.0,0.0,0.0,0.0,0.0,0.0,0.0,0.0,0.0,0.0,0.0,0.0,0.0,0.0,0.0,0.0,0.0,0.0,0.0,0.0,0.0,0.0,0.0,0.0,0.0,0.0,0.0,0.0,0.0,0.0,0.0,0.0,0.0,0.0,0.0,0.0,0.0,0.0,0.0,0.0,0.0,0.0,0.0,0.0,0.0,0.0,0.0,0.0,0.0,0.0,0.0,-0.1467,-0.1894,-0.1887,-0.1136,0.0469,0.181,0.2608,0.3982,0.4856,0.5032,0.0,0.0,0.0,0.0,0.0,0.0,0.0,0.0,0.0,0.0,0.0,0.0,0.0,0.0,0.0,0.0,0.0,0.0,0.0,0.0,0.0,0.0,0.0,0.0,0.0,0.0,0.0,0.0,0.0,0.0,0.0,0.0,0.0,0.0,0.0,0.0,0.0,0.0,0.0,0.0,0.0,0.0,0.0,0.0,0.0,0.0,0.0,0.0,0.0,0.0,0.0,0.0,0.0,0.0,0.0,0.0,0.0,0.0,0.0,0.0,0.0,0.0,0.0,0.0,0.0,0.0,0.0,0.0,0.0,0.0,0.0,0.0,0.0,0.0,0.0,0.0,0.0,0.0,0.0,0.0,0.0,0.0,0.0,0.0,0.0,0.0,0.0,0.0,0.0,0.0,0.0,0.0,0.0,0.0,0.0,0.0,0.0,0.0,0.0,0.0,0.0,0.0,-0.1161,-0.082,-0.039,-0.0067,0.1404,0.2741,0.3609,0.4431,0.5004,0.5057,0.0,0.0,0.0,0.0,0.0,0.0,0.0,0.0,0.0,0.0,0.0,0.0,0.0,0.0,0.0,0.0,0.0,0.0,0.0,0.0,0.0,0.0,0.0,0.0,0.0,0.0,0.0,0.0,0.0,0.0,0.0,0.0,0.0,0.0,0.0,0.0,0.0,0.0,0.0,0.0,0.0,0.0,0.0,0.0,0.0,0.0,0.0,0.0,0.0,0.0,0.0,0.0,0.0,0.0,0.0,0.0,0.0,0.0,0.0,0.0,-1.3826,0.0,0.0,0.0,0.0,0.0,0.0,0.0,0.0,0.0,0.0,0.0,0.0,0.0,0.0,0.0,0.0,0.0,0.0,0.0,0.0,0.0,0.0,0.0,0.0,0.0,0.0,0.0,0.0,0.0,0.0,0.0,0.0,0.0,0.0,0.0,0.0,0.0,0.0,0.0,0.0,0.0,0.0792,0.0575,0.0795,0.1737,0.3549,0.4694,0.4752,0.5022,0.5178,0.5008,0.0,0.0,0.0,0.0,0.0,0.0,0.0,0.0,0.0,0.0,0.0,0.0,0.0,0.0,0.0,0.0,0.0,0.0,0.0,0.0,0.0,0.0,0.0,0.0,0.0,0.0,0.0,0.0,0.0,0.0,0.0,0.0,0.0,0.0,0.0,0.0,0.0,0.0,0.0,0.0,0.0,0.0,0.0,0.0,0.0,0.0,0.0,0.0,0.0,0.0,0.0,0.0,0.0,0.0,0.0,0.0,0.0,0.0,0.0,0.0,0.0,-1.8384,0.0,0.0,0.0,0.0,0.0,0.0,0.0,0.0,0.0,0.0,0.0,0.0,0.0,0.0,0.0,0.0,0.0,0.0,0.0,0.0,0.0,0.0,0.0,0.0,0.0,0.0,0.0,0.0,0.0,0.0,0.0,0.0,0.0,0.0,0.0,0.0,0.0,0.0,0.0,0.0,0.3522,0.3226,0.3191,0.354,0.4556,0.5229,0.5087,0.536,0.5016,0.4027,0.2353,0.0,0.0,0.0,0.0,0.0,0.0,0.0,0.0,0.0,0.0,0.0,0.0,0.0,0.0,0.0,0.0,0.0,0.0,0.0,0.0,0.0,0.0,0.0,0.0,0.0,0.0,0.0,0.0,0.0,0.0,0.0,0.0,0.0,0.0,0.0,0.0,0.0,0.0,0.0,0.0,0.0,0.0,0.0,0.0,0.0,0.0,0.0,0.0,0.0,0.0,0.0,0.0,0.0,0.0,-1.8398,-2.0234,-2.1168,-2.2031,-2.2735,-2.2631,-2.2467,-2.2232,0.0,0.0,0.0,0.0,0.0,0.0,0.0,0.0,0.0,0.0,0.0,0.0,0.0,0.0,0.0,0.0,0.0,0.0,0.0,0.0,0.0,0.0,0.0,0.0,0.0,-1.2196,-1.0089,0.0,0.0,0.0,0.0,0.0,0.0,0.0,0.0,0.0,0.0,0.0,0.0,0.6299,0.6117,0.572,0.5077,0.515,0.5153,0.516,0.5166,0.4378,0.2515,0.0831,-0.0997,0.0,0.0,0.0,0.0,0.0,0.0,0.0,0.0,0.0,0.0,0.0,0.0,0.0,0.0,0.0,0.0,0.0,0.0,0.0,0.0,0.0,0.0,0.0,0.0,0.0,0.0,0.0,0.0,0.0,0.0,0.0,0.0,-0.3556,-0.6168,0.0,0.0,0.0,0.0,0.0,0.0,0.0,0.0,0.0,0.0,0.0,0.0,0.0,0.0,-1.2907,-1.4421,-1.6311,-1.8472,-2.0037,-2.148,-2.2903,-2.3688,-2.4378,-2.4908,-2.4939,0.0,-2.2602,-2.2194,0.0,0.0,0.0,0.0,0.0,0.0,0.0,0.0,0.0,0.0,0.0,0.0,0.0,0.0,0.0,0.0,0.0,0.0,0.0,0.0,0.0,0.0,-1.3521,-1.064,-0.8117,-0.588,0.0,-0.4447,-0.4497,-0.2108,0.0,0.0,0.0,0.0,0.0,0.0,0.0,0.0,0.8153,0.7805,0.7172,0.6071,0.5679,0.5491,0.5376,0.3946,0.2398,0.0797,-0.0906,-0.2605,-0.4224,-0.5711,0.0,0.0,0.0,0.0,0.0,0.0,0.0,0.0,0.0,0.0,0.0,0.0,0.0,0.0,0.0,0.0,0.0,0.0,0.0,0.0,0.0,0.0,0.0,0.0,0.0,0.0,0.0,0.0,0.0,-0.2826,-0.629,-0.9318,-1.1137,-1.2355,0.0,0.0,0.0,0.0,0.0,0.0,0.0,0.0,0.0,-1.3292,-1.3882,-1.4869,-1.6246,-1.7451,-1.8771,-2.0266,-2.1292,-2.2363,-2.3447,-2.3946,-2.4397,-2.4869,-2.4951,-2.4543,-2.3849,-2.3893,-2.3422,-2.2629,0.0,0.0,0.0,0.0,0.0,-2.0988,-2.1428,0.0,0.0,0.0,0.0,0.0,0.0,0.0,0.0,0.0,0.0,0.0,0.0,0.0,0.0,-0.6651,-0.4259,-0.2225,-0.0748,-0.0374,-0.0,0.0,0.2452,0.3981,0.5452,0.0,0.0,0.0,0.0,0.0,0.9005,0.835,0.7437,0.6137,0.569,0.4957,0.3549,0.2072,0.0534,-0.1069,-0.3039,-0.4496,-0.5185,-0.6303,-0.7254,0.0,0.0,0.0,0.0,0.0,0.0,0.0,0.0,0.0,0.0,0.0,0.0,0.0,0.0,0.0,0.0,0.0,0.0,0.0,0.0,0.0,0.0,0.0,0.0,0.0,0.0,0.0,0.0,-0.5497,-0.8707,-1.2115,-1.3645,-1.4733,0.0,0.0,0.0,0.0,0.0,0.0,-1.4666,-1.4533,-1.489,-1.5891,-1.6451,-1.7353,-1.8707,-1.9613,-2.0569,-2.1572,-2.2153,-2.2876,-2.3635,-2.3914,-2.4163,-2.4488,-2.4591,-2.4694,-2.4782,-2.5034,-2.4674,-2.3889,-2.3226,-2.2225,-2.1165,-2.0858,-2.1267,-2.1997,-2.2504,-2.3413,-2.4355,-2.4426,0.0,-2.3612,-2.4071,0.0,0.0,0.0,0.0,-1.7409,-1.35,0.0,-0.5307,-0.2816,-0.0847,0.0853,0.1792,0.2733,0.3322,0.0,0.4254,0.5396,0.6372,0.0,0.0,0.0,0.0,0.914,0.8703,0.7927,0.6907,0.5456,0.483,0.3682,0.1488,0.0135,-0.1416,-0.3147,-0.4764,-0.58,-0.6032,-0.6797,-0.7511,-0.8156,0.0,0.0,0.0,0.0,0.0,0.0,0.0,0.0,0.0,0.0,0.0,0.0,0.0,0.0,0.0,0.0,0.0,0.0,0.0,0.0,0.0,0.0,0.0,0.0,0.0,0.0,0.0,0.0,0.0,-1.4553,-1.6068,0.0,0.0,0.0,0.0,-1.6232,-1.593,-1.5933,-1.629,-1.6249,-1.6674,-1.7636,-1.8105,-1.8901,-1.989,-2.0575,-2.144,-2.2567,-2.3062,-2.3585,-2.4084,-2.42,-2.4372,-2.4486,-2.4543,-2.4714,-2.4983,-2.4782,-2.4482,-2.4069,-2.3969,-2.3365,-2.2591,-2.271,-2.2697,-2.2737,-2.3169,-2.3622,-2.396,-2.4061,-2.4262,-2.451,-2.4793,-2.4443,0.0,0.0,-1.8422,-1.4047,-1.0195,-0.6,-0.2005,0.0699,0.2184,0.3129,0.3832,0.3995,0.4073,0.0,0.4736,0.543,0.5922,0.0,0.6877,0.7145,0.7421,0.7352,0.6802,0.6289,0.544,0.3949,0.2838,0.1498,-0.014,-0.1601,-0.3305,-0.5389,-0.5561,-0.5948,-0.6643,-0.7192,-0.7825,-0.8578,-0.8097,0.0,0.0,0.0,0.0,0.0,0.0,0.0,0.0,0.0,0.0,0.0,0.0,0.0,0.0,0.0,0.0,0.0,0.0,0.0,0.0,0.0,0.0,0.0,0.0,0.0,0.0,0.0,0.0,-1.5506,-1.6906,0.0,0.0,-1.7798,-1.769,-1.7656,-1.7641,-1.7809,-1.8149,-1.8324,-1.8769,-1.9613,-2.0149,-2.0986,-2.2085,-2.2432,-2.2935,-2.3505,-2.3813,-2.4106,-2.4515,-2.4879,-2.5171,-2.5279,-2.5279,-2.5143,-2.4951,-2.4946,-2.4888,-2.4749,-2.4027,-2.3324,-2.2652,-2.2205,-2.2172,-2.2454,-2.3161,-2.377,-2.4204,-2.3595,-2.3231,-2.3004,-2.2511,-2.1964,-2.1038,-1.8649,-1.5248,-1.1279,-0.7102,-0.3137,0.0234,0.2343,0.3521,0.4151,0.4075,0.4073,0.4073,0.3923,0.4428,0.4969,0.514,0.528,0.5259,0.4978,0.4735,0.4378,0.3966,0.3441,0.269,0.1565,0.0863,-0.0288,-0.2145,-0.3652,-0.4891,-0.5795,-0.5873,-0.6183,-0.6692,-0.6933,-0.7443,-0.8216,-0.8072,-0.7996,0.0,0.0,0.0,0.0,0.0,0.0,0.0,0.0,0.0,0.0,0.0,0.0,0.0,0.0,0.0,0.0,0.0,0.0,0.0,0.0,0.0,0.0,0.0,0.0,0.0,0.0,-1.4562,-1.68,-1.787,-1.8482,-1.878,-1.8659,-1.8722,-1.9101,-1.9165,-1.9455,-1.9908,-2.0323,-2.081,-2.1545,-2.2063,-2.281,-2.3646,-2.3802,-2.3963,-2.4217,-2.4331,-2.4506,-2.4756,-2.5128,-2.5294,-2.5421,-2.5421,-2.5202,-2.4916,-2.5039,-2.5109,-2.4997,-2.3958,-2.3116,-2.2414,-2.1844,-2.1814,-2.2216,-2.3045,-2.3534,-2.3722,-2.2794,-2.208,-2.1426,-2.0452,-1.9481,-1.8164,-1.5314,-1.2047,-0.8475,-0.4439,-0.1085,0.1642,0.3212,0.3997,0.4311,0.3921,0.3761,0.3604,0.3376,0.3841,0.4192,0.4166,0.3761,0.32,0.2391,0.2019,0.1656,0.1151,0.0725,0.0073,-0.0732,-0.1256,-0.2147,-0.3821,-0.5079,-0.583,-0.6161,-0.6253,-0.6433,-0.6879,-0.7052,-0.7428,-0.821,-0.8289,-0.8255,-0.8164,0.0,0.0,0.0,0.0,0.0,0.0,0.0,0.0,0.0,0.0,0.0,0.0,0.0,0.0,0.0,0.0,0.0,0.0,0.0,0.0,0.0,0.0,0.0,-1.1895,-1.3721,-1.6078,-1.8412,-1.902,-1.9396,-1.994,-1.999,-2.0127,-2.0478,-2.054,-2.089,-2.1663,-2.2213,-2.2763,-2.3262,-2.3876,-2.4222,-2.4365,-2.4521,-2.4676,-2.4598,-2.4781,-2.4845,-2.4845,-2.4858,-2.487,-2.487,-2.487,-2.4922,-2.5026,-2.5026,-2.5013,-2.4887,-2.3748,-2.2811,-2.2075,-2.1765,-2.1765,-2.2002,-2.2786,-2.2834,-2.2396,-2.1634,-2.0773,-1.9857,-1.8654,-1.7139,-1.5124,-1.2291,-0.8995,-0.5585,-0.2322,0.0234,0.2195,0.345,0.3763,0.3684,0.3446,0.3057,0.2746,0.2511,0.2904,0.3196,0.3044,0.2047,0.0826,-0.0439,-0.0583,0.0,-0.1381,-0.1857,-0.2338,-0.2938,-0.3467,-0.4183,-0.5066,-0.566,-0.6198,-0.6694,-0.6614,-0.676,-0.7146,-0.7372,-0.7904,-0.8694,-0.8941,-0.8842,-0.8555,0.0,0.0,0.0,0.0,0.0,0.0,0.0,0.0,0.0,0.0,0.0,0.0,0.0,0.0,0.0,0.0,0.0,0.0,0.0,0.0,0.0,0.0,-1.3171,-1.3381,-1.5631,-1.7671,-1.866,-1.9296,-1.9699,-1.985,-1.9862,-2.0089,-2.0721,-2.1138,-2.1957,-2.3211,-2.3799,-2.4553,-2.5486,-2.5677,-2.5892,-2.6043,-2.5731,-2.5464,-2.5319,-2.5385,-2.5385,-2.5398,-2.5824,-2.6013,-2.6013,-2.6013,-2.5908,-2.5661,-2.5661,-2.542,-2.5027,-2.4252,-2.3359,-2.2512,-2.2268,-2.2234,-2.2273,-2.2506,-2.2027,-2.1118,-1.9857,-1.8415,-1.6757,-1.5018,-1.4308,-1.3164,-0.8886,-0.6112,-0.3776,-0.0776,0.117,0.2506,0.3139,0.3295,0.3217,0.2981,0.2668,0.2275,0.212,0.1649,0.1411,0.1713,0.1166,0.031,-0.0616,0.0,0.0,-0.3069,-0.3627,-0.4106,-0.4568,-0.475,-0.5148,-0.5889,-0.612,-0.6359,0.0,-0.6596,-0.6704,-0.6998,-0.7195,-0.7812,-0.8927,-0.9379,-0.9723,0.0,0.0,0.0,0.0,0.0,0.0,0.0,0.0,0.0,0.0,0.0,0.0,0.0,0.0,0.0,0.0,0.0,0.0,0.0,0.0,0.0,0.0,-1.1809,-1.3908,-1.5116,-1.691,-1.8304,-1.8904,-1.9418,-1.9708,-1.9708,-2.0076,-2.056,-2.1291,-2.206,-2.3085,-2.4569,-2.5296,-2.6113,-2.707,-2.7078,-2.7038,-2.7053,-2.6531,-2.6164,-2.5963,-2.5963,-2.5963,-2.5963,-2.637,-2.6533,0.0,-2.6589,-2.6468,-2.6353,-2.6499,-2.6372,0.0,0.0,0.0,0.0,0.0,-2.2589,-2.258,-2.2421,-2.1581,-2.0289,-1.8619,-1.6688,-1.466,-1.2328,-1.1015,-0.9391,-0.5202,-0.2686,-0.0695,0.1706,0.296,0.3595,0.3759,0.3606,0.3295,0.2902,0.251,0.204,0.1414,0.0,0.0,0.0236,0.0079,-0.0393,-0.1492,-0.2353,-0.3292,0.0,-0.4776,-0.5246,-0.5634,-0.5712,-0.5944,-0.6412,-0.6412,0.0,0.0,0.0,-0.6827,-0.7254,-0.7884,0.0,0.0,0.0,0.0,0.0,0.0,0.0,0.0,-1.2313,-1.3417,0.0,0.0,0.0,0.0,0.0,0.0,0.0,0.0,0.0,0.0,0.0,0.0,0.0,0.0,0.0,0.0,-1.2778,-1.4993,-1.6642,-1.7438,-1.8175,-1.9073,-1.9396,-1.9565,-1.9552,-2.0378,-2.1215,-2.2008,-2.2994,-2.4233,-2.5828,0.0,0.0,0.0,0.0,-2.7973,-2.7523,-2.6985,-2.6658,-2.6533,-2.6533,-2.6533,-2.6533,-2.6533,-2.6533,-2.6521,-2.6658,-2.6837,-2.7108,-2.7443,-2.7643,-2.7433,-2.525,-2.4072,-2.3427,-2.3106,-2.3015,0.0,0.0,0.0,0.0,-1.7736,-1.5601,-1.3312,-1.0541,-0.7706,-0.487,-0.1852,0.0774,0.2953,0.4428,0.498,0.5068,0.4763,0.4304,0.3606,0.2981,0.2431,0.1803,0.0628,0.0079,-0.0393,-0.1335,-0.11,-0.1256,-0.2747,-0.3057,0.0,-0.4849,-0.5321,-0.5792,-0.6261,0.0,0.0,-0.6563,-0.6563,-0.6637,-0.6865,-0.681,-0.7126,-0.7889,-0.9066,-1.01,-1.0779,-1.1403,-1.1932,-1.2376,-1.2462,-1.2911,-1.3749,-1.3833,-1.4587,0.0,0.0,0.0,0.0,0.0,0.0,0.0,0.0,0.0,0.0,0.0,0.0,0.0,0.0,0.0,-1.072,-1.2741,-1.4542,-1.5899,-1.6749,-1.762,-1.8721,-1.8999,-1.9198,-1.942,-2.0232,-2.1161,-2.2268,-2.3256,-2.4871,-2.7265,-2.778,0.0,-2.9411,-2.9192,-2.861,-2.7789,-2.7403,-2.693,-2.6533,0.0,0.0,-2.6533,-2.6533,-2.6589,-2.6658,-2.685,-2.7242,-2.7643,-2.8039,-2.8287,-2.8346,-2.6127,-2.5229,-2.5123,-2.4413,-2.4034,-2.3728,-2.305,-2.1646,-1.9717,-1.7532,-1.5134,-1.251,-0.9658,-0.6103,0.0,-0.0239,0.2559,0.4957,0.5559,0.5687,0.5613,0.5079,0.4457,0.3837,0.2981,0.2196,0.149,0.055,-0.0393,-0.1414,-0.2434,-0.212,-0.2121,-0.3062,-0.3452,-0.3995,-0.4849,-0.5321,-0.5792,-0.6261,-0.6338,-0.6338,-0.6335,-0.6338,-0.6412,-0.6637,-0.7387,-0.8015,-0.8557,-0.9979,-1.0987,-1.1535,-1.2251,-1.2782,-1.3153,-1.3228,-1.3619,-1.4302,-1.4402,-1.5175,0.0,0.0,0.0,0.0,0.0,0.0,0.0,0.0,0.0,0.0,0.0,-0.3098,-0.4334,0.0,-0.8359,-1.0617,-1.2354,-1.3926,-1.5458,-1.6161,-1.6888,-1.7886,-1.8494,-1.8881,-1.9146,-2.0482,-2.1684,-2.2469,-2.3933,-2.5619,-2.7442,-2.8196,-2.8857,-2.9508,-2.9454,-2.8917,-2.7908,-2.7523,-2.6857,-2.6025,-2.6025,-2.6025,-2.6025,-2.6025,-2.6312,-2.6714,-2.7121,-2.7577,-2.8105,-2.8853,-2.9435,-2.9558,-2.7811,-2.6895,-2.6445,-2.5641,-2.5077,-2.4724,-2.3981,-2.242,-2.0373,-1.8291,-1.5825,-1.3173,-1.021,-0.6918,-0.3515,-0.0644,0.2093,0.4588,0.6281,0.615,0.544,0.4996,0.4144,0.3209,0.2352,0.1489,0.047,-0.0548,-0.1489,-0.243,-0.3602,-0.3832,-0.391,-0.3992,-0.4382,-0.5004,-0.5702,-0.6093,-0.6328,-0.6412,-0.6412,-0.6412,-0.6412,-0.6644,-0.6906,-0.7215,-0.809,-0.8825,-0.9407,-1.0792,-1.1727,-1.2207,-1.2856,-1.3411,-1.3695,-1.3785,-1.4018,-1.4243,-1.4664,-1.524,0.0,0.0,0.0,0.0,0.0,0.0,0.0,0.0,-0.0161,-0.1346,-0.2196,-0.307,-0.4284,-0.5996,-0.7915,-1.0066,-1.1723,-1.3251,-1.4885,-1.5633,-1.6265,-1.7034,-1.7941,-1.8614,-1.8987,-2.0828,-2.2211,-2.2764,-2.4654,-2.627,-2.7351,-2.8298,-2.898,-2.9361,-2.943,-2.8996,-2.8039,-2.759,-2.6771,-2.5598,-2.5598,-2.5548,-2.5448,-2.5448,-2.5883,-2.6684,-2.7353,-2.7931,-2.8561,-2.9435,-3.0012,-3.0148,-2.8942,-2.8054,-2.7369,-2.6576,-2.6056,-2.5701,-2.4784,-2.3323,-2.1434,-1.9427,-1.718,-1.4676,-1.1702,-0.8887,-0.5927,-0.228,0.0324,0.2658,0.5562,0.5428,0.4568,0.4206,0.32,0.211,0.1252,0.0235,-0.0938,-0.2186,-0.2968,-0.3748,-0.4993,-0.5687,-0.5841,-0.5151,-0.5541,-0.6163,-0.6791,-0.6942,-0.6942,-0.6868,-0.6791,-0.6795,-0.6868,-0.718,-0.7639,-0.8045,-0.8965,-0.9722,-1.035,-1.1543,-1.2412,-1.2812,-1.3309,-1.3675,-1.3997,-1.3997,-1.4082,-1.4095,-1.4622,-1.5214,1.4863,1.132,0.7693,0.5925,0.4551,0.3387,0.0,0.0,0.05,-0.0613,-0.1505,-0.2452,-0.3511,-0.5301,-0.717,-0.8835,-1.0682,-1.2456,-1.3957,-1.5021,-1.5958,-1.6765,-1.7501,-1.8278,-1.9081,-2.0911,-2.2335,-2.3187,-2.4978,-2.6597,-2.7773,-2.8213,-2.8817,-2.9522,-2.9315,-2.8753,-2.8026,-2.7656,-2.6837,-2.5598,-2.5598,-2.536,-2.4908,-2.4908,-2.5445,-2.6479,-2.7683,-2.8502,-2.9004,-2.8843,-2.8926,-2.8995,-2.8004,-2.7645,-2.7585,-2.7094,-2.6606,-2.6122,-2.519,-2.3961,-2.25,-2.0564,-1.873,-1.6764,-1.4166,-1.152,-0.8678,-0.5333,-0.2755,-0.0569,0.1402,0.2085,0.2244,0.1941,0.1322,0.0544,-0.0623,-0.1714,-0.288,-0.4119,-0.5054,-0.5829,-0.6678,-0.7379,-0.7464,-0.6461,-0.67,-0.7165,-0.7629,-0.7557,-0.748,-0.7629,-0.748,-0.748,-0.7629,-0.8016,-0.8485,-0.8913,-1.0136,-1.1,-1.1492,-1.2487,-1.3062,-1.3347,-1.3347,-1.3535,-1.3737,-1.3737,-1.3913,-1.4102,-1.4744,-1.5082,1.4743,1.1998,0.0,0.0,0.5924,0.4409,0.2938,0.1785,0.0727,-0.0392,-0.1286,-0.2178,-0.3234,-0.4912,-0.679,0.0,-1.0696,-1.2655,-1.4473,-1.5698,-1.6789,-1.7797,-1.8531,-1.9073,-1.9423,-2.0925,-2.2405,-2.3575,-2.5152,-2.6474,-2.755,-2.8263,-2.8604,-2.8589,-2.857,-2.8047,-2.7027,-2.6658,-2.5859,-2.4669,-2.4669,-2.4556,-2.4343,-2.4343,-2.5014,-2.6277,-2.7135,-2.7861,-2.8452,-2.8526,-2.8595,-2.8608,-2.779,-2.7475,-2.7403,-2.6876,-2.6486,-2.6096,-2.5439,-2.4313,-2.296,-2.1797,-2.012,-1.8239,-1.6205,-1.4015,-1.1773,-0.9503,-0.7015,-0.4698,-0.348,-0.2252,-0.1383,-0.139,-0.1781,-0.2481,-0.3263,-0.4194,-0.5203,-0.6136,-0.6984,-0.7753,-0.8443,-0.9059,-0.9372,-0.9059,-0.8836,-0.8846,-0.9003,-0.8927,-0.8775,-0.8394,-0.8246,-0.8241,-0.8318,-0.912,-0.9756,-1.0211,-1.1179,-1.1928,-1.2265,-1.2814,-1.3052,-1.2966,-1.2966,-1.3137,-1.3313,-1.3313,-1.3483,-1.3672,-1.4235,-1.4584,1.4511,0.0,0.0,0.8811,0.7015,0.5387,0.3781,0.2254,0.0774,-0.0447,-0.1287,-0.2179,-0.3178,-0.4765,-0.6606,-0.8823,-1.0997,-1.3195,-1.5446,-1.6837,-1.8012,-1.9141,-2.0029,-2.064,-2.0716,-2.1643,-2.2725,-2.4069,-2.54,-2.6524,-2.7458,-2.8141,-2.8316,-2.7896,-2.7921,-2.7376,-2.6294,-2.5936,-2.5163,-2.4004,-2.4004,-2.3916,-2.3766,-2.404,-2.4754,-2.581,-2.6524,-2.7117,-2.764,-2.7754,-2.7739,-2.7626,-2.6974,-2.6623,-2.6414,-2.5951,-2.5797,-2.5825,-2.5356,-2.4345,-2.3182,-2.2393,-2.0983,-1.9248,-1.7514,-1.5771,-1.3998,-1.2379,-1.0126,-0.8053,-0.724,-0.5889,-0.477,-0.4553,-0.4876,-0.5428,-0.5896,-0.667,-0.7447,-0.8223,-0.8832,-0.9437,-0.9976,-1.0432,-1.0812,-1.1117,-1.0743,-1.0443,-1.0218,-1.0143,-0.9916,-0.9231,-0.9231,-0.9231,-0.9306,-1.0209,-1.092,-1.133,-1.2168,-1.2689,-1.2869,-1.2966,-1.2881,-1.2528,-1.2357,-1.2357,-1.2619,-1.2711,-1.2881,-1.3149,-1.3698,-1.4044,0.0,0.0,1.1672,0.9213,0.7578,0.6181,0.4763,0.2757,0.0805,-0.061,-0.1454,-0.2348,-0.3403,-0.4794,-0.6663,-0.9284,-1.1541,-1.3942,-1.6575,-1.823,-1.9508,-2.0502,-2.1909,-2.3025,0.0,-2.3226,-2.3475,-2.4776,-2.5878,-2.6841,-2.7745,-2.7806,-2.7853,-2.7881,-2.7449,-2.6944,-2.6294,-2.5936,-2.5163,-2.4004,-2.4004,-2.3703,-2.3175,-2.4192,-2.4814,-2.5069,-2.5959,-2.6436,-2.6623,-2.6133,-2.5881,-2.5619,-2.5048,-2.4567,-2.4266,-2.3975,-2.454,-2.5356,-2.4738,-2.4017,-2.3174,-2.2117,-2.0998,-1.9723,-1.7883,-1.6385,-1.4868,-1.2731,-1.1258,-1.0049,-0.9039,-0.8207,-0.76,-0.7363,-0.752,-0.7838,-0.8447,-0.8908,-0.9448,-1.0288,-1.0588,-1.0887,-1.126,-1.1335,-1.149,-1.188,-1.1942,-1.1706,-1.1111,-1.0887,-1.0663,-1.0443,-1.0443,-1.0513,-1.0738,-1.1206,-1.1786,-1.2234,-1.2913,-1.3271,-1.3385,-1.296,-1.2534,-1.2015,-1.1413,-1.1154,-1.1322,-1.1585,-1.202,-1.246,-1.3171,-1.3513,0.0,0.0,1.2191,0.9838,0.7775,0.5834,0.3906,0.1762,-0.0159,-0.1555,-0.2575,-0.3558,-0.4758,-0.6197,-0.8152,-1.1138,-1.3689,-1.6219,-1.9018,-2.0479,-2.1716,-2.293,-2.3772,0.0,0.0,0.0,0.0,-2.6326,-2.6821,-2.7485,-2.8367,-2.8186,-2.7916,-2.7654,-2.6973,-2.6231,-2.5428,-2.4958,-2.4331,-2.3621,-2.3487,-2.3326,-2.3138,-2.3641,-2.3897,-2.4077,-2.4596,-2.4874,-2.4918,-2.4889,-2.4624,-2.4253,-2.3904,-2.3539,-2.3242,-2.2834,-2.2676,-2.2687,-2.2952,-2.2478,-2.1615,-2.0588,-1.9243,-1.7799,-1.6428,-1.5194,-1.3961,-1.2632,-1.1811,-1.1307,-1.0754,-1.0202,-0.9744,-0.9664,-0.9739,-0.982,-1.0051,-1.0426,-1.0807,-1.1031,-1.1335,-1.1632,-1.1781,-1.1929,-1.2003,-1.2164,-1.2096,-1.1942,-1.1706,-1.1409,-1.1186,-1.1111,-1.1111,-1.1111,-1.1186,-1.1991,-1.2542,-1.2724,-1.3421,-1.3639,-1.3222,-1.2711,-1.2015,-1.1068,-1.0549,-1.0289,-1.0376,-1.0463,-1.0722,-1.1251,-1.1817,-1.2043,1.5216,1.3691,1.1952,0.9538,0.7251,0.5009,0.2721,0.0602,-0.135,-0.2947,-0.3854,-0.4714,-0.6,-0.7574,-0.9751,-1.3072,-1.5714,-1.839,-2.1264,-2.2556,-2.3752,-2.4995,-2.5606,-2.6287,0.0,0.0,0.0,-2.7565,-2.7657,-2.8061,-2.8779,-2.8462,-2.8024,-2.7515,-2.6745,-2.5974,-2.5061,-2.4523,-2.3956,-2.3403,-2.321,-2.3078,-2.3138,-2.333,-2.3463,-2.3509,-2.3793,-2.3897,-2.3826,-2.3813,-2.3518,-2.3015,-2.264,-2.2262,-2.1779,-2.1279,-2.0685,-2.0331,-2.1072,-2.0705,-1.9661,-1.8366,-1.6876,-1.5385,-1.3966,-1.3056,-1.2272,-1.1643,-1.146,-1.1416,-1.1513,-1.1283,-1.1037,-1.1111,-1.1111,-1.1111,-1.1186,-1.1409,-1.1632,-1.1706,-1.1929,-1.2077,-1.2077,-1.2224,-1.2305,-1.2305,-1.2164,-1.2022,-1.2077,-1.1855,-1.1632,-1.1632,-1.1484,-1.1453,-1.1552,-1.2142,-1.2609,-1.2711,-1.3227,-1.3307,-1.2705,-1.2192,-1.1413,-1.0289,-0.9685,-0.9423,-0.9336,-0.9331,-0.9593,-1.0033,-1.0548,-1.0745,1.459,1.291,1.0912,0.8246,0.5964,0.3774,0.1351,-0.0725,-0.2672,-0.4621,-0.5218,-0.576,0.0,0.0,-1.1297,-1.4942,-1.7689,-2.0358,-2.3228,-2.4493,-2.5524,0.0,0.0,0.0,0.0,0.0,0.0,-2.8538,0.0,-2.8589,-2.9088,-2.8653,-2.8122,-2.7565,-2.6864,-2.6082,-2.523,-2.4751,-2.4118,-2.3403,-2.3198,-2.3138,-2.3138,-2.3271,-2.3403,-2.3403,-2.3509,-2.3497,-2.3292,-2.298,-2.2482,-2.1978,-2.1279,-2.0655,-1.9966,-1.9431,-1.8757,-1.8257,-1.9138,-1.8697,-1.741,-1.5608,-1.4044,-1.2575,-1.0858,-1.0193,-1.0012,-0.9927,-1.0119,-1.0606,-1.133,-1.1426,-1.1484,-1.1706,-1.1706,-1.1781,-1.2003,-1.2003,-1.2077,-1.2224,-1.2298,-1.2305,-1.2305,-1.2305,-1.2224,-1.2305,-1.2077,-1.2003,-1.2224,-1.2077,-1.2003,-1.1929,-1.1632,-1.1452,-1.1735,-1.1848,-1.1954,-1.2212,-1.256,-1.2443,-1.1929,-1.1327,-1.0549,-0.9602,-0.8899,-0.846,-0.8201,-0.8372,-0.8632,-0.8899,-0.9453,-0.9718,1.351,1.1391,0.902,0.6313,0.3887,0.1677,-0.049,-0.2274,-0.381,-0.4965,-0.5702,-0.6637,-0.8376,0.0,0.0,-1.7049,-1.9751,0.0,-2.5255,-2.6097,0.0,-2.833,0.0,-2.9015,-3.0225,-3.0558,0.0,0.0,-2.9707,-2.9484,-2.9617,-2.8889,-2.835,-2.8024,-2.7137,-2.6418,-2.5893,-2.4865,-2.4131,-2.3772,-2.3463,-2.333,-2.333,-2.321,-2.3138,-2.303,-2.2982,-2.2653,-2.2249,-2.1939,-2.1439,-2.0805,-2.0204,-1.9617,-1.9023,-1.822,-1.7541,-1.6853,-1.5965,-1.5606,-1.5209,-1.3151,-1.1456,-1.0075,-0.8875,-0.8444,-0.8524,-0.8983,-0.9683,-1.0503,-1.1286,-1.1523,-1.1706,-1.2077,-1.215,-1.2157,-1.2224,-1.2231,-1.2224,-1.2298,-1.215,-1.2077,-1.2077,-1.1855,-1.1706,-1.1855,-1.1558,-1.1484,-1.2003,-1.1781,-1.1484,-1.1335,-1.1111,-1.0994,-1.1016,-1.1277,-1.1532,-1.1798,-1.2047,-1.1929,-1.1241,-1.0895,-1.0111,-0.8807,-0.846,-0.8113,-0.768,-0.7768,-0.7852,-0.812,-0.8551,-0.8707,1.14,0.8985,0.6467,0.3882,0.1542,-0.0522,-0.2149,-0.3528,-0.4595,-0.5202,-0.593,0.0,-0.8744,0.0,0.0,0.0,0.0,0.0,-2.6516,-2.7206,-2.7816,0.0,-2.911,0.0,-3.0586,-3.0931,-3.1055,0.0,-3.0468,-3.0027,-2.9913,-2.9166,-2.8574,-2.8235,-2.7423,-2.6698,-2.6111,-2.516,-2.4536,-2.4287,-2.3923,-2.3628,-2.345,-2.333,-2.309,-2.2909,0.0,-2.2173,-2.1639,-2.106,-2.0484,-1.9835,-1.9166,-1.8566,-1.7959,-1.6922,-1.6237,-1.548,-1.4027,-1.3477,-1.2974,-1.1175,-0.974,-0.8526,-0.7523,-0.7382,-0.7624,-0.8466,-0.9408,-1.0359,-1.1253,-1.162,-1.1929,-1.2224,-1.2305,-1.2305,-1.2305,-1.2305,-1.2305,-1.2157,-1.2003,-1.1781,-1.1632,-1.1335,-1.1186,-1.1186,-1.0982,-1.0901,-1.1205,-1.1129,-1.0989,-1.0936,-1.0473,-1.0167,-1.0242,-1.0272,-1.0367,-1.0508,-1.0727,-1.0539,-1.0111,-0.985,-0.9244,-0.8197,-0.8025,-0.7676,-0.7323,-0.7323,-0.7411,-0.7591,-0.7749,-0.7902,0.8517,0.5945,0.3413,0.1101,-0.0946,-0.2662,-0.3698,-0.457,-0.5193,-0.5349,0.0,-0.6907,-0.8567,-1.1017,-1.4283,-1.8687,0.0,-2.4328,-2.7121,-2.7811,-2.8269,-2.8959,-2.9283,-2.9696,-3.0295,-3.0745,-3.0985,-3.0903,-3.0513,-3.0186,-3.0044,-2.9358,-2.8638,-2.7862,-2.7385,-2.6711,-2.5923,-2.5438,-2.5051,-2.4784,-2.4381,-2.3956,-2.3675,-2.345,-2.3223,-2.2787,0.0,0.0,-2.1198,-2.0366,-1.9704,-1.911,-1.8307,-1.7638,-1.7028,-1.5895,-1.5125,-1.4418,-1.3112,-1.215,-1.1222,-0.9927,-0.8747,-0.7785,-0.6963,-0.697,-0.7473,-0.8367,-0.9433,-1.0406,-1.1236,-1.174,-1.2077,-1.2231,-1.2305,-1.2305,-1.2305,-1.2305,-1.2224,-1.2003,-1.1781,-1.1484,-1.1111,-1.0738,-1.0513,-1.0363,-1.0264,-1.0266,-1.0147,-1.0226,-1.0399,-1.0521,-0.9631,-0.9127,-0.9299,-0.8971,-0.8867,-0.9135,-0.9148,-0.9061,-0.8803,-0.8544,-0.8197,-0.7764,-0.7591,-0.7326,-0.7139,-0.7139,-0.7051,-0.7054,-0.7302,-0.7349,0.4764,0.234,0.0042,-0.2001,-0.3459,-0.4556,-0.5153,-0.5513,0.0,0.0,0.0,-0.6799,-0.8547,-1.1063,0.0,-1.8256,0.0,0.0,0.0,0.0,-2.8411,0.0,0.0,0.0,0.0,0.0,0.0,0.0,0.0,0.0,-3.0201,-2.901,-2.7593,-2.6116,-2.5768,-2.538,-2.5019,-2.5114,-2.5001,-2.4721,-2.4509,-2.4292,-2.4015,-2.3569,-2.3103,-2.2482,0.0,0.0,-2.056,-1.9922,-1.9264,-1.8607,-1.7978,-1.7442,-1.683,-1.585,-1.5141,-1.4497,-1.3484,-1.2599,-1.1596,-0.9772,-0.8559,-0.7845,-0.7663,-0.7702,-0.8164,-0.9228,-1.0079,-1.0827,-1.1464,-1.1819,-1.2077,-1.2231,-1.2305,-1.2305,-1.2305,-1.2305,-1.2224,-1.2003,-1.1558,-1.1111,-1.0663,-0.9906,-0.9377,-0.9523,-0.9256,-0.9147,-0.9646,-0.9666,-0.9585,-0.9275,-0.8737,-0.84,-0.8451,-0.834,-0.8443,-0.8707,-0.8719,-0.8548,-0.8372,-0.8285,-0.8025,-0.7591,-0.7507,-0.7326,-0.7139,-0.7139,-0.7054,-0.6884,-0.7034,-0.6841,0.1344,-0.0833,-0.2745,-0.4287,-0.5266,-0.5839,-0.5905,0.0,0.0,0.0,0.0,-0.6637,-0.8436,0.0,0.0,0.0,0.0,0.0,0.0,0.0,0.0,0.0,0.0,0.0,0.0,0.0,0.0,0.0,0.0,0.0,-2.9173,-2.7987,-2.6838,-2.5879,-2.5506,-2.5221,-2.511,-2.5075,-2.4934,-2.4629,-2.4295,-2.4053,-2.3957,-2.3399,-2.2993,-2.2604,-2.2137,0.0,-2.0431,-1.9868,-1.9152,-1.8414,-1.7784,-1.7314,-1.676,-1.5709,-1.5062,-1.4625,-1.3688,-1.3039,-1.2399,-1.1163,-0.9983,-0.9006,-0.9025,-0.9133,-0.9428,-1.0283,-1.0864,-1.1344,-1.1738,-1.2003,-1.215,-1.2305,-1.2305,-1.2305,-1.2305,-1.2305,-1.2224,-1.1929,-1.1335,-1.0738,-1.0143,-0.9296,-0.868,-0.8542,-0.8438,-0.8412,-0.8565,-0.8589,-0.8713,-0.8891,-0.83,-0.7823,-0.7816,-0.7733,-0.7676,-0.7837,-0.7845,-0.7757,-0.7669,-0.7669,-0.7496,-0.7323,-0.7149,-0.7058,-0.6966,-0.67,-0.6523,-0.6441,-0.6239,-0.6119,-0.177,-0.3631,-0.5089,-0.5991,-0.6489,-0.6696,-0.6243,-0.5877,0.0,0.0,-0.5588,-0.6681,-0.8489,0.0,0.0,0.0,0.0,0.0,0.0,0.0,0.0,0.0,0.0,0.0,0.0,0.0,0.0,0.0,0.0,0.0,-2.7876,-2.6925,-2.6174,-2.5695,-2.5288,-2.5027,-2.5027,-2.4941,-2.4728,-2.4471,-2.4069,-2.3826,-2.3676,-2.3083,-2.2783,-2.2602,-2.203,0.0,0.0,-1.9922,-1.9274,-1.8539,-1.7852,-1.7382,-1.6968,-1.5912,-1.5409,-1.5046,-1.425,-1.376,-1.3339,-1.2813,-1.169,-1.0484,-1.049,-1.0567,-1.0716,-1.1177,-1.1495,-1.1781,-1.2003,-1.215,-1.2305,-1.2305,-1.2305,-1.2305,-1.2305,-1.2305,-1.215,-1.1781,-1.1186,-1.0513,-0.969,-0.8761,-0.8067,-0.7706,-0.7711,-0.7756,-0.7683,-0.7733,-0.794,-0.856,-0.7856,-0.7415,-0.733,-0.7146,-0.7051,-0.6962,-0.6962,-0.6962,-0.6962,-0.6962,-0.6962,-0.6874,-0.6704,-0.6618,-0.6526,-0.6171,-0.5905,-0.5725,-0.5371,-0.5148,-0.446,-0.5889,-0.6891,-0.7114,-0.7159,-0.6953,-0.618,0.0,0.0,-0.5067,-0.5832,-0.7084,-0.8885,-1.1495,0.0,0.0,0.0,0.0,0.0,0.0,0.0,0.0,0.0,0.0,0.0,0.0,0.0,0.0,0.0,0.0,0.0,-2.6286,-2.5509,-2.4319,-2.4048,-2.3876,-2.3789,-2.4208,-2.4322,-2.4043,-2.414,-2.3835,-2.3216,-2.2656,-2.2196,-2.1856,0.0,0.0,0.0,-2.0172,-1.9649,-1.9008,-1.8405,-1.7988,-1.7569,-1.6968,-1.6403,-1.5903,-1.5692,-1.4982,-1.4201,-1.3985,-1.2826,-1.1521,-1.1596,-1.144,-1.1372,-1.1819,-1.1948,-1.2003,-1.2231,-1.2298,-1.2305,-1.2305,-1.2305,-1.2305,-1.2305,-1.2305,-1.215,-1.1781,-1.1037,-1.0288,-0.9453,-0.8389,-0.748,-0.7257,-0.7221,-0.7267,-0.7364,-0.7483,-0.7595,-0.7591,-0.7323,-0.7054,-0.6884,-0.6884,-0.6704,-0.652,-0.6428,-0.6428,-0.6428,-0.6428,-0.6343,-0.6171,-0.6171,-0.5994,-0.5549,-0.546,-0.5102,-0.4476,-0.4389,-0.4214,-0.5522,-0.6428,-0.6951,-0.7032,-0.6746,-0.6312,-0.5616,0.0,-0.5097,-0.5289,-0.6355,-0.7864,-0.9804,-1.2254,-1.4783,0.0,-2.033,-2.2947,0.0,0.0,0.0,0.0,0.0,0.0,0.0,0.0,0.0,0.0,0.0,0.0,0.0,-2.5686,-2.5042,-2.4359,-2.4009,-2.3739,-2.3595,-2.382,-2.3822,-2.3703,-2.3435,-2.3229,-2.305,-2.231,-2.1936,-2.1851,0.0,0.0,0.0,-2.0364,-1.9909,-1.9341,-1.8808,-1.8337,-1.7794,-1.7314,-1.6959,-1.6673,-1.6263,-1.5692,-1.5125,-1.4561,-1.3695,-1.2746,-1.2378,-1.2077,-1.2003,-1.215,-1.215,-1.2224,-1.2305,-1.2305,-1.2305,-1.2305,-1.2305,-1.2305,-1.2305,-1.2305,-1.215,-1.1781,-1.1037,-1.0212,-0.9453,-0.8318,-0.7407,-0.7099,-0.6957,-0.6846,-0.6957,-0.7135,-0.7234,-0.7234,-0.7143,-0.7054,-0.6792,-0.6612,-0.6432,-0.5985,-0.5985,-0.5899,-0.5813,-0.5813,-0.5725,-0.5638,-0.528,-0.4924,-0.4746,-0.4569,-0.4302,-0.4034,-0.3587,-0.3409,-0.593,-0.6399,-0.6532,-0.6467,-0.6062,-0.5543,0.0,-0.4889,-0.5077,-0.5722,-0.7117,-0.8833,-1.0897,-1.3274,-1.5562,0.0,-2.0555,-2.3009,-2.4278,0.0,0.0,0.0,0.0,0.0,0.0,0.0,0.0,0.0,0.0,0.0,0.0,-2.5191,-2.4634,-2.4498,-2.4094,-2.3782,-2.3595,-2.3595,-2.3566,-2.3466,-2.2979,-2.2708,-2.2637,-2.1834,-2.1551,-2.1559,0.0,0.0,0.0,-2.0449,-1.9997,-1.9447,-1.9078,-1.8548,-1.7957,-1.7677,-1.7451,-1.7245,-1.6751,-1.6193,-1.5559,-1.484,-1.3985,-1.32,-1.2746,-1.2452,-1.2305,-1.2305,-1.2305,-1.2305,-1.2305,-1.2305,-1.2305,-1.2305,-1.2305,-1.2305,-1.2231,-1.2224,-1.2077,-1.1558,-1.0812,-1.0062,-0.915,-0.8165,-0.7253,-0.6865,-0.6683,-0.6639,-0.6705,-0.6922,-0.7007,-0.7048,-0.6962,-0.6789,-0.6615,-0.6257,-0.5808,-0.5275,-0.5186,-0.5008,-0.4832,-0.4832,-0.4924,-0.4926,-0.4391,-0.4032,-0.3855,-0.3678,-0.3409,-0.305,-0.2512,-0.2064,-0.5751,-0.5945,-0.5921,-0.5528,-0.5168,-0.4854,0.0,-0.4786,-0.5362,-0.6556,-0.8208,-1.0136,-1.2195,-1.4496,-1.6622,-1.8327,-2.0628,-2.272,-2.4197,0.0,0.0,0.0,0.0,0.0,0.0,0.0,0.0,0.0,0.0,0.0,0.0,-2.4944,-2.43,-2.4467,-2.4151,-2.3882,-2.3595,-2.3595,-2.3523,-2.3319,-2.3038,-2.2526,-2.1807,-2.1251,-2.0936,0.0,0.0,0.0,0.0,-2.0459,-1.9913,-1.9321,-1.916,-1.8722,-1.8121,-1.8245,-1.794,-1.747,-1.7245,-1.6473,-1.5426,-1.4824,-1.3825,-1.29,-1.2673,-1.2452,-1.2305,-1.2305,-1.2305,-1.2305,-1.2305,-1.2305,-1.2305,-1.2305,-1.2305,-1.2231,-1.2077,-1.2003,-1.1781,-1.0962,-1.0293,-0.9614,-0.8556,-0.7714,-0.7103,-0.6641,-0.6537,-0.6529,-0.6681,-0.6834,-0.69,-0.6779,-0.6523,-0.6343,-0.6083,-0.5455,-0.4832,-0.4387,-0.3848,-0.3578,-0.3578,-0.3578,-0.3671,-0.3857,-0.3767,-0.3499,-0.2875,-0.2875,-0.2424,-0.1436,-0.0807,-0.0179,-0.5492,-0.5432,-0.5163,-0.5174,-0.4761,-0.442,-0.4665,-0.5268,-0.6272,-0.7982,-0.9852,-1.1838,-1.38,-1.5819,-1.7638,-1.8912,0.0,0.0,0.0,0.0,0.0,0.0,0.0,0.0,0.0,0.0,0.0,0.0,0.0,0.0,0.0,0.0,-2.4191,-2.3897,-2.3084,-2.2763,-2.2966,-2.2966,-2.3148,-2.3422,-2.2979,-2.2526,-2.2044,-2.1237,0.0,0.0,0.0,0.0,0.0,-2.02,-1.9908,-1.9584,-1.9166,-1.8751,-1.8402,-1.8102,-1.7925,-1.7755,-1.7166,-1.643,-1.553,-1.4553,-1.3688,-1.3046,-1.2673,-1.2378,-1.215,-1.2224,-1.2305,-1.2305,-1.2305,-1.2305,-1.2305,-1.2157,-1.2077,-1.2003,-1.1632,-1.1484,-1.1186,-1.0513,-0.9911,-0.9226,-0.8313,-0.7638,-0.7026,-0.6641,-0.6534,-0.6525,-0.6681,-0.6834,-0.6897,-0.6779,-0.6254,-0.5811,-0.5638,-0.4924,-0.4389,-0.3944,-0.3585,-0.3136,-0.2689,-0.296,-0.3141,-0.3142,-0.2512,-0.2063,-0.1885,-0.1885,-0.1076,0.0538,0.0718,0.1076,0.0,-0.5418,-0.5168,-0.5348,-0.5151,-0.5025,-0.565,-0.6611,-0.7961,-0.9826,-1.1734,-1.3609,-1.5485,-1.7127,-1.866,-1.9993,0.0,0.0,0.0,0.0,0.0,0.0,0.0,0.0,0.0,0.0,0.0,0.0,0.0,0.0,0.0,0.0,-2.3426,-2.2938,-2.2347,-2.2137,-2.2374,-2.2589,-2.2793,-2.2965,-2.2773,-2.2434,-2.1888,-2.1153,0.0,0.0,0.0,0.0,0.0,-1.9924,-1.9727,-1.9479,-1.9054,-1.866,-1.8268,-1.7945,-1.782,-1.7648,-1.7002,-1.6227,-1.538,-1.4418,-1.3768,-1.3266,-1.3039,-1.2666,-1.2378,-1.2599,-1.2526,-1.2378,-1.2378,-1.2378,-1.2231,-1.2077,-1.1929,-1.1706,-1.1186,-1.0887,-1.0513,-0.969,-0.915,-0.8613,-0.7778,-0.7249,-0.6872,-0.6567,-0.6414,-0.6468,-0.6675,-0.6783,-0.6748,-0.6681,-0.5988,-0.5366,-0.4832,-0.4297,-0.3764,-0.332,-0.269,-0.2152,-0.1615,-0.1885,-0.2154,-0.2334,-0.1705,-0.1256,-0.0898,-0.0898,-0.0179,0.1166,0.1345,0.1705,0.0,-0.6013,-0.5887,-0.6092,-0.6272,-0.6625,-0.746,-0.8669,0.0,-1.2043,-1.3761,-1.548,-1.7127,-1.845,-1.9773,-2.1288,0.0,0.0,0.0,0.0,0.0,0.0,0.0,0.0,0.0,0.0,0.0,0.0,0.0,0.0,0.0,0.0,-2.2214,-2.1745,-2.1889,-2.1919,-2.1747,-2.2299,-2.2367,-2.2016,-2.2423,-2.2179,-2.1307,-2.0944,0.0,0.0,0.0,0.0,0.0,-1.9656,-1.9356,-1.9047,-1.8978,-1.8566,-1.7973,-1.7927,-1.7622,-1.7229,-1.6665,-1.5901,-1.5076,-1.4474,-1.3992,-1.3557,-1.3608,-1.3324,-1.3046,-1.3193,-1.2973,-1.268,-1.2599,-1.2452,-1.2224,-1.2003,-1.1781,-1.1409,-1.0588,-1.0212,-0.9765,-0.8551,-0.8165,-0.7778,-0.7015,-0.6714,-0.6563,-0.6338,-0.6338,-0.6363,-0.6647,-0.6695,-0.6642,-0.6389,-0.5808,-0.5013,-0.4026,-0.3494,-0.2959,-0.2334,-0.1345,-0.0718,-0.0628,-0.0628,-0.0897,-0.1256,-0.1256,-0.0898,-0.0,-0.0,0.018,0.0628,0.1076,0.1615,-0.9345,0.0,-0.7488,-0.8179,-0.8517,-0.8861,0.0,-1.0988,-1.2386,-1.4114,0.0,-1.7114,-1.8359,-1.9907,-2.128,0.0,0.0,0.0,0.0,0.0,0.0,0.0,0.0,0.0,0.0,0.0,0.0,0.0,0.0,0.0,0.0,0.0,-2.2102,-2.1148,-2.0902,-2.0891,-2.1016,-2.112,-2.1253,-2.1401,-2.1715,-2.1468,-2.0711,-2.066,0.0,0.0,0.0,0.0,-1.9798,-1.9656,-1.946,-1.9275,-1.8982,-1.8762,-1.8532,-1.7969,-1.7499,-1.7149,-1.6656,-1.582,-1.4891,-1.4419,-1.4194,-1.4194,-1.4824,-1.4474,-1.3768,-1.3695,-1.3492,-1.3148,-1.2753,-1.2452,-1.2077,-1.126,-1.0962,-1.0513,-0.9528,-0.9079,-0.8623,-0.7851,-0.7553,-0.7253,-0.6791,-0.6641,-0.6563,-0.6338,-0.6338,-0.6325,-0.6505,-0.6627,-0.6602,-0.6267,-0.5761,-0.5013,-0.4026,-0.3318,-0.2603,-0.1705,-0.1346,-0.0897,-0.018,-0.018,-0.018,-0.0359,-0.0359,-0.018,-0.0,-0.0,-0.009,-0.0359,0.009,0.0628,-1.2038,-1.0977,-0.9708,-1.0731,-1.1297,-1.1881,-1.2812,0.0,0.0,0.0,0.0,-1.8598,-1.9849,0.0,0.0,0.0,0.0,0.0,0.0,0.0,0.0,0.0,0.0,0.0,0.0,0.0,0.0,0.0,0.0,0.0,0.0,0.0,-2.1824,-2.1055,-2.0646,-2.0424,-2.0412,-2.0595,-2.0679,-2.0648,-2.1011,-2.0901,-2.0321,-2.0233,0.0,0.0,0.0,0.0,-1.9798,-1.9708,-1.9617,-1.946,-1.9158,-1.8898,-1.8629,-1.8025,-1.7509,-1.6982,-1.6505,-1.5872,-1.523,-1.4877,-1.5023,-1.5338,-1.5833,-1.5692,-1.5267,-1.4697,-1.4209,-1.3717,-1.3046,-1.2599,-1.2003,-1.0887,-1.0443,-0.9911,-0.8846,-0.8318,-0.7936,-0.7242,-0.7022,-0.6795,-0.6486,-0.649,-0.6412,-0.6338,-0.6338,-0.6312,-0.6454,-0.6546,-0.6513,-0.6386,-0.5779,-0.5137,-0.4469,-0.3585,-0.2602,-0.1436,-0.1166,-0.0808,-0.0359,-0.009,-0.0,-0.0,-0.0,-0.018,-0.0628,-0.0628,-0.0718,-0.0807,-0.0538,-0.0179,-1.4287,-1.3572,-1.2598,-1.3631,-1.4393,-1.516,-1.5932,0.0,0.0,0.0,0.0,0.0,0.0,0.0,0.0,0.0,0.0,0.0,0.0,0.0,0.0,0.0,0.0,0.0,0.0,0.0,0.0,0.0,0.0,0.0,0.0,0.0,0.0,-2.123,-2.0794,-2.0392,-2.0041,-2.0384,-2.0353,-1.9914,-2.0323,-2.0311,-1.9867,-1.9743,0.0,0.0,0.0,0.0,-1.9798,-1.9798,-1.9759,-1.9604,-1.946,-1.9146,-1.8614,-1.8116,-1.7486,-1.6853,-1.6267,-1.5905,-1.5689,-1.5624,-1.5876,-1.6394,-1.67,-1.6848,-1.6839,-1.5991,-1.5204,-1.4338,-1.3477,-1.282,-1.1996,-1.0738,-1.0067,-0.9382,-0.8156,-0.7702,-0.7322,-0.656,-0.6405,-0.6331,-0.618,-0.6183,-0.618,-0.6257,-0.6257,-0.6305,-0.6424,-0.6458,-0.6498,-0.6518,-0.5966,-0.551,-0.5179,-0.4208,-0.3136,-0.2061,-0.1434,-0.1076,-0.0897,-0.0448,-0.0179,-0.018,-0.018,-0.0629,-0.1436,-0.1525,-0.1524,-0.1345,-0.1435,-0.1255,-1.5616,-1.6347,-1.6647,-1.691,-1.739,-1.7883,-1.8378,0.0,0.0,0.0,0.0,0.0,0.0,0.0,0.0,0.0,0.0,0.0,0.0,0.0,0.0,0.0,0.0,0.0,0.0,0.0,0.0,0.0,0.0,0.0,0.0,0.0,0.0,-2.1386,-2.099,-2.0595,-2.027,-2.0046,-1.9781,-1.9411,-1.9728,-1.9502,-1.8946,-1.9469,-1.9571,0.0,0.0,-1.9798,-1.9798,-1.9798,-1.9798,-1.9759,-1.9604,-1.9396,-1.9028,-1.8309,-1.7601,-1.6846,-1.5958,-1.5732,-1.5957,-1.6251,-1.6423,-1.6573,-1.7304,-1.747,-1.7401,-1.7254,-1.6403,-1.5259,-1.3962,-1.2938,-1.1909,-1.0363,-0.9311,-0.8318,-0.731,-0.6777,-0.6321,-0.5628,-0.5476,-0.5476,-0.5476,-0.5476,-0.5553,-0.5941,-0.5941,-0.6028,-0.6291,-0.6396,-0.6461,-0.6386,-0.6172,-0.5944,-0.5622,-0.528,-0.4924,-0.4474,-0.3673,-0.278,-0.1974,-0.1436,-0.1166,-0.1166,-0.1166,-0.1256,-0.1436,-0.2243,-0.2782,-0.2959,-0.3229,-0.3226,-1.6444,-1.7624,-1.8663,-1.9452,-1.9794,-2.0055,-2.0367,0.0,0.0,0.0,0.0,0.0,0.0,0.0,0.0,0.0,0.0,0.0,0.0,0.0,0.0,0.0,0.0,0.0,0.0,0.0,0.0,0.0,0.0,0.0,0.0,0.0,0.0,0.0,-2.1183,-2.0811,-2.0357,-2.008,-1.9726,-1.9302,-1.9277,-1.9079,-1.8692,-1.8821,-1.883,-1.8786,0.0,-1.9384,-1.9409,-1.9685,-1.9798,-1.9798,-1.9759,-1.95,-1.9081,-1.7995,-1.7234,-1.6694,-1.5906,-1.579,-1.6061,-1.6225,-1.644,-1.6663,-1.7054,-1.7317,-1.7398,-1.7322,-1.6725,-1.5762,-1.4537,-1.3295,-1.205,-1.0438,-0.9311,-0.8241,-0.7161,-0.6707,-0.6247,-0.5473,-0.5321,-0.5321,-0.5321,-0.5321,-0.5476,-0.5864,-0.5864,-0.6018,-0.6261,-0.6318,-0.6413,-0.64,-0.6299,-0.6269,-0.6225,-0.5954,-0.5458,-0.4654,-0.421,-0.3585,-0.2601,-0.2331,-0.2331,-0.2601,-0.2601,-0.2601,-0.269,-0.3141,-0.3588,-0.3853,-0.4034,-0.4119,-1.7058,-1.8382,-1.9794,-2.1129,-2.1559,-2.1745,-2.1956,0.0,0.0,0.0,0.0,0.0,0.0,0.0,0.0,0.0,0.0,0.0,0.0,0.0,0.0,0.0,0.0,0.0,0.0,0.0,0.0,0.0,0.0,0.0,0.0,0.0,0.0,0.0,-2.1371,-2.0974,-2.0444,-2.0204,-1.9854,-1.9376,-1.9064,-1.8807,-1.863,-1.8342,-1.8252,-1.8295,-1.8641,-1.8783,-1.8869,-1.9258,-1.951,-1.9623,-1.9623,-1.9441,-1.9028,-1.782,-1.7112,-1.6637,-1.5992,-1.5868,-1.6035,-1.6055,-1.6297,-1.6604,-1.6685,-1.6967,-1.7227,-1.7077,-1.6645,-1.5964,-1.5059,-1.3795,-1.2412,-1.0801,-0.9609,-0.847,-0.7322,-0.6795,-0.6257,-0.5398,-0.5165,-0.5087,-0.5087,-0.5085,-0.524,-0.5786,-0.5864,-0.5944,-0.6261,-0.6338,-0.6315,-0.6458,-0.6417,-0.6459,-0.6603,-0.6399,-0.5849,-0.4854,-0.463,-0.4208,-0.3492,-0.3403,-0.3583,-0.3942,-0.3942,-0.3944,-0.4123,-0.4123,-0.4302,-0.4654,-0.4654,-0.4921,-1.7545,-1.8864,-2.0277,-2.161,-2.2373,0.0,-2.2972,-2.338,0.0,0.0,0.0,0.0,0.0,0.0,0.0,0.0,0.0,0.0,0.0,0.0,0.0,0.0,0.0,0.0,0.0,0.0,0.0,0.0,0.0,0.0,0.0,0.0,0.0,0.0,0.0,-2.1055,-2.0494,-2.0239,-1.9904,-1.9574,-1.9101,-1.876,-1.852,-1.8311,-1.8118,-1.7932,-1.8156,-1.8267,-1.8267,-1.8304,-1.8618,-1.9083,-1.9083,-1.9029,-1.8922,-1.8251,-1.7556,-1.6909,-1.629,-1.5906,-1.58,-1.6035,-1.6128,-1.6198,-1.6604,-1.6697,-1.6777,-1.6714,-1.6341,-1.588,-1.5496,-1.4363,-1.2976,-1.1378,-0.997,-0.8699,-0.771,-0.6802,-0.5957,-0.5162,-0.4701,-0.4472,-0.4462,-0.4462,-0.4696,-0.5479,-0.5637,-0.5792,-0.6261,-0.6338,-0.6315,-0.6458,-0.6481,-0.6549,-0.6702,-0.6773,-0.6629,-0.6161,-0.5605,-0.5282,-0.5193,-0.501,-0.483,-0.4919,-0.4919,-0.4921,-0.4921,-0.5191,-0.5369,-0.563,-0.5813,-0.608,-1.8211,-1.9464,-2.0732,-2.1989,0.0,0.0,0.0,0.0,0.0,0.0,0.0,0.0,0.0,0.0,0.0,0.0,0.0,0.0,0.0,0.0,0.0,0.0,0.0,0.0,0.0,0.0,0.0,0.0,0.0,0.0,0.0,0.0,0.0,0.0,0.0,-2.1135,-2.0527,-2.0323,-2.0045,-1.9669,-1.925,-1.8822,-1.8475,-1.799,-1.7597,-1.7351,-1.7586,-1.7689,-1.7714,-1.8066,-1.8329,-1.852,-1.8759,-1.8973,-1.9028,-1.8429,-1.7776,-1.7022,-1.6431,-1.5982,-1.5692,-1.5654,-1.5645,-1.5673,-1.5831,-1.6096,-1.6318,-1.6318,-1.6254,-1.6131,-1.5742,-1.4547,-1.3113,-1.2071,-1.087,-0.9609,-0.847,-0.7787,-0.7173,-0.6321,-0.5931,-0.5699,-0.5544,-0.5544,-0.5625,-0.5948,-0.6028,-0.6106,-0.6261,-0.6338,-0.6281,-0.6335,-0.642,-0.6532,-0.6688,-0.6753,-0.6679,-0.6539,-0.622,-0.5883,-0.5697,-0.5613,-0.5558,-0.5453,-0.5453,-0.5544,-0.5725,-0.5816,-0.5994,-0.6346,-0.6526,-0.6612,-1.8818,-2.009,-2.1401,0.0,0.0,0.0,0.0,0.0,0.0,0.0,0.0,0.0,0.0,0.0,0.0,0.0,0.0,0.0,0.0,0.0,0.0,0.0,0.0,0.0,0.0,0.0,0.0,0.0,0.0,0.0,0.0,0.0,0.0,0.0,0.0,0.0,-2.0527,-2.0373,-2.0096,-1.969,-1.9325,-1.895,-1.8592,-1.7908,-1.7393,-1.7057,-1.7168,-1.7156,-1.7137,-1.7513,-1.7777,-1.8028,-1.8635,-1.8927,-1.9007,-1.8608,-1.8061,-1.7401,-1.6637,-1.6134,-1.5778,-1.5478,-1.541,-1.541,-1.541,-1.5615,-1.5859,-1.5859,-1.5953,-1.597,-1.5595,-1.4664,-1.3576,-1.2597,-1.1704,-1.0663,-0.9458,-0.8846,-0.8232,-0.7399,-0.7007,-0.6773,-0.6549,-0.6472,-0.6475,-0.656,-0.649,-0.6412,-0.6412,-0.6338,-0.6338,-0.6338,-0.6386,-0.6498,-0.6556,-0.6603,-0.661,-0.6566,-0.64,-0.6258,-0.6227,-0.6236,-0.621,-0.616,-0.6163,-0.6254,-0.6438,-0.6438,-0.6612,-0.6881,-0.6881,-0.6966,-1.932,-2.0798,-2.2271,0.0,0.0,0.0,0.0,0.0,0.0,0.0,0.0,0.0,0.0,0.0,0.0,0.0,0.0,0.0,0.0,0.0,0.0,0.0,0.0,0.0,0.0,0.0,0.0,0.0,0.0,0.0,0.0,0.0,0.0,0.0,0.0,0.0,-2.0527,-2.0373,-2.0096,-1.969,-1.9435,-1.9139,-1.8784,-1.8108,-1.7598,-1.7199,-1.6846,-1.662,-1.6522,-1.6522,-1.6861,-1.7488,-1.8581,-1.8908,-1.8796,-1.8775,-1.8489,-1.7929,-1.6931,-1.6363,-1.5989,-1.5526,-1.541,-1.541,-1.541,-1.541,-1.541,-1.541,-1.5313,-1.5183,-1.5035,-1.4876,-1.4413,-1.298,-1.2301,-1.1706,-1.0443,-0.9755,-0.9069,-0.8309,-0.777,-0.7464,-0.7238,-0.7092,-0.7015,-0.7165,-0.6865,-0.6641,-0.6563,-0.6412,-0.6338,-0.6338,-0.6386,-0.6413,-0.6274,-0.639,-0.641,-0.6271,-0.6338,-0.6461,-0.6909,-0.6926,-0.6993,-0.7136,-0.7139,-0.7139,-0.7139,-0.7139,-0.7139,-0.7139,-0.7139,-0.7139,-2.1101,-2.1882,0.0,0.0,0.0,0.0,0.0,0.0,0.0,0.0,0.0,0.0,0.0,0.0,0.0,0.0,0.0,0.0,0.0,0.0,0.0,0.0,0.0,0.0,0.0,0.0,0.0,0.0,0.0,0.0,0.0,0.0,0.0,0.0,0.0,0.0,-2.0527,-2.0373,-2.0096,-1.969,-1.956,-1.9302,-1.886,-1.8108,-1.7639,-1.7323,-1.6876,-1.662,-1.6522,-1.6522,-1.6861,-1.7413,-1.7739,-1.7997,-1.8189,-1.7908,-1.7678,-1.7406,-1.6515,-1.613,-1.5989,-1.5526,-1.541,-1.541,-1.541,-1.541,-1.5362,-1.5313,-1.5205,-1.5058,-1.4454,-1.4292,-1.4007,-1.3209,-1.2799,-1.2305,-1.126,-1.0812,-1.0432,-1.0056,-0.9825,-0.9523,-0.915,-0.8846,-0.8385,-0.7927,-0.7403,-0.6872,-0.6412,-0.6338,-0.6338,-0.6338,-0.6298,-0.6305,-0.6264,-0.6298,-0.6305,-0.6264,-0.6338,-0.6413,-0.6756,-0.677,-0.6885,-0.7136,-0.7139,-0.7139,-0.7139,-0.7139,-0.7139,-0.7139,-0.7139,-0.7139,-2.1877,0.0,0.0,0.0,0.0,0.0,0.0,0.0,0.0,0.0,0.0,0.0,0.0,0.0,0.0,0.0,0.0,0.0,0.0,0.0,0.0,0.0,0.0,0.0,0.0,0.0,0.0,0.0,0.0,0.0,0.0,0.0,0.0,0.0,0.0,0.0,-2.0628,-2.0407,-2.0115,-1.9726,-1.9632,-1.9413,-1.9026,-1.8383,-1.7868,-1.7475,-1.6918,-1.662,-1.6522,-1.6522,-1.6722,-1.7061,-1.73,-1.753,-1.7644,-1.7484,-1.7246,-1.6905,-1.6224,-1.5935,-1.5756,-1.5467,-1.541,-1.541,-1.541,-1.541,-1.5362,-1.5264,-1.5156,-1.4911,-1.413,-1.3925,-1.3774,-1.3142,-1.2904,-1.2601,-1.1829,-1.1558,-1.1335,-1.1111,-1.0962,-1.0738,-1.0293,-0.9836,-0.9301,-0.8537,-0.771,-0.6872,-0.6338,-0.6338,-0.6338,-0.6338,-0.6338,-0.6338,-0.6338,-0.6338,-0.6338,-0.6338,-0.6338,-0.6366,-0.66,-0.6668,-0.6841,-0.7136,-0.7139,-0.7139,-0.7139,-0.7139,-0.7139,-0.7139,-0.7139,-0.7139,-2.2002,0.0,0.0,0.0,0.0,0.0,0.0,0.0,0.0,0.0,0.0,0.0,0.0,0.0,0.0,0.0,0.0,0.0,0.0,0.0,0.0,0.0,0.0,0.0,0.0,0.0,0.0,0.0,0.0,0.0,0.0,0.0,0.0,0.0,0.0,0.0,-2.0794,-2.046,-2.0131,0.0,-1.9669,-1.9487,-1.9302,-1.8745,-1.8187,-1.7598,-1.696,-1.662,-1.6522,-1.6522,-1.6522,-1.6572,-1.7099,-1.7242,-1.7157,-1.723,-1.694,-1.6478,-1.5998,-1.5621,-1.5381,-1.5339,-1.5381,-1.541,-1.541,-1.5362,-1.5362,-1.5147,-1.5029,-1.4734,-1.389,-1.3653,-1.3484,-1.2795,-1.2677,-1.2593,-1.2091,-1.2003,-1.1929,-1.1558,-1.1484,-1.1335,-1.0887,-1.0293,-0.969,-0.8927,-0.7706,-0.6714,-0.6335,-0.6338,-0.6338,-0.6338,-0.6338,-0.6338,-0.6338,-0.6338,-0.6338,-0.6338,-0.6338,-0.6325,-0.6468,-0.662,-0.6831,-0.7115,-0.7132,-0.7139,-0.7139,-0.7139,-0.7139,-0.7139,-0.7139,-0.7139,0.0,-2.3193,0.0,0.0,0.0,0.0,0.0,0.0,0.0,0.0,0.0,0.0,0.0,0.0,0.0,0.0,0.0,0.0,0.0,0.0,0.0,0.0,0.0,0.0,0.0,0.0,0.0,0.0,0.0,0.0,0.0,0.0,0.0,0.0,0.0,-2.1448,-2.0794,-2.0512,-2.017,0.0,-1.9726,-1.956,-1.9376,-1.8784,-1.7988,-1.7115,-1.6846,-1.662,-1.6522,-1.6522,-1.6522,-1.6522,-1.666,-1.6666,-1.6536,-1.6113,-1.5986,-1.5859,-1.5046,-1.5049,-1.534,-1.5051,-1.5146,-1.5362,-1.5264,-1.5264,-1.5147,-1.4547,-1.4309,-1.401,-1.3033,-1.2599,-1.2296,-1.1862,-1.2237,-1.2593,-1.2311,-1.2224,-1.2224,-1.215,-1.2003,-1.1706,-1.1335,-1.0519,-0.9387,-0.7791,-0.7022,-0.6563,-0.6338,-0.6338,-0.6338,-0.6338,-0.6338,-0.6338,-0.6338,-0.6338,-0.6338,-0.6338,-0.6338,-0.6325,-0.6468,-0.662,-0.6787,-0.697,-0.7085,-0.7139,-0.7139,-0.7139,-0.7139,-0.7139,-0.7139,-0.7139,0.0,0.0,0.0,0.0,0.0,0.0,0.0,0.0,0.0,0.0,0.0,0.0,0.0,0.0,0.0,0.0,0.0,0.0,0.0,0.0,0.0,0.0,0.0,0.0,0.0,0.0,0.0,0.0,0.0,0.0,0.0,0.0,0.0,0.0,-2.2141,-2.1645,-2.1055,-2.0679,-2.0308,-1.994,-1.9797,-1.9545,-1.9139,-1.8606,-1.7922,-1.7199,-1.6918,-1.6663,-1.6522,-1.6522,-1.6522,-1.6522,-1.6522,-1.6392,-1.6175,-1.5768,-1.5394,-1.5051,-1.4556,-1.4594,-1.4884,-1.4828,-1.5068,-1.5362,-1.5264,-1.5156,-1.497,-1.4309,-1.3941,-1.3511,-1.2536,-1.2112,-1.1821,-1.1437,-1.1803,-1.2228,-1.2103,-1.2204,-1.2305,-1.2305,-1.215,-1.1855,-1.1484,-1.0288,-0.8856,-0.7411,-0.6872,-0.6563,-0.6338,-0.6338,-0.6338,-0.6338,-0.6338,-0.6338,-0.6338,-0.6338,-0.6338,-0.6338,-0.6338,-0.6295,-0.6369,-0.6512,-0.6664,-0.6817,-0.6963,-0.7041,-0.7041,-0.7041,-0.7041,-0.7037,-0.6963,-0.688,0.0,0.0,0.0,0.0,0.0,0.0,0.0,0.0,0.0,0.0,0.0,0.0,0.0,0.0,0.0,0.0,0.0,0.0,0.0,0.0,0.0,0.0,0.0,0.0,0.0,0.0,0.0,0.0,0.0,0.0,0.0,0.0,-2.3059,-2.2539,-2.2014,-2.1499,-2.0967,-2.0512,-2.0167,-1.9932,-1.9823,-1.9472,-1.8936,-1.8489,-1.7935,-1.7393,-1.7086,-1.6791,-1.6522,-1.6522,-1.6522,-1.6522,-1.6522,-1.6293,-1.5957,-1.568,-1.5096,-1.4392,-1.4289,-1.4226,-1.4261,-1.4586,-1.4961,-1.5245,-1.51,-1.4914,-1.4656,-1.3921,-1.3459,-1.3025,-1.2104,-1.174,-1.1563,-1.118,-1.1336,-1.1655,-1.1861,-1.2098,-1.2305,-1.2305,-1.2003,-1.1632,-1.1105,-0.9679,-0.8246,-0.7253,-0.6795,-0.649,-0.6338,-0.6338,-0.6338,-0.6338,-0.6338,-0.6338,-0.6338,-0.6338,-0.6338,-0.6338,-0.6338,-0.6338,-0.6338,-0.6373,-0.6495,-0.662,-0.68,-0.6892,-0.6892,-0.6892,-0.6892,-0.6885,-0.6676,-0.6595,0.0,0.0,0.0,0.0,0.0,0.0,0.0,0.0,0.0,0.0,0.0,0.0,0.0,0.0,0.0,0.0,0.0,0.0,0.0,0.0,0.0,0.0,0.0,0.0,0.0,0.0,0.0,0.0,0.0,0.0,0.0,-2.2955,-2.2296,-2.1936,-2.0849,-2.0037,-1.9589,-1.9156,-1.9077,-1.9326,-1.9542,-1.9487,-1.9228,-1.8745,-1.8161,-1.7475,-1.7115,-1.6876,-1.6675,-1.6534,-1.6522,-1.6522,-1.6522,-1.6293,-1.5944,-1.5635,-1.5051,-1.4337,-1.3873,-1.3719,-1.3827,-1.4082,-1.4402,-1.4638,-1.444,-1.4222,-1.3879,-1.2764,-1.2297,-1.2042,-1.1373,-1.1059,-1.0877,-1.0735,-1.0907,-1.127,-1.175,-1.2098,-1.2305,-1.2305,-1.1558,-1.0663,-0.975,-0.8694,-0.7706,-0.7019,-0.6563,-0.6338,-0.6338,-0.6338,-0.6338,-0.6338,-0.6338,-0.6338,-0.6338,-0.6338,-0.6338,-0.6338,-0.6338,-0.6338,-0.6338,-0.6278,-0.6298,-0.6318,-0.659,-0.6729,-0.6729,-0.6729,-0.6729,-0.6729,-0.6539,-0.6373,-2.2186,0.0,0.0,0.0,0.0,0.0,0.0,0.0,0.0,0.0,0.0,0.0,0.0,0.0,0.0,0.0,0.0,0.0,0.0,0.0,0.0,0.0,0.0,0.0,0.0,0.0,0.0,0.0,0.0,0.0,-2.3244,-2.2736,-2.2089,-2.1271,-2.0591,0.0,-1.9514,-1.9127,-1.898,-1.914,-1.9105,-1.9203,-1.9339,-1.9003,-1.8397,-1.7639,-1.7282,-1.696,-1.6675,-1.6565,-1.6522,-1.6522,-1.6522,-1.6262,-1.5881,-1.5603,-1.496,-1.4129,-1.3705,-1.3579,-1.3586,-1.3721,-1.3966,-1.4205,-1.382,-1.3503,-1.3076,-1.2238,-1.1833,-1.1502,-1.1073,-1.087,-1.0744,-1.0618,-1.0782,-1.1062,-1.1323,-1.1737,-1.2032,-1.1822,-1.1186,-1.0288,-0.9301,-0.8389,-0.7629,-0.7015,-0.6563,-0.6338,-0.6338,-0.6338,-0.6338,-0.6338,-0.6338,-0.6338,-0.6338,-0.6338,-0.6338,-0.6338,-0.6338,-0.6338,-0.6338,-0.6338,-0.6338,-0.6338,-0.6468,-0.6573,-0.6573,-0.6573,-0.6491,-0.6413,-0.6086,-0.577,0.0,0.0,0.0,0.0,0.0,0.0,0.0,0.0,0.0,0.0,0.0,0.0,0.0,0.0,0.0,0.0,0.0,0.0,0.0,0.0,0.0,0.0,0.0,0.0,0.0,0.0,0.0,0.0,0.0,0.0,-2.2445,-2.2167,-2.157,-2.0625,-2.0072,-1.9621,-1.9202,-1.8893,-1.8706,-1.8651,-1.8706,-1.8922,-1.9214,-1.9132,-1.8683,-1.7988,-1.7516,-1.7115,-1.6761,-1.662,-1.6522,-1.6522,-1.6479,-1.6219,-1.5792,-1.5513,-1.4812,-1.3978,-1.3658,-1.3459,-1.3359,-1.3477,-1.3617,-1.3666,-1.321,-1.2751,-1.229,-1.1705,-1.1308,-1.1023,-1.0788,-1.0744,-1.0744,-1.0624,-1.0728,-1.0922,-1.1069,-1.145,-1.1631,-1.1254,-1.0713,-0.9916,-0.8993,-0.8165,-0.748,-0.6942,-0.649,-0.6338,-0.6338,-0.6338,-0.6338,-0.6338,-0.6338,-0.6338,-0.6338,-0.6338,-0.6338,-0.6338,-0.6338,-0.6338,-0.6338,-0.6338,-0.6338,-0.6338,-0.6366,-0.6417,-0.6337,-0.6337,-0.6179,-0.5943,-0.5526,-0.514,0.0,0.0,0.0,0.0,0.0,0.0,0.0,0.0,0.0,0.0,0.0,0.0,0.0,0.0,0.0,0.0,0.0,0.0,0.0,0.0,0.0,0.0,0.0,0.0,0.0,0.0,0.0,0.0,0.0,0.0,-2.1769,-2.0897,-2.03,-2.0039,-1.886,-1.8121,-1.7907,-1.7811,-1.766,-1.7403,-1.84,-1.8838,-1.8743,-1.9133,-1.9026,-1.8539,-1.7908,-1.7393,-1.696,-1.6761,-1.662,-1.6479,-1.6436,-1.6175,-1.5748,-1.5289,-1.464,-1.3931,-1.3552,-1.321,-1.2978,-1.3379,-1.3259,-1.2907,-1.2638,-1.2098,-1.1439,-1.0902,-1.0608,-1.0492,-1.0607,-1.0624,-1.0624,-1.0624,-1.0631,-1.0735,-1.1283,-1.1292,-1.1127,-1.0832,-1.0081,-0.9343,-0.8595,-0.7795,-0.7103,-0.6714,-0.6412,-0.6338,-0.6338,-0.6338,-0.6338,-0.6338,-0.6338,-0.6338,-0.6338,-0.6338,-0.6338,-0.6338,-0.6338,-0.6338,-0.6338,-0.6338,-0.6338,-0.6338,-0.6345,-0.619,-0.5951,-0.5951,-0.5718,-0.5329,-0.4935,-0.4392,0.0,0.0,0.0,0.0,0.0,0.0,0.0,0.0,0.0,0.0,0.0,0.0,0.0,0.0,0.0,0.0,0.0,0.0,0.0,0.0,0.0,0.0,0.0,0.0,0.0,0.0,0.0,0.0,0.0,0.0,-2.0943,-2.0567,-2.0029,-1.9253,-1.8647,-1.8125,-1.7618,-1.7412,-1.737,-1.7426,-1.7685,-1.7911,-1.814,-1.854,-1.8549,-1.8212,-1.8087,-1.7693,-1.7115,-1.6803,-1.662,-1.6479,-1.6436,-1.6088,-1.5647,-1.5244,-1.4593,-1.3847,-1.3515,-1.32,-1.29,-1.3057,-1.2847,-1.2438,-1.2076,-1.1455,-1.0707,-1.0387,-1.0172,-1.0137,-1.0255,-1.0414,-1.0624,-1.0624,-1.0624,-1.0615,-1.0692,-1.076,-1.0628,-1.002,-0.9324,-0.8566,-0.7856,-0.7236,-0.6716,-0.6482,-0.6346,-0.6338,-0.6338,-0.6338,-0.6338,-0.6338,-0.6338,-0.6338,-0.6338,-0.6338,-0.6338,-0.6338,-0.6338,-0.6338,-0.6338,-0.6338,-0.6338,-0.6338,-0.6103,-0.6018,-0.5864,-0.5864,-0.5553,-0.4932,-0.454,-0.3995,-2.1308,0.0,0.0,0.0,0.0,0.0,0.0,0.0,0.0,0.0,0.0,0.0,0.0,0.0,0.0,0.0,0.0,0.0,0.0,0.0,0.0,0.0,0.0,0.0,0.0,0.0,0.0,0.0,0.0,0.0,-2.0165,-2.0085,-1.9612,-1.8731,-1.8467,-1.8125,-1.7555,-1.7272,-1.7194,-1.729,-1.7244,-1.7348,-1.7575,-1.7926,-1.808,-1.7993,-1.7883,-1.7625,-1.724,-1.6918,-1.6663,-1.6466,-1.6349,-1.5988,-1.5546,-1.5062,-1.4419,-1.3773,-1.343,-1.3104,-1.2881,-1.2881,-1.2627,-1.2224,-1.1828,-1.1116,-1.0371,-1.0171,-1.0002,-0.9921,-1.01,-1.0341,-1.0624,-1.0624,-1.0624,-1.0498,-1.018,-1.0208,-1.0012,-0.941,-0.8667,-0.785,-0.7216,-0.6756,-0.6397,-0.6169,-0.6156,-0.6183,-0.6183,-0.623,-0.6338,-0.6338,-0.6338,-0.6338,-0.6338,-0.6338,-0.6338,-0.6338,-0.6338,-0.6338,-0.6338,-0.6338,-0.6338,-0.6338,-0.6022,-0.5864,-0.5786,-0.5628,-0.524,-0.4467,-0.3992,-0.337,0.0,0.0,0.0,0.0,0.0,0.0,0.0,0.0,0.0,0.0,0.0,0.0,0.0,0.0,0.0,0.0,0.0,0.0,0.0,0.0,0.0,0.0,0.0,0.0,0.0,0.0,0.0,0.0,0.0,-1.9573,-1.9501,-1.9363,-1.9052,-1.8524,-1.8249,-1.798,-1.771,-1.7384,-1.7101,-1.6901,-1.7148,-1.7205,-1.7089,-1.7352,-1.7656,-1.7921,-1.7423,-1.7271,-1.7338,-1.7031,-1.6748,-1.6479,-1.6132,-1.5812,-1.5501,-1.4697,-1.414,-1.3726,-1.3268,-1.3027,-1.2881,-1.2881,-1.2627,-1.2224,-1.1828,-1.1116,-1.0371,-1.0163,-0.9995,-0.9921,-1.0107,-1.0341,-1.0624,-1.0624,-1.0624,-1.0434,-0.9926,-0.9658,-0.9338,-0.8864,-0.8097,-0.734,-0.6754,-0.6365,-0.6015,-0.5796,-0.5925,-0.6023,-0.603,-0.6162,-0.6254,-0.6261,-0.6338,-0.6338,-0.6338,-0.6338,-0.6338,-0.6338,-0.6338,-0.6338,-0.6338,-0.6338,-0.6338,-0.6338,-0.6022,-0.5786,-0.5637,-0.5162,-0.4696,-0.4079,-0.3368,-0.243,-2.0429,0.0,0.0,0.0,0.0,0.0,0.0,0.0,0.0,0.0,0.0,0.0,0.0,0.0,0.0,0.0,0.0,0.0,0.0,0.0,0.0,0.0,0.0,0.0,0.0,0.0,0.0,0.0,-1.942,-1.9453,-1.9438,-1.9251,-1.9019,-1.8732,-1.8465,-1.8184,-1.7922,-1.7572,-1.7272,-1.6968,-1.6759,-1.6567,-1.6373,-1.6604,-1.6684,-1.6623,-1.6877,-1.6886,-1.6771,-1.6876,-1.6748,-1.6479,-1.6132,-1.5812,-1.5424,-1.4697,-1.4093,-1.3621,-1.322,-1.3027,-1.2881,-1.2783,-1.248,-1.2076,-1.1678,-1.0964,-1.0162,-0.9829,-0.9825,-0.9969,-1.0369,-1.0557,-1.0624,-1.0624,-1.0624,-1.0498,-1.0047,-0.9658,-0.9028,-0.8058,-0.7343,-0.6697,-0.6007,-0.5779,-0.572,-0.5647,-0.5772,-0.5905,-0.6017,-0.6067,-0.6135,-0.6247,-0.6338,-0.6338,-0.6338,-0.6338,-0.6338,-0.6338,-0.6338,-0.6338,-0.6338,-0.6338,-0.6338,-0.6338,-0.587,-0.5637,-0.5637,-0.5162,-0.4618,-0.3843,-0.2746,-0.1727,0.0,0.0,0.0,0.0,0.0,0.0,0.0,0.0,0.0,0.0,0.0,0.0,0.0,0.0,0.0,0.0,0.0,0.0,0.0,0.0,0.0,0.0,0.0,0.0,0.0,0.0,0.0,0.0,-1.9353,-1.9402,-1.939,-1.9235,-1.9053,-1.8825,-1.8563,-1.8342,-1.8087,-1.7726,-1.7384,-1.7093,-1.6675,-1.6355,-1.6139,-1.607,-1.6026,-1.6013,-1.6102,-1.6112,-1.6113,-1.6381,-1.6503,-1.6479,-1.6088,-1.5736,-1.5424,-1.4547,-1.3941,-1.3525,-1.3162,-1.2929,-1.2774,-1.2676,-1.2323,-1.1927,-1.1469,-1.0871,-1.0205,-0.9673,-0.9652,-0.9904,-1.0315,-1.053,-1.0624,-1.0624,-1.0624,-1.0498,-0.9989,-0.9658,-0.9075,-0.7912,-0.7199,-0.6544,-0.5818,-0.5631,-0.5559,-0.5494,-0.562,-0.5745,-0.5833,-0.5898,-0.5993,-0.6146,-0.6166,-0.619,-0.6254,-0.6338,-0.6338,-0.6338,-0.6338,-0.6338,-0.6338,-0.6338,-0.6338,-0.6338,-0.5873,-0.5404,-0.4935,-0.4851,-0.4226,-0.3214,-0.2356,-0.1415,-1.9945,-1.9782,0.0,0.0,0.0,0.0,-2.1705,-2.1972,0.0,0.0,0.0,0.0,0.0,0.0,0.0,0.0,0.0,0.0,0.0,0.0,0.0,0.0,0.0,0.0,0.0,0.0,-1.9345,-1.9442,-1.9438,-1.9413,-1.942,-1.9298,-1.9101,-1.8843,-1.8641,-1.8423,-1.8194,-1.7811,-1.7479,-1.7216,-1.6789,-1.6463,-1.6194,-1.5726,-1.5605,-1.5762,-1.527,-1.5207,-1.541,-1.567,-1.6027,-1.6348,-1.5944,-1.5659,-1.5322,-1.4351,-1.3836,-1.3525,-1.3065,-1.2832,-1.2676,-1.2529,-1.2175,-1.1778,-1.1226,-1.0769,-1.0265,-0.9613,-0.9494,-0.9706,-1.0033,-1.0314,-1.0521,-1.0618,-1.0624,-1.0434,-0.9932,-0.9658,-0.9262,-0.8242,-0.7466,-0.6679,-0.602,-0.5752,-0.555,-0.5428,-0.5477,-0.5569,-0.5589,-0.5698,-0.5837,-0.5986,-0.6006,-0.6061,-0.62,-0.6227,-0.6237,-0.6237,-0.6251,-0.6338,-0.6338,-0.6338,-0.6338,-0.6338,-0.5792,-0.5012,-0.3999,-0.4229,-0.3682,-0.2431,-0.2043,-0.1415,-2.0045,-1.9854,-1.9874,-2.0239,0.0,0.0,0.0,-2.1433,0.0,0.0,0.0,0.0,0.0,0.0,0.0,0.0,0.0,0.0,0.0,0.0,0.0,0.0,0.0,0.0,0.0,0.0,-2.0467,-2.0277,-1.9841,-1.9536,-1.9489,-1.9402,-1.9266,-1.9053,-1.8861,-1.8563,-1.8205,-1.7905,-1.7612,-1.7272,-1.6815,-1.649,-1.6274,-1.5667,-1.5327,-1.5151,-1.4958,-1.484,-1.4774,-1.5006,-1.5327,-1.5699,-1.5755,-1.557,-1.5096,-1.4305,-1.3742,-1.3372,-1.3017,-1.2832,-1.2676,-1.2431,-1.1977,-1.1477,-1.0922,-1.0395,-0.9874,-0.9505,-0.9342,-0.9446,-0.998,-1.016,-1.0267,-1.0571,-1.0624,-1.0498,-1.0053,-0.9862,-0.9472,-0.8554,-0.7722,-0.6872,-0.6075,-0.5745,-0.555,-0.5428,-0.5452,-0.545,-0.5576,-0.5613,-0.5688,-0.583,-0.5844,-0.5857,-0.5888,-0.6003,-0.6074,-0.6074,-0.6193,-0.6338,-0.6338,-0.6338,-0.6338,-0.6338,-0.5553,-0.4616,-0.3526,-0.3604,-0.3134,-0.2275,-0.2043,-0.1415,-2.0289,-2.017,-2.0224,-2.0512,0.0,0.0,0.0,0.0,0.0,0.0,0.0,0.0,0.0,0.0,0.0,0.0,0.0,0.0,0.0,0.0,0.0,0.0,0.0,0.0,0.0,0.0,-2.1179,-2.0629,-2.0429,-2.0129,-1.9628,-1.9546,-1.9402,-1.915,-1.8931,-1.8659,-1.8348,-1.8053,-1.7704,-1.7361,-1.6993,-1.6607,-1.6301,-1.5739,-1.5315,-1.4996,-1.4591,-1.4317,-1.4224,-1.4421,-1.455,-1.4639,-1.5115,-1.5037,-1.463,-1.4089,-1.3705,-1.3372,-1.3017,-1.2783,-1.2578,-1.2283,-1.1828,-1.1326,-1.0769,-1.0095,-0.9442,-0.924,-0.918,-0.9256,-0.9599,-0.99,-1.0154,-1.0307,-1.0454,-1.0498,-1.011,-0.9926,-0.9542,-0.8694,-0.7917,-0.7199,-0.6276,-0.602,-0.5756,-0.5428,-0.5428,-0.5456,-0.5467,-0.5477,-0.5532,-0.5681,-0.5694,-0.5725,-0.5796,-0.5871,-0.5949,-0.6023,-0.6101,-0.6179,-0.6257,-0.6338,-0.6106,-0.5789,-0.5004,-0.4229,-0.361,-0.3137,-0.2666,-0.212,-0.1964,-0.1572,0.0,0.0,0.0,0.0,0.0,-2.154,0.0,0.0,0.0,-1.9982,0.0,0.0,0.0,0.0,0.0,0.0,0.0,0.0,0.0,0.0,0.0,0.0,0.0,0.0,0.0,0.0,-2.1985,-2.1226,-2.1189,-2.0828,-2.0032,-1.9769,-1.9527,-1.9259,-1.8981,-1.8734,-1.8505,-1.818,-1.7816,-1.7408,-1.7142,-1.6763,-1.6301,-1.5824,-1.5389,-1.4968,-1.4278,-1.3914,-1.3827,-1.3887,-1.3777,-1.3619,-1.4373,-1.4472,-1.4179,-1.3814,-1.3538,-1.3324,-1.3017,-1.2735,-1.248,-1.2224,-1.1678,-1.1015,-1.0462,-0.9784,-0.9106,-0.9008,-0.9025,-0.911,-0.917,-0.9593,-0.998,-1.0087,-1.0301,-1.0425,-1.004,-0.9856,-0.9536,-0.8635,-0.8057,-0.7466,-0.6548,-0.6226,-0.5962,-0.5495,-0.5428,-0.5428,-0.5428,-0.5428,-0.541,-0.5532,-0.5545,-0.5593,-0.5705,-0.5742,-0.5813,-0.5935,-0.5969,-0.6054,-0.621,-0.6244,-0.5944,-0.524,-0.446,-0.3919,-0.3614,-0.2747,-0.2277,-0.2044,-0.2044,-0.1729,0.0,0.0,0.0,0.0,-2.1495,0.0,0.0,0.0,-1.988,-1.9829,0.0,0.0,0.0,0.0,0.0,0.0,0.0,0.0,0.0,0.0,0.0,0.0,0.0,0.0,0.0,0.0,0.0,-2.2873,-2.2026,-2.1384,-2.1046,-2.0238,-1.9649,-1.939,-1.9168,-1.8878,-1.8505,-1.8229,-1.7893,-1.7486,-1.7167,-1.6789,-1.6355,-1.5824,-1.5389,-1.4968,-1.4278,-1.3914,-1.3754,-1.3446,-1.3181,-1.3069,-1.3862,-1.4092,-1.3894,-1.335,-1.3212,-1.317,-1.2968,-1.2783,-1.2627,-1.2382,-1.146,-1.0395,-0.9725,-0.9316,-0.9008,-0.8857,-0.8831,-0.8918,-0.9117,-0.9236,-0.9416,-0.9993,-1.014,-1.0118,-0.9875,-0.9837,-0.95,-0.8425,-0.8112,-0.7657,-0.6601,-0.6148,-0.5826,-0.5428,-0.5428,-0.5428,-0.5428,-0.5428,-0.5435,-0.5452,-0.5456,-0.5459,-0.541,-0.5535,-0.5623,-0.564,-0.5755,-0.5895,-0.6051,-0.595,-0.5628,-0.5082,-0.4229,-0.353,-0.2982,-0.22,-0.1807,-0.1965,-0.2281,-0.2044,0.0,0.0,0.0,0.0,0.0,0.0,0.0,0.0,-1.9219,0.0,0.0,0.0,0.0,0.0,0.0,0.0,0.0,0.0,0.0,0.0,0.0,0.0,0.0,0.0,0.0,0.0,0.0,0.0,0.0,-2.2212,-2.1251,-2.0831,-2.0289,-1.9597,-1.9295,-1.9001,-1.8679,-1.8333,-1.7757,-1.6965,-1.667,-1.6072,-1.5224,-1.4773,-1.4508,-1.4367,-1.3761,-1.361,-1.3754,-1.3369,-1.3082,-1.291,-1.3094,-1.3298,-1.3408,-1.3091,-1.3078,-1.317,-1.2968,-1.2832,-1.2627,-1.2126,-1.1318,-1.0454,-0.9821,-0.9413,-0.9061,-0.8857,-0.8804,-0.8838,-0.8958,-0.9057,-0.9243,-0.9495,-0.9814,-0.991,-0.9606,-0.9421,-0.9069,-0.8236,-0.7787,-0.7265,-0.6404,-0.6152,-0.5896,-0.5495,-0.5428,-0.5428,-0.5428,-0.5428,-0.5428,-0.5428,-0.5428,-0.5428,-0.5428,-0.542,-0.5494,-0.5586,-0.5806,-0.5962,-0.6027,-0.579,-0.5476,-0.5004,-0.407,-0.3214,-0.2431,-0.157,-0.1335,-0.1572,-0.1729,-0.1335,-2.1797,0.0,0.0,0.0,0.0,0.0,0.0,0.0,0.0,0.0,0.0,0.0,0.0,0.0,0.0,0.0,0.0,0.0,0.0,0.0,0.0,0.0,0.0,0.0,0.0,0.0,0.0,0.0,0.0,0.0,-2.1727,-2.1195,-2.0569,-1.9756,-1.9368,-1.9082,-1.8825,-1.822,-1.7442,-1.6509,-1.61,-1.5376,-1.4382,-1.3989,-1.3812,-1.3757,-1.3326,-1.3324,-1.3533,-1.334,-1.3116,-1.2861,-1.2615,-1.2669,-1.2943,-1.2783,-1.2848,-1.302,-1.2929,-1.2783,-1.2529,-1.1927,-1.1326,-1.0667,-0.9976,-0.951,-0.9159,-0.8857,-0.8804,-0.8804,-0.8804,-0.8965,-0.9084,-0.9114,-0.9459,-0.9605,-0.9254,-0.9035,-0.8624,-0.7917,-0.74,-0.6881,-0.6214,-0.609,-0.5962,-0.5495,-0.5428,-0.5428,-0.5428,-0.5428,-0.5428,-0.5428,-0.5428,-0.5428,-0.5428,-0.5428,-0.541,-0.5518,-0.5769,-0.5908,-0.5908,-0.5714,-0.5422,-0.5032,-0.4055,-0.3134,-0.2353,-0.1413,-0.11,-0.1257,-0.1021,-0.0628,0.0,0.0,0.0,-2.1194,0.0,0.0,0.0,0.0,-1.9048,0.0,0.0,0.0,0.0,0.0,0.0,0.0,0.0,0.0,0.0,0.0,0.0,0.0,0.0,0.0,0.0,0.0,0.0,0.0,0.0,0.0,-2.283,-2.1185,-2.0111,-1.9817,-1.9409,-1.9111,-1.8914,-1.7804,-1.6932,-1.6298,-1.551,-1.4879,-1.439,-1.4053,-1.3642,-1.3229,-1.3267,-1.316,-1.294,-1.3275,-1.322,-1.2861,-1.2615,-1.2498,-1.2485,-1.2362,-1.2453,-1.2649,-1.283,-1.2735,-1.2431,-1.2026,-1.1427,-1.0761,-1.0028,-0.951,-0.9159,-0.8857,-0.8804,-0.8804,-0.8804,-0.8811,-0.8838,-0.8958,-0.9137,-0.9132,-0.8717,-0.8581,-0.8231,-0.7396,-0.7086,-0.67,-0.6024,-0.5892,-0.5822,-0.5428,-0.5428,-0.5428,-0.5428,-0.5428,-0.5428,-0.5428,-0.5428,-0.5428,-0.5428,-0.5428,-0.5428,-0.5435,-0.5515,-0.5603,-0.5603,-0.5659,-0.5507,-0.5133,-0.4404,-0.368,-0.2904,-0.1806,-0.1257,-0.1257,-0.0471,-0.0,0.0,0.0,-2.1427,-2.1201,0.0,0.0,0.0,0.0,0.0,0.0,0.0,0.0,0.0,0.0,0.0,0.0,0.0,0.0,0.0,0.0,0.0,0.0,0.0,0.0,0.0,0.0,0.0,0.0,0.0,0.0,0.0,-2.2647,-2.1683,-1.9982,-2.0103,-1.9769,-1.8908,-1.7808,-1.6806,-1.5891,-1.4921,-1.3978,-1.3147,-1.2748,-1.2586,-1.2603,-1.2292,-1.2501,-1.3006,-1.2916,-1.296,-1.3082,-1.2733,-1.2471,-1.2212,-1.1967,-1.2187,-1.2629,-1.283,-1.2783,-1.2578,-1.2283,-1.1719,-1.1015,-1.0395,-0.9777,-0.9256,-0.9008,-0.8857,-0.8804,-0.8804,-0.8804,-0.8778,-0.8757,-0.8786,-0.8667,-0.8212,-0.7968,-0.7609,-0.6976,-0.6613,-0.6284,-0.5818,-0.5686,-0.562,-0.5428,-0.5428,-0.5428,-0.5428,-0.5428,-0.5428,-0.5428,-0.5428,-0.5428,-0.5428,-0.5428,-0.5428,-0.5428,-0.5504,-0.5589,-0.5589,-0.5561,-0.5488,-0.528,-0.4717,-0.4006,-0.3214,-0.2431,-0.1806,-0.1257,-0.0707,-0.0236,-2.1904,-2.1346,0.0,0.0,-1.9638,0.0,-1.8572,0.0,0.0,0.0,0.0,0.0,0.0,0.0,0.0,0.0,0.0,0.0,0.0,0.0,0.0,0.0,0.0,0.0,0.0,0.0,-1.9702,-2.1259,0.0,0.0,0.0,0.0,-2.2571,-2.0565,-2.0639,-2.0139,-1.8972,-1.7612,-1.6411,-1.5405,-1.4295,-1.3306,-1.2495,-1.2123,-1.1992,-1.2023,-1.1811,-1.2143,-1.2811,-1.2714,-1.2882,-1.3163,-1.285,-1.2484,-1.2062,-1.184,-1.2044,-1.249,-1.2782,-1.2783,-1.2578,-1.2323,-1.1778,-1.1124,-1.0506,-0.988,-0.9361,-0.9061,-0.891,-0.8804,-0.8804,-0.8804,-0.8752,-0.858,-0.8469,-0.8294,-0.7854,-0.7431,-0.7147,-0.6767,-0.6478,-0.6148,-0.5752,-0.5686,-0.562,-0.5428,-0.5428,-0.5428,-0.5428,-0.5428,-0.5428,-0.5428,-0.5428,-0.5428,-0.5428,-0.5428,-0.5428,-0.5428,-0.5454,-0.5508,-0.5508,-0.551,-0.549,-0.5359,-0.482,-0.4225,-0.3557,-0.2865,-0.218,-0.1493,-0.1021,-0.055]},{"header":{"parameterUnit":"m.s-1","parameterCategory":1,"la1":30.6,"la2":29.2853,"lo1":-89.7004,"lo2":-87.6739,"dy":0.0162,"dx":0.0183,"nx":112,"ny":82,"refTime":"2024-06-30T00:00:00:Z","depth":0,"parameterNumber":3,"parameterNumberName":"V-component_of_WINDS"},"data":[0.0,0.0,0.0,0.0,0.0,0.0,0.0,0.0,0.0,0.0,0.0,0.0,0.0,0.0,0.0,0.0,0.0,0.0,0.0,0.0,0.0,0.0,0.0,0.0,0.0,0.0,0.0,0.0,0.0,0.0,0.0,0.0,0.0,0.0,0.0,0.0,0.0,0.0,0.0,0.0,0.0,0.0,0.0,0.0,0.0,0.0,0.0,0.0,0.0,0.0,0.0,0.0,0.0,0.0,0.0,0.0,0.0,0.0,0.0,0.0,0.0,0.0,0.0,0.0,0.0,0.0,0.0,0.0,0.0,0.0,0.0,0.0,0.0,0.0,0.0,0.0,0.0,0.0,0.0,0.0,0.0,0.0,0.0,0.0,0.0,0.0,0.0,0.0,0.0,0.0,0.0,-2.4095,-2.6885,-2.8825,-2.969,-3.0132,-2.9709,-2.8194,0.0,0.0,0.0,0.0,0.0,0.0,0.0,0.0,0.0,0.0,0.0,0.0,0.0,0.0,0.0,0.0,0.0,0.0,0.0,0.0,0.0,0.0,0.0,0.0,0.0,0.0,0.0,0.0,0.0,0.0,0.0,0.0,0.0,0.0,0.0,0.0,0.0,0.0,0.0,0.0,0.0,0.0,0.0,0.0,0.0,0.0,0.0,0.0,0.0,0.0,0.0,0.0,0.0,0.0,0.0,0.0,0.0,0.0,0.0,0.0,0.0,0.0,0.0,0.0,0.0,0.0,0.0,0.0,0.0,0.0,0.0,0.0,0.0,0.0,0.0,0.0,0.0,0.0,0.0,0.0,0.0,0.0,0.0,0.0,0.0,0.0,0.0,0.0,0.0,0.0,0.0,0.0,0.0,0.0,0.0,0.0,0.0,0.0,0.0,0.0,0.0,0.0,0.0,0.0,-2.0628,-2.5,-2.6981,-2.8408,-2.9455,-2.9966,-2.9611,-2.8194,0.0,0.0,0.0,0.0,0.0,0.0,0.0,0.0,0.0,0.0,0.0,0.0,0.0,0.0,0.0,0.0,0.0,0.0,0.0,0.0,0.0,0.0,0.0,0.0,0.0,0.0,0.0,0.0,0.0,0.0,0.0,0.0,0.0,0.0,0.0,0.0,0.0,0.0,0.0,0.0,0.0,0.0,0.0,0.0,0.0,0.0,0.0,0.0,0.0,0.0,0.0,0.0,0.0,0.0,0.0,0.0,0.0,0.0,0.0,0.0,0.0,0.0,0.0,0.0,0.0,0.0,0.0,0.0,0.0,0.0,0.0,0.0,0.0,0.0,0.0,0.0,0.0,0.0,0.0,0.0,0.0,0.0,0.0,0.0,0.0,0.0,0.0,0.0,0.0,0.0,0.0,0.0,0.0,0.0,0.0,0.0,0.0,0.0,0.0,0.0,0.0,0.0,0.0,-2.0043,-2.2194,-2.5557,-2.7075,-2.8282,-2.9345,-2.9874,-2.9552,-2.8128,-2.812,0.0,0.0,0.0,0.0,0.0,0.0,0.0,0.0,0.0,0.0,0.0,0.0,0.0,0.0,0.0,0.0,0.0,0.0,0.0,0.0,0.0,0.0,0.0,0.0,0.0,0.0,0.0,0.0,0.0,0.0,0.0,0.0,0.0,0.0,0.0,0.0,0.0,0.0,0.0,0.0,0.0,0.0,0.0,0.0,0.0,0.0,0.0,0.0,0.0,0.0,0.0,0.0,0.0,0.0,0.0,0.0,0.0,0.0,0.0,0.0,0.0,0.0,0.0,0.0,0.0,0.0,0.0,0.0,0.0,0.0,0.0,0.0,0.0,0.0,0.0,0.0,0.0,0.0,0.0,0.0,0.0,0.0,0.0,0.0,0.0,0.0,0.0,0.0,0.0,0.0,0.0,0.0,0.0,0.0,0.0,0.0,0.0,0.0,0.0,0.0,0.0,0.0,-2.224,-2.4094,-2.6236,-2.7414,-2.8416,-2.9419,-2.9897,-2.9536,-2.8085,-2.8058,0.0,0.0,0.0,0.0,0.0,0.0,0.0,0.0,0.0,0.0,0.0,0.0,0.0,0.0,0.0,0.0,0.0,0.0,0.0,0.0,0.0,0.0,0.0,0.0,0.0,0.0,0.0,0.0,0.0,0.0,0.0,0.0,0.0,0.0,0.0,0.0,0.0,0.0,0.0,0.0,0.0,0.0,0.0,0.0,0.0,0.0,0.0,0.0,0.0,0.0,0.0,0.0,0.0,0.0,0.0,0.0,0.0,0.0,0.0,0.0,0.0,0.0,0.0,0.0,0.0,0.0,0.0,0.0,0.0,0.0,0.0,0.0,0.0,0.0,0.0,0.0,0.0,0.0,0.0,0.0,0.0,0.0,0.0,0.0,0.0,0.0,0.0,0.0,0.0,0.0,0.0,0.0,0.0,0.0,0.0,0.0,0.0,0.0,0.0,0.0,0.0,0.0,-2.3988,-2.5596,-2.7393,-2.8236,-2.8932,-2.9708,-3.0087,-2.9629,-2.8103,-2.807,0.0,0.0,0.0,0.0,0.0,0.0,0.0,0.0,0.0,0.0,0.0,0.0,0.0,0.0,0.0,0.0,0.0,0.0,0.0,0.0,0.0,0.0,0.0,0.0,0.0,0.0,0.0,0.0,0.0,0.0,0.0,0.0,0.0,0.0,0.0,0.0,0.0,0.0,0.0,0.0,0.0,0.0,0.0,0.0,0.0,0.0,0.0,0.0,0.0,0.0,0.0,0.0,0.0,0.0,0.0,0.0,0.0,0.0,0.0,0.0,0.0,0.0,0.0,0.0,0.0,0.0,0.0,0.0,0.0,0.0,0.0,0.0,0.0,0.0,0.0,0.0,0.0,0.0,0.0,0.0,0.0,0.0,0.0,0.0,0.0,0.0,0.0,0.0,0.0,0.0,0.0,0.0,0.0,0.0,0.0,0.0,0.0,0.0,0.0,0.0,0.0,0.0,-2.5383,-2.6653,0.0,-2.9243,-2.9674,-3.0083,-2.9814,-2.9149,-2.8066,0.0,0.0,0.0,0.0,0.0,0.0,0.0,0.0,0.0,0.0,0.0,0.0,0.0,0.0,0.0,0.0,0.0,0.0,0.0,0.0,0.0,0.0,0.0,0.0,0.0,0.0,0.0,0.0,0.0,0.0,0.0,0.0,0.0,0.0,0.0,0.0,0.0,0.0,0.0,0.0,0.0,0.0,0.0,0.0,0.0,0.0,0.0,0.0,0.0,0.0,0.0,0.0,0.0,0.0,0.0,0.0,0.0,0.0,0.0,0.0,0.0,0.0,0.0,0.0,0.0,0.0,0.0,0.0,0.0,0.0,0.0,0.0,0.0,0.0,0.0,0.0,0.0,0.0,0.0,0.0,0.0,0.0,0.0,0.0,0.0,0.0,0.0,0.0,0.0,0.0,0.0,0.0,0.0,0.0,0.0,0.0,0.0,0.0,0.0,0.0,0.0,0.0,-2.598,-2.6617,-2.7649,0.0,-3.0092,-3.0296,-3.0445,-2.9726,-2.8885,-2.8027,0.0,0.0,0.0,0.0,0.0,0.0,0.0,0.0,0.0,0.0,0.0,0.0,0.0,0.0,0.0,0.0,0.0,0.0,0.0,0.0,0.0,0.0,0.0,0.0,0.0,0.0,0.0,0.0,0.0,0.0,0.0,0.0,0.0,0.0,0.0,0.0,0.0,0.0,0.0,0.0,0.0,0.0,0.0,0.0,0.0,0.0,0.0,0.0,0.0,0.0,0.0,0.0,0.0,0.0,0.0,0.0,0.0,0.0,0.0,0.0,0.0,0.0,0.0,0.0,0.0,0.0,0.0,0.0,0.0,0.0,0.0,0.0,0.0,0.0,0.0,0.0,0.0,0.0,0.0,0.0,0.0,0.0,0.0,0.0,0.0,0.0,0.0,0.0,0.0,0.0,0.0,0.0,0.0,0.0,0.0,0.0,0.0,0.0,0.0,0.0,0.0,0.0,-2.7242,-2.7747,-2.8626,-3.0508,-3.0696,-3.0738,-3.0801,-2.9936,-2.8953,0.0,0.0,0.0,0.0,0.0,0.0,0.0,0.0,0.0,0.0,0.0,0.0,0.0,0.0,0.0,0.0,0.0,0.0,0.0,0.0,0.0,0.0,0.0,0.0,0.0,0.0,0.0,0.0,0.0,0.0,0.0,0.0,0.0,0.0,0.0,0.0,0.0,0.0,0.0,0.0,0.0,0.0,0.0,0.0,0.0,0.0,0.0,0.0,0.0,0.0,0.0,0.0,0.0,0.0,0.0,0.0,0.0,0.0,0.0,0.0,0.0,0.0,0.0,0.0,0.0,0.0,0.0,0.0,0.0,0.0,0.0,0.0,0.0,0.0,0.0,0.0,0.0,0.0,0.0,0.0,0.0,0.0,0.0,0.0,0.0,0.0,0.0,0.0,0.0,0.0,0.0,0.0,0.0,0.0,0.0,0.0,0.0,0.0,0.0,0.0,0.0,0.0,0.0,-2.7769,-2.8577,-2.946,-3.0582,-3.0741,-3.0732,-3.0665,-2.9283,-2.8242,-2.7855,0.0,0.0,0.0,0.0,0.0,0.0,0.0,0.0,0.0,0.0,0.0,0.0,0.0,0.0,0.0,0.0,0.0,0.0,0.0,0.0,0.0,0.0,0.0,0.0,0.0,0.0,0.0,0.0,0.0,0.0,0.0,0.0,0.0,0.0,0.0,0.0,0.0,0.0,0.0,0.0,0.0,0.0,0.0,0.0,0.0,0.0,0.0,0.0,0.0,0.0,0.0,0.0,0.0,0.0,0.0,0.0,0.0,0.0,0.0,0.0,0.0,0.0,0.0,0.0,0.0,0.0,0.0,0.0,0.0,0.0,0.0,0.0,0.0,0.0,0.0,0.0,0.0,0.0,0.0,0.0,0.0,0.0,0.0,0.0,0.0,0.0,0.0,0.0,0.0,0.0,0.0,0.0,0.0,0.0,0.0,0.0,0.0,0.0,0.0,0.0,0.0,0.0,-2.7989,-2.8903,-2.9784,-3.0604,-3.0719,-3.0689,-3.0573,-2.9261,-2.8258,-2.783,0.0,0.0,0.0,0.0,0.0,0.0,0.0,0.0,0.0,0.0,0.0,0.0,0.0,0.0,0.0,0.0,0.0,0.0,0.0,0.0,0.0,0.0,0.0,0.0,0.0,0.0,0.0,0.0,0.0,0.0,0.0,0.0,0.0,0.0,0.0,0.0,0.0,0.0,0.0,0.0,0.0,0.0,0.0,0.0,0.0,0.0,0.0,0.0,0.0,0.0,0.0,0.0,0.0,0.0,0.0,0.0,0.0,0.0,0.0,0.0,0.0,0.0,0.0,0.0,0.0,0.0,0.0,0.0,0.0,0.0,0.0,0.0,0.0,0.0,0.0,0.0,0.0,0.0,0.0,0.0,0.0,0.0,0.0,0.0,0.0,0.0,0.0,0.0,0.0,0.0,0.0,0.0,0.0,0.0,0.0,0.0,0.0,0.0,0.0,0.0,0.0,0.0,-2.7984,-2.8914,-2.9802,-3.0605,-3.0632,-3.0561,-3.049,-2.9651,-2.8747,-2.7964,0.0,0.0,0.0,0.0,0.0,0.0,0.0,0.0,0.0,0.0,0.0,0.0,0.0,0.0,0.0,0.0,0.0,0.0,0.0,0.0,0.0,0.0,0.0,0.0,0.0,0.0,0.0,0.0,0.0,0.0,0.0,0.0,0.0,0.0,0.0,0.0,0.0,0.0,0.0,0.0,0.0,0.0,0.0,0.0,0.0,0.0,0.0,0.0,0.0,0.0,0.0,0.0,0.0,0.0,0.0,0.0,0.0,0.0,0.0,0.0,-1.9383,0.0,0.0,0.0,0.0,0.0,0.0,0.0,0.0,0.0,0.0,0.0,0.0,0.0,0.0,0.0,0.0,0.0,0.0,0.0,0.0,0.0,0.0,0.0,0.0,0.0,0.0,0.0,0.0,0.0,0.0,0.0,0.0,0.0,0.0,0.0,0.0,0.0,0.0,0.0,0.0,0.0,-2.7918,-2.9291,-3.0361,-3.0595,-3.0556,-3.05,-3.0432,-2.9616,-2.8994,-2.8767,0.0,0.0,0.0,0.0,0.0,0.0,0.0,0.0,0.0,0.0,0.0,0.0,0.0,0.0,0.0,0.0,0.0,0.0,0.0,0.0,0.0,0.0,0.0,0.0,0.0,0.0,0.0,0.0,0.0,0.0,0.0,0.0,0.0,0.0,0.0,0.0,0.0,0.0,0.0,0.0,0.0,0.0,0.0,0.0,0.0,0.0,0.0,0.0,0.0,0.0,0.0,0.0,0.0,0.0,0.0,0.0,0.0,0.0,0.0,0.0,0.0,-1.8545,0.0,0.0,0.0,0.0,0.0,0.0,0.0,0.0,0.0,0.0,0.0,0.0,0.0,0.0,0.0,0.0,0.0,0.0,0.0,0.0,0.0,0.0,0.0,0.0,0.0,0.0,0.0,0.0,0.0,0.0,0.0,0.0,0.0,0.0,0.0,0.0,0.0,0.0,0.0,0.0,-2.8179,-2.9453,-3.036,-3.0479,-3.0482,-3.0433,-3.0398,-3.0013,-2.9578,-2.9117,-2.832,0.0,0.0,0.0,0.0,0.0,0.0,0.0,0.0,0.0,0.0,0.0,0.0,0.0,0.0,0.0,0.0,0.0,0.0,0.0,0.0,0.0,0.0,0.0,0.0,0.0,0.0,0.0,0.0,0.0,0.0,0.0,0.0,0.0,0.0,0.0,0.0,0.0,0.0,0.0,0.0,0.0,0.0,0.0,0.0,0.0,0.0,0.0,0.0,0.0,0.0,0.0,0.0,0.0,0.0,-2.2219,-2.0862,-1.9913,-1.8984,-1.8166,-1.8326,-1.8032,-1.7448,0.0,0.0,0.0,0.0,0.0,0.0,0.0,0.0,0.0,0.0,0.0,0.0,0.0,0.0,0.0,0.0,0.0,0.0,0.0,0.0,0.0,0.0,0.0,0.0,0.0,-2.9998,-3.0154,0.0,0.0,0.0,0.0,0.0,0.0,0.0,0.0,0.0,0.0,0.0,0.0,-2.8412,-2.941,-3.0126,-3.034,-3.0367,-3.0386,-3.0425,-3.0463,-3.0192,-2.9483,-2.9285,-2.8537,0.0,0.0,0.0,0.0,0.0,0.0,0.0,0.0,0.0,0.0,0.0,0.0,0.0,0.0,0.0,0.0,0.0,0.0,0.0,0.0,0.0,0.0,0.0,0.0,0.0,0.0,0.0,0.0,0.0,0.0,0.0,0.0,-1.9423,-2.0824,0.0,0.0,0.0,0.0,0.0,0.0,0.0,0.0,0.0,0.0,0.0,0.0,0.0,0.0,-2.5887,-2.6016,-2.5851,-2.5424,-2.519,-2.4493,-2.3306,-2.2479,-2.1758,-2.118,-2.1113,0.0,-1.7032,-1.7497,0.0,0.0,0.0,0.0,0.0,0.0,0.0,0.0,0.0,0.0,0.0,0.0,0.0,0.0,0.0,0.0,0.0,0.0,0.0,0.0,0.0,0.0,-2.8347,-3.0047,-3.1107,-3.1725,0.0,-3.1642,-3.1497,-3.112,0.0,0.0,0.0,0.0,0.0,0.0,0.0,0.0,-2.8201,-2.9129,-2.9874,-3.0177,-3.0273,-3.0367,-3.0487,-3.0488,-3.0472,-3.0419,-2.9654,-2.9044,-2.8695,-2.7758,0.0,0.0,0.0,0.0,0.0,0.0,0.0,0.0,0.0,0.0,0.0,0.0,0.0,0.0,0.0,0.0,0.0,0.0,0.0,0.0,0.0,0.0,0.0,0.0,0.0,0.0,0.0,0.0,0.0,-1.8911,-1.995,-2.0929,-2.0511,-2.0261,0.0,0.0,0.0,0.0,0.0,0.0,0.0,0.0,0.0,-2.6371,-2.6109,-2.6281,-2.7038,-2.6744,-2.6316,-2.5707,-2.5375,-2.4728,-2.3756,-2.3226,-2.2751,-2.2294,-2.2172,-2.1335,-2.0012,-1.996,-2.0093,-2.0286,0.0,0.0,0.0,0.0,0.0,-2.1079,-2.0603,0.0,0.0,0.0,0.0,0.0,0.0,0.0,0.0,0.0,0.0,0.0,0.0,0.0,0.0,-3.269,-3.348,-3.3951,-3.4269,-3.4295,-3.3887,0.0,-3.2055,-3.1291,-2.9778,0.0,0.0,0.0,0.0,0.0,-2.878,-2.9363,-2.9829,-3.0163,-3.033,-3.0439,-3.0556,-3.0594,-3.0601,-3.0606,-3.0179,-2.9641,-2.9033,-2.8431,-2.78,0.0,0.0,0.0,0.0,0.0,0.0,0.0,0.0,0.0,0.0,0.0,0.0,0.0,0.0,0.0,0.0,0.0,0.0,0.0,0.0,0.0,0.0,0.0,0.0,0.0,0.0,0.0,0.0,-2.0162,-2.0514,-2.1196,-2.0714,-2.0559,0.0,0.0,0.0,0.0,0.0,0.0,-2.4774,-2.492,-2.5661,-2.7112,-2.6845,-2.7109,-2.7997,-2.737,-2.6807,-2.6285,-2.5823,-2.5185,-2.4474,-2.4229,-2.3953,-2.3648,-2.3541,-2.3434,-2.3312,-2.2343,-2.1925,-2.1891,-2.1659,-2.1745,-2.1917,-2.1318,-2.1736,-2.258,-2.2019,-2.2315,-2.2911,-2.2778,0.0,-2.0708,-2.002,0.0,0.0,0.0,0.0,-2.581,-2.9284,0.0,-3.3508,-3.4808,-3.5302,-3.5537,-3.5678,-3.5716,-3.5313,0.0,-3.3441,-3.2682,-3.0972,0.0,0.0,0.0,0.0,-2.8553,-2.9383,-2.9844,-3.0217,-3.0552,-3.0934,-3.1111,-3.098,-3.0996,-3.0885,-3.0581,-3.0509,-3.019,-2.9646,-2.944,-2.9044,-2.8444,0.0,0.0,0.0,0.0,0.0,0.0,0.0,0.0,0.0,0.0,0.0,0.0,0.0,0.0,0.0,0.0,0.0,0.0,0.0,0.0,0.0,0.0,0.0,0.0,0.0,0.0,0.0,0.0,0.0,-2.1987,-2.1323,0.0,0.0,0.0,0.0,-2.2968,-2.3178,-2.4072,-2.5818,-2.6005,-2.6684,-2.8086,-2.7879,-2.789,-2.8275,-2.7805,-2.769,-2.7868,-2.7485,-2.7012,-2.6515,-2.6409,-2.625,-2.6144,-2.609,-2.5929,-2.5534,-2.3312,-2.2631,-2.3041,-2.3146,-2.3673,-2.4333,-2.4141,-2.4234,-2.4276,-2.3783,-2.3417,-2.3239,-2.3134,-2.2724,-2.2166,-2.1553,-2.1626,0.0,0.0,-2.668,-2.9286,-3.2091,-3.4026,-3.5314,-3.5599,-3.5714,-3.5762,-3.5713,-3.5754,-3.5745,0.0,-3.4796,-3.3805,-3.275,0.0,-3.0704,-2.976,-2.9491,-2.9488,-2.976,-3.0571,-3.1249,-3.159,-3.2435,-3.268,-3.1992,-3.1874,-3.1448,-3.0564,-3.0374,-3.0599,-3.1255,-3.1153,-3.1383,-3.2015,-3.0486,0.0,0.0,0.0,0.0,0.0,0.0,0.0,0.0,0.0,0.0,0.0,0.0,0.0,0.0,0.0,0.0,0.0,0.0,0.0,0.0,0.0,0.0,0.0,0.0,0.0,0.0,0.0,0.0,-2.1639,-2.1541,0.0,0.0,-2.1979,-2.234,-2.301,-2.3732,-2.4625,-2.5799,-2.6415,-2.7437,-2.8941,-2.8642,-2.8884,-2.9846,-2.8971,-2.8449,-2.8387,-2.8129,-2.7853,-2.7467,-2.7875,-2.7955,-2.783,-2.783,-2.7559,-2.6992,-2.6059,-2.5326,-2.4749,-2.4665,-2.5012,-2.5491,-2.5209,-2.5394,-2.5717,-2.5056,-2.5048,-2.5173,-2.4864,-2.4804,-2.4669,-2.414,-2.4717,-2.5864,-2.7518,-2.9605,-3.1851,-3.3773,-3.4977,-3.5683,-3.5744,-3.5745,-3.5736,-3.5765,-3.5745,-3.5745,-3.5821,-3.5427,-3.4803,-3.389,-3.3334,-3.2744,-3.1879,-3.1679,-3.1652,-3.1726,-3.2062,-3.2369,-3.258,-3.2938,-3.3046,-3.2723,-3.2687,-3.2248,-3.1264,-3.1687,-3.1807,-3.1484,-3.1932,-3.2238,-3.2352,-3.1784,-3.0916,0.0,0.0,0.0,0.0,0.0,0.0,0.0,0.0,0.0,0.0,0.0,0.0,0.0,0.0,0.0,0.0,0.0,0.0,0.0,0.0,0.0,0.0,0.0,0.0,0.0,0.0,-2.1794,-2.1895,-2.197,-2.2124,-2.2282,-2.2435,-2.2813,-2.3588,-2.4311,-2.5126,-2.6181,-2.6969,-2.7995,-2.925,-2.9278,-2.9593,-3.0402,-2.9657,-2.9199,-2.8989,-2.8868,-2.8693,-2.8478,-2.8906,-2.9098,-2.8987,-2.8987,-2.8737,-2.8286,-2.8177,-2.7642,-2.6923,-2.626,-2.6358,-2.6831,-2.6617,-2.6819,-2.707,-2.6394,-2.6484,-2.6813,-2.6688,-2.6904,-2.7179,-2.7019,-2.7822,-2.9069,-3.0382,-3.2007,-3.3677,-3.4894,-3.5511,-3.5822,-3.5813,-3.5773,-3.5757,-3.5801,-3.5779,-3.5795,-3.5877,-3.5791,-3.5417,-3.4554,-3.4345,-3.401,-3.3156,-3.3005,-3.2966,-3.2949,-3.3234,-3.3476,-3.3527,-3.3844,-3.3897,-3.3533,-3.3484,-3.3064,-3.207,-3.2549,-3.2713,-3.2363,-3.2825,-3.3163,-3.3239,-3.2938,-3.1919,-3.0205,0.0,0.0,0.0,0.0,0.0,0.0,0.0,0.0,0.0,0.0,0.0,0.0,0.0,0.0,0.0,0.0,0.0,0.0,0.0,0.0,0.0,0.0,0.0,-2.2255,-2.2172,-2.2334,-2.2838,-2.2667,-2.281,-2.345,-2.3509,-2.388,-2.4732,-2.4807,-2.5455,-2.6991,-2.7677,-2.8362,-2.9114,-2.9748,-3.0046,-2.9955,-2.9879,-2.9801,-2.984,-2.9663,-2.9609,-2.9609,-2.9624,-2.9639,-2.9639,-2.9639,-2.957,-2.9431,-2.9431,-2.9416,-2.9268,-2.7928,-2.7795,-2.8383,-2.8622,-2.8622,-2.8415,-2.7765,-2.77,-2.803,-2.8451,-2.8989,-2.9578,-3.0144,-3.0919,-3.1888,-3.2875,-3.3865,-3.4769,-3.5432,-3.5741,-3.589,-3.583,-3.5799,-3.5807,-3.5791,-3.5846,-3.5891,-3.5908,-3.5898,-3.5638,-3.4789,-3.4705,-3.4424,-3.3513,-3.3374,0.0,-3.3292,-3.4012,-3.4511,-3.4445,-3.5201,-3.5339,-3.4414,-3.4282,-3.3851,-3.29,-3.2876,-3.3225,-3.3983,-3.3955,-3.4236,-3.487,-3.396,-3.2713,-3.1111,0.0,0.0,0.0,0.0,0.0,0.0,0.0,0.0,0.0,0.0,0.0,0.0,0.0,0.0,0.0,0.0,0.0,0.0,0.0,0.0,0.0,0.0,-2.3045,-2.2492,-2.2744,-2.2925,-2.2838,-2.3098,-2.3372,-2.3551,-2.3566,-2.3835,-2.4477,-2.4969,-2.5708,-2.6819,-2.7499,-2.837,-2.9578,-2.9799,-3.0182,-3.0899,-3.0395,-3.0212,-3.0308,-3.0253,-3.0253,-3.0268,-3.0776,-3.1001,-3.1001,-3.1001,-3.0604,-3.0045,-3.0045,-2.9763,-2.9302,-2.929,-2.9236,-2.9206,-2.9417,-2.8976,-2.8253,-2.8042,-2.8321,-2.8933,-2.9718,-3.0496,-3.1349,-3.2024,-3.2711,-3.3419,-3.4055,-3.4661,-3.5189,-3.5577,-3.5742,-3.583,-3.5878,-3.5864,-3.5872,-3.5872,-3.5897,-3.5904,-3.5953,-3.5978,-3.591,-3.5662,-3.5625,-3.5565,-3.5307,0.0,0.0,-3.5081,-3.5244,-3.5348,-3.5291,-3.5484,-3.5508,-3.5194,-3.5155,-3.4735,0.0,-3.4333,-3.4491,-3.4014,-3.4592,-3.4878,-3.4831,-3.3821,-3.3358,0.0,0.0,0.0,0.0,0.0,0.0,0.0,0.0,0.0,0.0,0.0,0.0,0.0,0.0,0.0,0.0,0.0,0.0,0.0,0.0,0.0,0.0,-2.3815,-2.3611,-2.3276,-2.3275,-2.3323,-2.3345,-2.3556,-2.3696,-2.3696,-2.382,-2.4179,-2.471,-2.5154,-2.5864,-2.6813,-2.7365,-2.8126,-2.9156,-2.968,-3.0294,-3.0984,-3.0791,-3.077,-3.0941,-3.0941,-3.0941,-3.0941,-3.1287,-3.1482,0.0,-3.1409,-3.1127,-3.0584,-3.0483,-3.0205,0.0,0.0,0.0,0.0,0.0,-2.8526,-2.8008,-2.8061,-2.8639,-2.952,-3.0533,-3.1386,-3.2168,-3.3195,-3.39,-3.4446,-3.4809,-3.5112,-3.5384,-3.5525,-3.5619,-3.5698,-3.576,-3.5815,-3.5864,-3.5879,-3.5889,-3.5919,-3.5988,0.0,0.0,-3.5995,-3.5996,-3.5994,-3.5965,-3.5899,-3.5826,0.0,-3.5678,-3.5631,-3.5572,-3.556,-3.5522,-3.546,-3.546,0.0,0.0,0.0,-3.5124,-3.4499,-3.4842,0.0,0.0,0.0,0.0,0.0,0.0,0.0,0.0,-3.4531,-3.4725,0.0,0.0,0.0,0.0,0.0,0.0,0.0,0.0,0.0,0.0,0.0,0.0,0.0,0.0,0.0,0.0,-2.4417,-2.4347,-2.4442,-2.4002,-2.3794,-2.4085,-2.3952,-2.3839,-2.3824,-2.4179,-2.4621,-2.5096,-2.5315,-2.5873,-2.6863,0.0,0.0,0.0,0.0,-3.0129,-3.0568,-3.1043,-3.1351,-3.1482,-3.1482,-3.1482,-3.1482,-3.1482,-3.1482,-3.1467,-3.1351,-3.1146,-3.0911,-3.0613,-3.0433,-3.0334,-2.9958,-2.9463,-2.893,-2.7906,-2.755,0.0,0.0,0.0,0.0,-3.1031,-3.181,-3.2538,-3.3948,-3.4761,-3.5212,-3.5342,-3.548,-3.5541,-3.5427,-3.5433,-3.5499,-3.5581,-3.5698,-3.5815,-3.5872,-3.5894,-3.5912,-3.5991,-3.5996,-3.5994,-3.5991,-3.5999,-3.5974,-3.5911,-3.5846,0.0,-3.5629,-3.5601,-3.5566,-3.5507,0.0,0.0,-3.5412,-3.5412,-3.5379,-3.5315,-3.5445,-3.5423,-3.5221,-3.5057,-3.5221,-3.5815,-3.5622,-3.5922,-3.6721,-3.6712,-3.6971,-3.7521,-3.651,-3.5878,0.0,0.0,0.0,0.0,0.0,0.0,0.0,0.0,0.0,0.0,0.0,0.0,0.0,0.0,0.0,-2.5409,-2.5555,-2.5703,-2.5946,-2.5546,-2.5048,-2.4508,-2.4317,-2.4135,-2.3982,-2.4327,-2.4667,-2.4839,-2.5048,-2.5642,-2.6676,-2.6593,0.0,-2.8278,-2.8812,-2.9498,-3.0326,-3.0702,-3.1117,-3.1482,0.0,0.0,-3.1482,-3.1482,-3.1409,-3.1351,-3.1161,-3.0792,-3.0433,-3.0068,-2.9808,-2.9482,-2.9144,-2.8895,-2.8521,-2.7113,-2.6692,-2.6938,-2.747,-2.8466,-2.9789,-3.1147,-3.2272,-3.346,-3.5122,-3.599,0.0,-3.6523,-3.659,-3.6422,-3.5604,-3.5405,-3.5437,-3.5577,-3.566,-3.5752,-3.5872,-3.5909,-3.5926,-3.5992,-3.5994,-3.5988,-3.5933,-3.5953,-3.5973,-3.5905,-3.585,-3.5754,-3.5629,-3.5601,-3.5566,-3.5507,-3.5493,-3.5493,-3.5474,-3.5493,-3.546,-3.5379,-3.5908,-3.6153,-3.5989,-3.629,-3.6507,-3.6584,-3.635,-3.6602,-3.7403,-3.7356,-3.7672,-3.8253,-3.7275,-3.7326,0.0,0.0,0.0,0.0,0.0,0.0,0.0,0.0,0.0,0.0,0.0,-2.4788,-2.4582,0.0,-2.5727,-2.5791,-2.6047,-2.6329,-2.6506,-2.6243,-2.5758,-2.5075,-2.4655,-2.4385,-2.4177,-2.4627,-2.4835,-2.4737,-2.5001,-2.5397,-2.6042,-2.595,-2.6443,-2.7637,-2.8319,-2.917,-3.019,-3.0568,-3.0896,-3.1016,-3.1016,-3.1016,-3.1016,-3.1016,-3.1081,-3.1278,-3.0925,-3.0493,-3.0007,-2.9233,-2.8675,-2.8295,-2.7569,-2.7488,-2.7625,-2.6092,-2.5742,-2.6054,-2.6634,-2.7811,-2.9367,-3.1207,-3.2809,-3.4316,-3.5901,-3.6876,-3.7354,-3.6889,-3.6855,-3.6706,-3.5622,-3.5328,-3.5345,-3.5549,-3.5678,-3.5774,-3.588,-3.5907,-3.5895,-3.5894,-3.5907,-3.5875,-3.5776,-3.5713,-3.5704,-3.5735,-3.5689,-3.5607,-3.5502,-3.5457,-3.5435,-3.546,-3.546,-3.546,-3.546,-3.5417,-3.5526,-3.5863,-3.6117,-3.6407,-3.6704,-3.6728,-3.6912,-3.7291,-3.7072,-3.7353,-3.8143,-3.8132,-3.8255,-3.8609,-3.8451,-3.8689,0.0,0.0,0.0,0.0,0.0,0.0,0.0,0.0,-2.4648,-2.4651,-2.5099,-2.546,-2.5264,-2.5716,-2.6092,-2.6053,-2.6486,-2.6871,-2.6853,-2.6539,-2.6156,-2.5615,-2.5036,-2.4589,-2.4302,-2.4822,-2.4995,-2.4519,-2.487,-2.5148,-2.5283,-2.5257,-2.5753,-2.6905,-2.7806,-2.887,-3.0068,-3.0507,-3.0661,-3.0507,-3.0507,-3.0447,-3.0328,-3.0328,-3.0574,-3.0968,-3.0379,-2.9822,-2.9191,-2.8056,-2.738,-2.7026,-2.6059,-2.6047,-2.643,-2.511,-2.4835,-2.5147,-2.5889,-2.7187,-2.8967,-3.109,-3.3003,-3.4785,-3.6285,-3.7376,-3.7958,-3.7274,-3.7108,-3.6857,-3.5623,-3.5268,-3.5291,-3.5533,-3.5677,-3.5778,-3.5857,-3.5859,-3.5827,-3.5734,-3.5717,-3.5663,-3.553,-3.5405,-3.538,-3.5527,-3.5488,-3.5405,-3.535,-3.53,-3.53,-3.5335,-3.535,-3.5369,-3.5335,-3.5293,-3.5556,-3.6287,-3.6292,-3.6602,-3.7322,-3.7175,-3.7367,-3.8016,-3.7845,-3.8088,-3.8719,-3.8719,-3.8689,-3.8726,-3.9635,-3.9893,-1.8273,-2.0008,-2.1725,-2.312,-2.3688,-2.4099,0.0,0.0,-2.5483,-2.5539,-2.5522,-2.5468,-2.5383,-2.6347,-2.6994,-2.6598,-2.7469,-2.7977,-2.7391,-2.6822,-2.6298,-2.5815,-2.5346,-2.4815,-2.4204,-2.4701,-2.4805,-2.4011,-2.4545,-2.4802,-2.4788,-2.4525,-2.5051,-2.6699,-2.7099,-2.8255,-3.0054,-3.0447,-3.0602,-3.0507,-3.0507,-3.0223,-2.9684,-2.9684,-2.9792,-2.9929,-2.8792,-2.8009,-2.7404,-2.643,-2.5931,-2.5766,-2.5437,-2.5222,-2.5056,-2.4288,-2.4274,-2.4681,-2.5522,-2.7202,-2.919,-3.0632,-3.2442,-3.4372,-3.5963,-3.71,-3.7966,-3.8559,-3.8201,-3.7261,-3.5695,-3.5349,-3.5417,-3.5552,-3.562,-3.564,-3.5717,-3.5681,-3.5606,-3.5465,-3.5403,-3.5303,-3.5172,-3.5092,-3.5114,-3.5292,-3.5288,-3.5216,-3.5138,-3.5174,-3.519,-3.5138,-3.519,-3.519,-3.5138,-3.5072,-3.5343,-3.6083,-3.655,-3.7135,-3.7885,-3.8432,-3.8756,-3.8762,-3.8762,-3.8759,-3.8792,-3.8792,-3.875,-3.8744,-4.0235,-4.0881,-1.837,-2.0677,0.0,0.0,-2.4208,-2.4688,-2.5299,-2.5524,-2.5615,-2.5681,-2.5612,-2.5532,-2.542,-2.6502,-2.7233,0.0,-2.7505,-2.7931,-2.7078,-2.6386,-2.573,-2.5067,-2.448,-2.4085,-2.3879,-2.4071,-2.4026,-2.3575,-2.366,-2.3838,-2.3949,-2.3927,-2.443,-2.5517,-2.6294,-2.7441,-2.8983,-2.9348,-2.9486,-2.94,-2.94,-2.9265,-2.9011,-2.9011,-2.903,-2.8929,-2.8099,-2.7379,-2.6765,-2.6139,-2.5861,-2.5759,-2.5353,-2.5176,-2.511,-2.4413,-2.4376,-2.4765,-2.5329,-2.665,-2.8354,-3.0418,-3.2199,-3.3945,-3.6185,-3.7485,-3.8208,-3.8472,-3.7851,-3.6929,-3.6141,-3.5554,-3.5207,-3.5383,-3.5463,-3.548,-3.5514,-3.5436,-3.5342,-3.5251,-3.5113,-3.4971,-3.4831,-3.4716,-3.4674,-3.4716,-3.4794,-3.4832,-3.4812,-3.4831,-3.487,-3.4963,-3.5019,-3.5,-3.4982,-3.5265,-3.5784,-3.6509,-3.7143,-3.7832,-3.8606,-3.886,-3.9007,-3.9036,-3.9036,-3.8979,-3.8939,-3.8939,-3.8881,-3.8877,-4.048,-4.1185,-1.808,0.0,0.0,-2.3103,-2.3873,-2.4553,-2.493,-2.5133,-2.532,-2.5602,-2.5632,-2.5552,-2.5427,-2.635,-2.6996,-2.6561,-2.7049,-2.7203,-2.6354,-2.5558,-2.4792,-2.3956,-2.3451,-2.3125,-2.3109,-2.3108,-2.3125,-2.3041,-2.2871,-2.2955,-2.3245,-2.3404,-2.3865,-2.468,-2.5585,-2.6786,-2.8197,-2.8553,-2.8693,-2.8607,-2.8607,-2.8502,-2.8323,-2.8398,-2.8351,-2.8166,-2.7467,-2.6882,-2.6344,-2.5881,-2.5754,-2.5761,-2.5486,-2.5486,-2.5619,-2.517,-2.5021,-2.5048,-2.5467,-2.6568,-2.8122,-3.0541,-3.2158,-3.3677,-3.6309,-3.7608,-3.82,-3.8098,-3.7464,-3.6705,-3.6396,-3.5669,-3.5048,-3.5175,-3.525,-3.5268,-3.5233,-3.5134,-3.5037,-3.4924,-3.4775,-3.4615,-3.4505,-3.439,-3.4293,-3.4216,-3.4335,-3.4427,-3.4495,-3.4517,-3.4583,-3.4752,-3.4752,-3.4752,-3.4732,-3.5312,-3.5997,-3.6771,-3.7448,-3.8201,-3.9027,-3.9036,-3.9064,-3.9137,-3.9192,-3.9192,-3.9129,-3.912,-3.9064,-3.9016,-4.0644,-4.1373,0.0,0.0,-2.0841,-2.1189,-2.2323,-2.3477,-2.3945,-2.4199,-2.4577,-2.5422,-2.5603,-2.5556,-2.5418,-2.5868,-2.6237,-2.6217,-2.6075,-2.5811,-2.5402,-2.4413,-2.3456,-2.2671,-2.2393,-2.2042,0.0,-2.1944,-2.2277,-2.2309,-2.2298,-2.2523,-2.2871,-2.2921,-2.3475,-2.4667,-2.5263,-2.6362,-2.8197,-2.8553,-2.8693,-2.8607,-2.8607,-2.8248,-2.7619,-2.783,-2.7802,-2.7599,-2.6764,-2.6321,-2.6048,-2.5347,-2.5102,-2.5286,-2.5825,-2.6229,-2.6481,-2.6745,-2.6201,-2.5467,-2.6068,-2.7386,-2.9134,-3.1006,-3.2335,-3.365,-3.6064,-3.7238,-3.7744,-3.7776,-3.7405,-3.6858,-3.6253,-3.5549,-3.5005,-3.5015,-3.5002,-3.4992,-3.485,-3.4756,-3.4653,-3.4454,-3.4363,-3.4269,-3.4148,-3.4124,-3.4092,-3.402,-3.3957,-3.3998,-3.4197,-3.4269,-3.434,-3.4427,-3.4427,-3.4386,-3.4316,-3.5008,-3.5743,-3.6562,-3.7239,-3.8003,-3.8873,-3.9017,-3.9156,-3.9298,-3.9477,-3.9551,-3.9483,-3.9427,-3.9317,-3.9221,-4.0839,-4.159,0.0,0.0,-1.9605,-2.0625,-2.1654,-2.2559,-2.303,-2.3704,-2.4296,-2.4541,-2.5024,-2.5318,-2.506,-2.5327,-2.5465,-2.5015,-2.4569,-2.4045,-2.3277,-2.2349,-2.1622,-2.1289,-2.094,0.0,0.0,0.0,0.0,-2.1798,-2.1719,-2.1765,-2.2063,-2.242,-2.291,-2.3619,-2.4393,-2.5442,-2.6679,-2.7118,-2.7501,-2.778,-2.7867,-2.7799,-2.7575,-2.7558,-2.7491,-2.7334,-2.6841,-2.6557,-2.6489,-2.6113,-2.6176,-2.6467,-2.6782,-2.7078,-2.7333,-2.77,-2.7754,-2.7644,-2.7475,-2.8514,-3.0164,-3.1855,-3.3499,-3.5122,-3.6899,-3.7845,-3.8358,-3.8591,-3.7746,-3.6696,-3.6597,-3.5578,-3.4551,-3.4553,-3.4532,-3.4529,-3.4483,-3.4371,-3.4274,-3.4203,-3.4124,-3.4023,-3.3972,-3.3921,-3.3895,-3.3879,-3.3923,-3.3957,-3.3998,-3.4099,-3.4173,-3.4197,-3.4197,-3.4197,-3.4173,-3.5325,-3.6168,-3.6436,-3.764,-3.8516,-3.895,-3.912,-3.9298,-3.9575,-3.9717,-3.9785,-3.9762,-3.9739,-3.967,-3.9564,-4.121,-4.1999,-1.4439,-1.6608,-1.867,-1.9664,-2.0763,-2.1695,-2.2158,-2.3,-2.377,-2.3999,-2.4681,-2.5128,-2.4752,-2.4582,-2.4287,-2.3705,-2.2758,-2.1819,-2.1079,-2.0221,-1.9579,-1.9528,-1.9471,-1.954,0.0,0.0,0.0,-2.0961,-2.0936,-2.1049,-2.1491,-2.2037,-2.2592,-2.3088,-2.3975,-2.4865,-2.5839,-2.6297,-2.6841,-2.7401,-2.7539,-2.7625,-2.7575,-2.7437,-2.735,-2.7284,-2.7011,-2.6893,-2.693,-2.6916,-2.7174,-2.755,-2.7834,-2.8112,-2.8512,-2.8888,-2.9268,-2.9444,-2.887,-2.9707,-3.1312,-3.2963,-3.46,-3.6245,-3.7857,-3.8738,-3.9219,-3.9308,-3.8078,-3.6764,-3.6795,-3.5516,-3.4221,-3.4197,-3.4197,-3.4197,-3.4173,-3.4099,-3.4023,-3.3998,-3.3921,-3.3868,-3.3868,-3.3815,-3.3807,-3.3807,-3.3879,-3.395,-3.3868,-3.3947,-3.4023,-3.4023,-3.4074,-3.4228,-3.4525,-3.5769,-3.662,-3.6916,-3.8143,-3.8921,-3.9101,-3.9264,-3.9477,-3.9785,-3.9956,-4.0019,-4.0039,-4.002,-3.9958,-3.987,-4.1533,-4.2309,-1.3906,-1.6085,-1.7983,-1.8414,-1.9662,-2.0872,-2.1324,-2.2137,-2.3009,-2.3774,-2.4549,-2.4949,0.0,0.0,-2.2783,-2.2362,-2.062,-1.9235,-1.8893,-1.7959,-1.7379,0.0,0.0,0.0,0.0,0.0,0.0,-1.989,0.0,-2.0393,-2.1037,-2.1788,-2.2469,-2.3027,-2.3872,-2.4751,-2.5674,-2.6082,-2.6669,-2.7401,-2.7524,-2.7575,-2.7575,-2.7488,-2.7401,-2.7401,-2.7284,-2.7269,-2.7393,-2.763,-2.8012,-2.8384,-2.8888,-2.9361,-2.9881,-3.0208,-3.0608,-3.0841,-3.0186,-3.0965,-3.2572,-3.4248,-3.5654,-3.7045,-3.8823,-3.9769,-4.0157,-3.9816,-3.8436,-3.6986,-3.6771,-3.5429,-3.4074,-3.3998,-3.3998,-3.3972,-3.3895,-3.3895,-3.3868,-3.3815,-3.3788,-3.3807,-3.3807,-3.3807,-3.3815,-3.3807,-3.3868,-3.3895,-3.3815,-3.3868,-3.3895,-3.3921,-3.4023,-3.4476,-3.5328,-3.6196,-3.7065,-3.7865,-3.8655,-3.9165,-3.9324,-3.9502,-3.9717,-3.9996,-4.0139,-4.0233,-4.0307,-4.0252,-4.0177,-4.0139,-4.1776,-4.2517,-1.4615,-1.6344,-1.7894,-1.873,-1.9539,-2.0184,-2.0404,-2.1639,-2.2769,-2.2866,-2.398,-2.4771,-2.4155,0.0,0.0,-2.0775,-1.8825,0.0,-1.6479,-1.5914,0.0,-1.6439,0.0,-1.7693,-1.8522,-1.8726,0.0,0.0,-1.9663,-2.0169,-2.0355,-2.1376,-2.2149,-2.2592,-2.359,-2.4421,-2.5005,-2.5974,-2.6683,-2.7107,-2.735,-2.7437,-2.7437,-2.7539,-2.7575,-2.769,-2.7755,-2.7974,-2.8222,-2.8463,-2.8842,-2.9303,-2.9673,-3.0064,-3.0444,-3.0931,-3.1321,-3.1696,-3.2022,-3.2719,-3.3764,-3.541,-3.6895,-3.8266,-3.9624,-4.0157,-4.01,-3.9299,-3.8126,-3.6934,-3.6068,-3.4946,-3.3998,-3.3868,-3.3842,-3.386,-3.3815,-3.3834,-3.3815,-3.3788,-3.3842,-3.3868,-3.3868,-3.3947,-3.3998,-3.3947,-3.4049,-3.4074,-3.3895,-3.3972,-3.4074,-3.4124,-3.4197,-3.4604,-3.5477,-3.6317,-3.7138,-3.7996,-3.8798,-3.9324,-3.9526,-3.9623,-3.981,-4.0139,-4.0233,-4.0325,-4.0449,-4.0432,-4.0396,-4.0363,-4.2029,-4.2795,-1.569,-1.7077,-1.8264,-1.9082,-1.9588,-1.9935,-2.0022,-2.1371,-2.2584,-2.2532,-2.3784,0.0,-2.4025,0.0,0.0,0.0,0.0,0.0,-1.4849,-1.4314,-1.4326,0.0,-1.5888,0.0,-1.757,-1.7948,-1.8202,0.0,-1.9131,-1.9781,-1.9987,-2.0996,-2.1827,-2.2359,-2.3318,-2.4144,-2.4778,-2.5715,-2.6312,-2.6621,-2.6922,-2.7181,-2.7335,-2.7437,-2.764,-2.779,0.0,-2.8381,-2.8716,-2.912,-2.9528,-2.9968,-3.0377,-3.0747,-3.1106,-3.166,-3.2039,-3.2454,-3.3045,-3.3567,-3.4246,-3.5714,-3.7324,-3.8861,-3.9624,-3.9829,-3.9684,-3.8994,-3.7732,-3.6427,-3.569,-3.4729,-3.3921,-3.3815,-3.3807,-3.3807,-3.3807,-3.3807,-3.3807,-3.386,-3.3895,-3.3972,-3.4023,-3.4124,-3.4173,-3.4173,-3.4567,-3.4838,-3.4742,-3.4766,-3.4852,-3.495,-3.5356,-3.575,-3.6013,-3.7039,-3.8026,-3.8878,-3.9345,-3.9679,-3.981,-3.9876,-4.004,-4.0288,-4.0342,-4.043,-4.0495,-4.0495,-4.0479,-4.0466,-4.1807,-4.2633,-1.6989,-1.8029,-1.8874,-1.9383,-1.9684,-1.9881,-1.9953,-2.1272,-2.2494,-2.2498,0.0,-2.4697,-2.4026,-2.2463,-2.0685,-1.8933,0.0,-1.4763,-1.367,-1.3191,-1.3182,-1.3735,-1.476,-1.5707,-1.6449,-1.713,-1.762,-1.7842,-1.8425,-1.9138,-1.9791,-2.0557,-2.1385,-2.2262,-2.2877,-2.3632,-2.4493,-2.5108,-2.5604,-2.5889,-2.6375,-2.6841,-2.7115,-2.7335,-2.7554,-2.789,0.0,0.0,-2.9044,-2.9633,-3.0054,-3.0435,-3.0925,-3.1334,-3.1691,-3.2231,-3.2621,-3.2961,-3.3502,-3.3842,-3.4284,-3.5493,-3.7148,-3.8697,-3.8992,-3.9031,-3.8898,-3.8536,-3.7141,-3.5702,-3.5367,-3.4585,-3.3868,-3.3834,-3.3807,-3.3807,-3.3807,-3.3807,-3.3815,-3.3895,-3.3972,-3.4074,-3.4197,-3.4316,-3.4386,-3.4431,-3.5214,-3.5803,-3.5979,-3.5957,-3.5968,-3.6096,-3.6909,-3.7298,-3.6953,-3.8099,-3.9185,-3.9965,-4.0022,-4.0042,-4.012,-4.0196,-4.0288,-4.0413,-4.0466,-4.0515,-4.0489,-4.0489,-4.0504,-4.0523,-4.1412,-4.2217,-1.8094,-1.8721,-1.918,-1.9448,-1.9619,-1.9735,-1.9749,-2.1128,0.0,0.0,0.0,-2.4727,-2.3971,-2.231,0.0,-1.8176,0.0,0.0,0.0,0.0,-1.2873,0.0,0.0,0.0,0.0,0.0,0.0,0.0,0.0,0.0,-1.9333,-2.0031,-2.0793,-2.1624,-2.2008,-2.2454,-2.2826,-2.3728,-2.4354,-2.4721,-2.5827,-2.651,-2.6788,-2.7233,-2.7655,-2.8137,0.0,0.0,-2.9499,-2.9957,-3.0384,-3.0814,-3.114,-3.1466,-3.1819,-3.2318,-3.2657,-3.2948,-3.3375,-3.3698,-3.416,-3.5536,-3.635,-3.691,-3.7666,-3.7857,-3.76,-3.6669,-3.6039,-3.5413,-3.4513,-3.4083,-3.3868,-3.3834,-3.3807,-3.3807,-3.3807,-3.3807,-3.3815,-3.3895,-3.4049,-3.4197,-3.434,-3.4545,-3.4693,-3.4632,-3.5472,-3.6347,-3.6965,-3.7041,-3.7062,-3.7201,-3.7471,-3.7889,-3.8517,-3.8821,-3.9299,-4.0101,-4.0158,-4.0215,-4.0252,-4.027,-4.0342,-4.0466,-4.0502,-4.0515,-4.0489,-4.0489,-4.0523,-4.0592,-4.1478,-4.2005,-1.7566,-1.8164,-1.8647,-1.8755,-1.9152,-1.9557,-1.9619,0.0,0.0,0.0,0.0,-2.4771,-2.3989,0.0,0.0,0.0,0.0,0.0,0.0,0.0,0.0,0.0,0.0,0.0,0.0,0.0,0.0,0.0,0.0,0.0,-1.8585,-1.9688,-2.0593,-2.1144,-2.1592,-2.1924,-2.2021,-2.2677,-2.315,-2.3474,-2.4401,-2.5236,-2.5916,-2.6447,-2.716,-2.8039,-2.8334,0.0,-2.9589,-3.0017,-3.0501,-3.0952,-3.1274,-3.1559,-3.1856,-3.2387,-3.2672,-3.2848,-3.325,-3.353,-3.3835,-3.4612,-3.5396,-3.6121,-3.6538,-3.6632,-3.6457,-3.5859,-3.5259,-3.4655,-3.409,-3.3895,-3.3842,-3.3807,-3.3807,-3.3807,-3.3807,-3.3807,-3.3815,-3.3921,-3.4124,-3.4316,-3.4517,-3.4694,-3.4813,-3.4908,-3.5836,-3.6805,-3.7471,-3.8347,-3.8899,-3.8899,-3.9049,-3.9327,-3.9747,-3.9783,-3.9953,-4.0319,-4.0358,-4.0375,-4.0392,-4.0392,-4.0444,-4.0495,-4.0546,-4.0543,-4.0539,-4.0583,-4.0612,-4.0665,-4.1131,-4.1564,-1.6841,-1.7458,-1.8046,-1.8035,-1.8712,-1.9446,-1.9801,-2.1192,0.0,0.0,-2.3966,-2.4718,-2.3971,0.0,0.0,0.0,0.0,0.0,0.0,0.0,0.0,0.0,0.0,0.0,0.0,0.0,0.0,0.0,0.0,0.0,-1.793,-1.9295,-2.0175,-2.0438,-2.0939,-2.1281,-2.1281,-2.1681,-2.207,-2.2326,-2.3041,-2.3931,-2.4949,-2.5524,-2.6441,-2.7663,-2.8071,0.0,0.0,-2.9957,-3.0401,-3.0855,-3.1235,-3.1521,-3.1746,-3.2266,-3.2488,-3.2636,-3.297,-3.322,-3.3433,-3.3597,-3.4437,-3.5394,-3.5413,-3.539,-3.5324,-3.5181,-3.4606,-3.3972,-3.3895,-3.3842,-3.3807,-3.3807,-3.3807,-3.3807,-3.3807,-3.3807,-3.3842,-3.3972,-3.4173,-3.4386,-3.4647,-3.4813,-3.494,-3.5122,-3.6279,-3.7288,-3.7761,-3.9325,-4.0379,-4.0272,-4.0415,-4.0499,-4.0534,-4.0527,-4.0504,-4.0519,-4.0519,-4.0519,-4.0519,-4.0519,-4.0519,-4.0534,-4.0603,-4.0636,-4.0631,-4.0687,-4.0726,-4.0732,-4.08,-4.1183,-1.6942,-1.7348,-1.7836,-1.7832,-1.8528,-1.95,-2.0535,0.0,0.0,-2.3583,-2.429,-2.4504,-2.3764,-2.22,0.0,0.0,0.0,0.0,0.0,0.0,0.0,0.0,0.0,0.0,0.0,0.0,0.0,0.0,0.0,0.0,0.0,-1.8577,-1.9048,-1.9344,-1.9648,-1.9858,-1.9962,-2.0676,-2.1142,-2.1459,-2.2511,-2.3423,-2.4146,-2.4725,-2.576,-2.7111,0.0,0.0,0.0,-2.9766,-3.0113,-3.0568,-3.0935,-3.1157,-3.1372,-3.1746,-3.202,-3.2249,-3.2352,-3.2687,-3.3055,-3.3147,-3.3633,-3.4185,-3.416,-3.4191,-3.4235,-3.4083,-3.3976,-3.3895,-3.3834,-3.3788,-3.3807,-3.3807,-3.3807,-3.3807,-3.3807,-3.3807,-3.3842,-3.3972,-3.4221,-3.4454,-3.4672,-3.4944,-3.519,-3.5277,-3.6719,-3.7824,-3.7885,-3.9413,-4.0485,-4.0466,-4.0495,-4.0523,-4.0592,-4.0592,-4.0603,-4.0593,-4.0588,-4.0588,-4.0588,-4.0588,-4.0621,-4.0687,-4.0687,-4.0713,-4.0776,-4.0788,-4.0815,-4.0869,-4.0898,-4.0956,-1.5925,-1.6529,-1.7204,-1.7739,-1.8662,-1.9718,-2.0778,0.0,-2.2756,-2.3614,-2.4138,-2.4204,-2.3379,-2.1881,-2.0161,0.0,-1.6759,-1.5332,0.0,0.0,0.0,0.0,0.0,0.0,0.0,0.0,0.0,0.0,0.0,0.0,0.0,-1.7902,-1.853,-1.8946,-1.9356,-1.9656,-1.9798,-2.0076,-2.0346,-2.0514,-2.1287,-2.214,-2.305,-2.382,-2.4794,-2.5926,0.0,0.0,0.0,-2.8682,-2.9378,-3.0359,-3.0692,-3.0975,-3.1291,-3.1559,-3.1728,-3.1858,-3.2091,-3.2352,-3.2621,-3.2898,-3.3268,-3.3643,-3.378,-3.3868,-3.3895,-3.3842,-3.3842,-3.3815,-3.3807,-3.3807,-3.3807,-3.3807,-3.3807,-3.3807,-3.3807,-3.3807,-3.3842,-3.3972,-3.4221,-3.4476,-3.4672,-3.4982,-3.5226,-3.5289,-3.7087,-3.8339,-3.8001,-3.9458,-4.0511,-4.0511,-4.0508,-4.0523,-4.0588,-4.0598,-4.0607,-4.0655,-4.0655,-4.0688,-4.072,-4.072,-4.0732,-4.0764,-4.0792,-4.0837,-4.0858,-4.0898,-4.0927,-4.0954,-4.0996,-4.103,-1.5757,-1.6456,-1.7242,-1.789,-1.908,-2.0332,0.0,-2.2282,-2.3141,-2.3834,-2.4027,-2.3784,-2.2847,-2.1346,-1.974,0.0,-1.6794,-1.552,-1.4159,0.0,0.0,0.0,0.0,0.0,0.0,0.0,0.0,0.0,0.0,0.0,0.0,-1.7313,-1.8063,-1.8798,-1.9251,-1.9604,-1.9798,-1.9798,-1.9862,-2.0042,-2.051,-2.1269,-2.2246,-2.3008,-2.3934,-2.502,0.0,0.0,0.0,-2.7509,-2.8295,-2.9381,-2.9947,-3.0416,-3.0791,-3.1244,-3.1483,-3.1596,-3.1839,-3.2126,-3.2438,-3.2752,-3.3147,-3.3509,-3.3643,-3.3753,-3.3807,-3.3807,-3.3807,-3.3807,-3.3807,-3.3807,-3.3807,-3.3807,-3.3807,-3.3807,-3.3834,-3.3815,-3.3868,-3.4049,-3.4293,-3.452,-3.4753,-3.5018,-3.5258,-3.5315,-3.6959,-3.8137,-3.8027,-3.9258,-4.0254,-4.0485,-4.0519,-4.0569,-4.0617,-4.0654,-4.0681,-4.0754,-4.0765,-4.0787,-4.0828,-4.0828,-4.0837,-4.0856,-4.0917,-4.0935,-4.0971,-4.1007,-4.103,-4.1039,-4.1075,-4.11,-1.6941,-1.7514,-1.8222,-1.8366,-1.9805,-2.145,0.0,-2.3263,-2.3938,-2.4469,-2.4007,-2.3173,-2.2114,-2.0607,-1.9038,-1.7544,-1.6044,-1.4896,-1.4182,0.0,0.0,0.0,0.0,0.0,0.0,0.0,0.0,0.0,0.0,0.0,0.0,-1.6667,-1.7493,-1.8774,-1.921,-1.9512,-1.9798,-1.9798,-1.9914,-2.0182,-2.0472,-2.1006,-2.1807,-2.2296,-2.3252,0.0,0.0,0.0,0.0,-2.6423,-2.6788,-2.7338,-2.854,-2.9247,-2.9715,-3.0667,-3.123,-3.1517,-3.1596,-3.1984,-3.2523,-3.2716,-3.3172,-3.3605,-3.3671,-3.3753,-3.3807,-3.3807,-3.3807,-3.3807,-3.3807,-3.3807,-3.3807,-3.3807,-3.3807,-3.3834,-3.3868,-3.3895,-3.3972,-3.4245,-3.4473,-3.4668,-3.4964,-3.516,-3.5308,-3.5398,-3.6152,-3.7026,-3.7892,-3.8757,-3.9638,-4.0511,-4.0612,-4.0621,-4.07,-4.075,-4.0828,-4.0878,-4.0894,-4.0898,-4.0898,-4.0898,-4.0929,-4.0991,-4.0999,-4.1023,-4.111,-4.111,-4.11,-4.1108,-4.1105,-4.1093,-1.7825,-1.8191,-1.8776,-2.0006,-2.083,-2.1723,-2.3188,-2.3519,-2.3615,-2.3856,-2.321,-2.2263,-2.115,-1.971,-1.8264,-1.7029,0.0,0.0,0.0,0.0,0.0,0.0,0.0,0.0,0.0,0.0,0.0,0.0,0.0,0.0,0.0,0.0,-1.7176,-1.8007,-1.8198,-1.8598,-1.9271,-1.9271,-1.951,-2.0093,-2.051,-2.1006,-2.1568,-2.2282,0.0,0.0,0.0,0.0,0.0,-2.5509,-2.6181,-2.7078,-2.7756,-2.86,-2.945,-2.9978,-3.0583,-3.1223,-3.1617,-3.2072,-3.256,-3.288,-3.325,-3.3549,-3.3671,-3.378,-3.3842,-3.3815,-3.3807,-3.3807,-3.3807,-3.3807,-3.3807,-3.386,-3.3868,-3.3895,-3.4023,-3.4074,-3.4173,-3.4386,-3.4564,-3.4733,-3.4963,-3.5176,-3.5324,-3.5398,-3.6133,-3.7007,-3.7892,-3.8757,-3.9619,-4.0511,-4.0635,-4.07,-4.0764,-4.0837,-4.0898,-4.0963,-4.0976,-4.0993,-4.1025,-4.1046,-4.1052,-4.1071,-4.1075,-4.1081,-4.1109,-4.1109,-4.1099,-4.109,-4.1107,-4.1099,0.0,-1.9211,-1.9805,-2.0868,-2.1662,-2.2432,-2.3309,-2.3441,-2.3286,-2.3009,-2.2186,-2.1157,-1.9999,-1.8691,-1.7477,-1.6554,0.0,0.0,0.0,0.0,0.0,0.0,0.0,0.0,0.0,0.0,0.0,0.0,0.0,0.0,0.0,0.0,-1.6327,-1.6973,-1.746,-1.8006,-1.8609,-1.887,-1.9295,-1.9875,-2.0505,-2.1104,-2.1698,-2.2388,0.0,0.0,0.0,0.0,0.0,-2.4605,-2.5136,-2.5967,-2.6713,-2.7535,-2.8401,-2.8998,-2.9805,-3.0722,-3.1151,-3.1846,-3.261,-3.2961,-3.3238,-3.3462,-3.353,-3.3652,-3.378,-3.3698,-3.3726,-3.378,-3.378,-3.378,-3.3834,-3.3868,-3.3921,-3.3998,-3.4173,-3.4269,-3.4386,-3.4647,-3.4753,-3.487,-3.5086,-3.5239,-3.5354,-3.5432,-3.5916,-3.668,-3.7853,-3.8469,-3.9268,-4.0468,-4.0675,-4.0761,-4.0828,-4.0888,-4.096,-4.1038,-4.1045,-4.1057,-4.1101,-4.1109,-4.1096,-4.1106,-4.1097,-4.1114,-4.1142,-4.1142,-4.1113,-4.1097,-4.1091,-4.1097,0.0,-2.03,-2.1048,-2.1071,-2.2238,-2.3295,-2.2959,-2.3032,0.0,-2.1952,-2.0989,-1.9903,-1.8691,-1.7585,-1.6665,-1.6114,0.0,0.0,0.0,0.0,0.0,0.0,0.0,0.0,0.0,0.0,0.0,0.0,0.0,0.0,0.0,0.0,-1.5196,-1.5726,-1.6872,-1.7592,-1.7927,-1.8546,-1.9103,-1.9564,-2.0368,-2.1232,-2.2161,-2.2558,0.0,0.0,0.0,0.0,0.0,-2.3739,-2.4009,-2.4379,-2.5415,-2.6149,-2.6772,-2.7738,-2.8898,-2.9993,-3.0377,-3.1377,-3.2515,-3.2894,-3.3165,-3.3345,-3.3262,-3.3397,-3.3549,-3.3491,-3.3577,-3.3689,-3.3698,-3.3753,-3.3815,-3.3895,-3.3972,-3.4099,-3.4363,-3.4476,-3.4626,-3.4945,-3.5018,-3.5086,-3.5266,-3.5364,-3.5412,-3.5493,-3.5493,-3.6084,-3.77,-3.7969,-3.8652,-4.0337,-4.0681,-4.0826,-4.0876,-4.0964,-4.1026,-4.1106,-4.1091,-4.1107,-4.1108,-4.1108,-4.1103,-4.1114,-4.1114,-4.1142,-4.1191,-4.1191,-4.1171,-4.1108,-4.1099,-4.1101,-1.8845,0.0,-2.0574,-2.1588,-2.2045,-2.2351,0.0,-2.2282,-2.1671,-2.0729,0.0,-1.8677,-1.7652,-1.6779,-1.5963,0.0,0.0,0.0,0.0,0.0,0.0,0.0,0.0,0.0,0.0,0.0,0.0,0.0,0.0,0.0,0.0,0.0,-1.4908,-1.5085,-1.5751,-1.6469,-1.7401,-1.7643,-1.8152,-1.8934,-1.9898,-2.0731,-2.1541,-2.2448,0.0,0.0,0.0,0.0,-2.3595,-2.3739,-2.3925,-2.4124,-2.4627,-2.5356,-2.6222,-2.6893,-2.7734,-2.8682,-3.0048,-3.0716,-3.122,-3.2577,-3.3037,-3.3037,-3.2716,-3.2894,-3.3238,-3.3268,-3.3393,-3.3593,-3.3661,-3.3753,-3.3868,-3.4148,-3.4245,-3.4386,-3.4651,-3.4792,-3.4908,-3.5049,-3.5155,-3.5258,-3.535,-3.5398,-3.5412,-3.5493,-3.5493,-3.5872,-3.6892,-3.7584,-3.8421,-3.9565,-4.0352,-4.0826,-4.0876,-4.1018,-4.1089,-4.1097,-4.1111,-4.1123,-4.1171,-4.1171,-4.1171,-4.117,-4.117,-4.1171,-4.1191,-4.1191,-4.1172,-4.1092,-4.1094,-4.1108,-1.8101,-1.9012,-2.0016,-2.0836,-2.1135,-2.1216,-2.1217,0.0,0.0,0.0,0.0,-1.7572,-1.6878,0.0,0.0,0.0,0.0,0.0,0.0,0.0,0.0,0.0,0.0,0.0,0.0,0.0,0.0,0.0,0.0,0.0,0.0,0.0,-1.4445,-1.4743,-1.5277,-1.5957,-1.6752,-1.7205,-1.774,-1.8429,-1.9337,-2.0361,-2.1508,-2.2177,0.0,0.0,0.0,0.0,-2.3595,-2.3696,-2.3797,-2.3925,-2.4193,-2.4741,-2.5406,-2.5862,-2.6706,-2.7848,-2.8878,-2.9851,-3.0882,-3.2456,-3.2776,-3.2521,-3.2283,-3.2352,-3.2555,-3.2816,-3.3073,-3.3322,-3.3549,-3.3698,-3.3895,-3.4269,-3.4427,-3.4564,-3.4832,-3.4982,-3.507,-3.52,-3.5304,-3.5369,-3.5427,-3.5446,-3.546,-3.5493,-3.5493,-3.5795,-3.6603,-3.7123,-3.7901,-3.921,-3.9857,-4.0378,-4.0811,-4.0976,-4.107,-4.1108,-4.1097,-4.1125,-4.1151,-4.1152,-4.1172,-4.1191,-4.1191,-4.1171,-4.1147,-4.1147,-4.1146,-4.1105,-4.111,-4.1093,-1.7255,-1.8092,-1.8854,-1.9377,-1.972,-1.9756,-1.9241,0.0,0.0,0.0,0.0,0.0,0.0,0.0,0.0,0.0,0.0,0.0,0.0,0.0,0.0,0.0,0.0,0.0,0.0,0.0,0.0,0.0,0.0,0.0,0.0,0.0,0.0,-1.4523,-1.5108,-1.5647,-1.6156,-1.6878,-1.746,-1.7931,-1.8786,-1.9959,-2.1398,-2.183,0.0,0.0,0.0,0.0,-2.3595,-2.3595,-2.3653,-2.3782,-2.3925,-2.4177,-2.4589,-2.4934,-2.5924,-2.7101,-2.7479,-2.899,-3.0958,-3.2212,-3.2371,-3.2002,-3.191,-3.1854,-3.1837,-3.2249,-3.2606,-3.2975,-3.3357,-3.3615,-3.3876,-3.4316,-3.4539,-3.4711,-3.498,-3.5102,-3.5203,-3.5393,-3.5422,-3.5455,-3.5501,-3.552,-3.5501,-3.5488,-3.5488,-3.5757,-3.643,-3.6622,-3.7329,-3.895,-3.9335,-3.9835,-4.0707,-4.0897,-4.0993,-4.1042,-4.1069,-4.1099,-4.1103,-4.1091,-4.1132,-4.1171,-4.1171,-4.1167,-4.1108,-4.1104,-4.1085,-4.1072,-4.1088,-4.1074,-1.6171,-1.5855,-1.5797,-1.7664,-1.7852,-1.7497,-1.7063,0.0,0.0,0.0,0.0,0.0,0.0,0.0,0.0,0.0,0.0,0.0,0.0,0.0,0.0,0.0,0.0,0.0,0.0,0.0,0.0,0.0,0.0,0.0,0.0,0.0,0.0,-1.4222,-1.4834,-1.5379,-1.5836,-1.6305,-1.6746,-1.7174,-1.8077,-1.8998,-1.9878,-2.134,-2.2219,0.0,0.0,-2.3595,-2.3595,-2.3595,-2.3595,-2.3653,-2.3782,-2.3952,-2.4245,-2.4744,-2.5371,-2.6065,-2.6823,-2.8528,-3.0491,-3.1219,-3.1548,-3.1668,-3.1542,-3.1517,-3.1555,-3.1614,-3.202,-3.2537,-3.3093,-3.3486,-3.3865,-3.4431,-3.4751,-3.4982,-3.5146,-3.5273,-3.5397,-3.5534,-3.5577,-3.5577,-3.5577,-3.5577,-3.5565,-3.5502,-3.5502,-3.5547,-3.568,-3.6276,-3.7118,-3.8161,-3.8967,-3.9773,-4.0648,-4.0792,-4.0837,-4.0849,-4.0949,-4.1039,-4.1105,-4.1108,-4.1097,-4.1116,-4.1116,-4.1114,-4.1108,-4.1091,-4.1078,-4.1026,-4.1025,-4.0986,-1.4485,-1.4019,-1.3622,-1.4263,-1.4916,-1.5251,-1.4865,0.0,0.0,0.0,0.0,0.0,0.0,0.0,0.0,0.0,0.0,0.0,0.0,0.0,0.0,0.0,0.0,0.0,0.0,0.0,0.0,0.0,0.0,0.0,0.0,0.0,0.0,0.0,-1.4558,-1.5051,-1.5691,-1.6044,-1.6479,-1.7002,-1.7587,-1.8425,-1.9526,-2.045,-2.1284,-2.1995,0.0,-2.3101,-2.3131,-2.346,-2.3595,-2.3595,-2.3653,-2.3867,-2.4204,-2.4997,-2.5551,-2.5954,-2.6604,-2.7487,-2.8388,-2.8677,-2.9206,-2.9753,-2.9688,-3.0146,-3.0751,-3.0772,-3.1455,-3.2318,-3.2844,-3.3325,-3.3795,-3.4409,-3.4751,-3.5,-3.5197,-3.5326,-3.543,-3.5558,-3.5601,-3.5601,-3.5601,-3.5601,-3.5577,-3.5515,-3.5515,-3.5489,-3.5507,-3.5834,-3.6372,-3.7247,-3.8155,-3.9031,-3.9868,-4.0443,-4.0769,-4.0849,-4.0917,-4.0976,-4.105,-4.1047,-4.1047,-4.105,-4.105,-4.105,-4.1045,-4.1052,-4.1015,-4.0952,-4.0954,-4.0906,-1.303,-1.2633,-1.207,-1.1472,-1.2385,-1.326,-1.2869,0.0,0.0,0.0,0.0,0.0,0.0,0.0,0.0,0.0,0.0,0.0,0.0,0.0,0.0,0.0,0.0,0.0,0.0,0.0,0.0,0.0,0.0,0.0,0.0,0.0,0.0,0.0,-1.428,-1.4823,-1.5546,-1.5856,-1.6293,-1.6918,-1.724,-1.8004,-1.9125,-1.9669,-2.036,-2.1232,-2.2118,-2.2484,-2.2488,-2.2951,-2.3251,-2.3385,-2.3385,-2.3688,-2.4245,-2.5098,-2.561,-2.599,-2.6484,-2.6672,-2.6686,-2.6719,-2.7394,-2.8188,-2.8185,-2.8949,-2.9837,-2.9878,-3.0656,-3.1673,-3.2479,-3.31,-3.3643,-3.4255,-3.4649,-3.4945,-3.5203,-3.5369,-3.5488,-3.5589,-3.5623,-3.5635,-3.5635,-3.5615,-3.5593,-3.5528,-3.5515,-3.5522,-3.5507,-3.5493,-3.5815,-3.6622,-3.7343,-3.8089,-3.8936,-3.9841,-4.034,-4.0255,-4.0635,-4.0897,-4.0945,-4.0953,-4.0957,-4.0943,-4.0943,-4.0963,-4.0945,-4.0945,-4.0927,-4.0849,-4.0849,-4.0818,-1.24,-1.1902,-1.124,-1.0716,-1.1155,0.0,-1.1266,-1.1849,0.0,0.0,0.0,0.0,0.0,0.0,0.0,0.0,0.0,0.0,0.0,0.0,0.0,0.0,0.0,0.0,0.0,0.0,0.0,0.0,0.0,0.0,0.0,0.0,0.0,0.0,0.0,-1.4743,-1.5513,-1.5812,-1.6262,-1.6718,-1.7199,-1.757,-1.7963,-1.9296,-2.0034,-2.0357,-2.1352,-2.1769,-2.1769,-2.1814,-2.2188,-2.2742,-2.2742,-2.3394,-2.4328,-2.4665,-2.5189,-2.5791,-2.6324,-2.6604,-2.6689,-2.6686,-2.738,-2.8198,-2.8188,-2.8631,-2.9059,-2.9096,-2.9329,-3.0024,-3.1948,-3.2836,-3.3367,-3.4006,-3.4486,-3.4889,-3.5141,-3.5407,-3.5599,-3.5604,-3.5707,-3.5776,-3.5699,-3.5699,-3.5669,-3.5596,-3.5591,-3.5566,-3.5507,-3.5493,-3.5815,-3.6622,-3.6757,-3.7142,-3.8007,-3.8907,-3.909,-3.8356,-3.9881,-4.0812,-4.0823,-4.0807,-4.0809,-4.0798,-4.0798,-4.0818,-4.0818,-4.0804,-4.0781,-4.0706,-4.072,-4.0681,-1.1435,-1.1012,-1.0507,-0.9963,0.0,0.0,0.0,0.0,0.0,0.0,0.0,0.0,0.0,0.0,0.0,0.0,0.0,0.0,0.0,0.0,0.0,0.0,0.0,0.0,0.0,0.0,0.0,0.0,0.0,0.0,0.0,0.0,0.0,0.0,0.0,-1.4593,-1.5468,-1.5736,-1.6088,-1.6577,-1.7031,-1.7475,-1.7841,-1.8793,-1.9373,-1.9698,-2.0682,-2.1081,-2.1111,-2.153,-2.1844,-2.2169,-2.2959,-2.364,-2.4245,-2.4679,-2.5153,-2.5717,-2.6168,-2.6467,-2.664,-2.6708,-2.6962,-2.7284,-2.7282,-2.7739,-2.8264,-2.8264,-2.8728,-2.9556,-3.1063,-3.192,-3.2661,-3.3621,-3.4213,-3.4649,-3.4945,-3.5124,-3.5254,-3.5397,-3.5445,-3.5483,-3.5507,-3.5507,-3.5514,-3.5541,-3.5547,-3.5534,-3.5507,-3.5493,-3.5622,-3.593,-3.6411,-3.7046,-3.793,-3.8296,-3.8368,-3.8055,-3.8722,-3.9367,-3.9908,-3.9939,-4.0184,-4.073,-4.073,-4.0738,-4.0732,-4.0739,-4.0713,-4.064,-4.0631,-4.0598,-1.0647,-1.0347,-0.9979,0.0,0.0,0.0,0.0,0.0,0.0,0.0,0.0,0.0,0.0,0.0,0.0,0.0,0.0,0.0,0.0,0.0,0.0,0.0,0.0,0.0,0.0,0.0,0.0,0.0,0.0,0.0,0.0,0.0,0.0,0.0,0.0,0.0,-1.5468,-1.5703,-1.6057,-1.6522,-1.6947,-1.7365,-1.772,-1.8383,-1.8898,-1.928,-2.0012,-2.0356,-2.0423,-2.0872,-2.1186,-2.1485,-2.2808,-2.3477,-2.3788,-2.4471,-2.4974,-2.5438,-2.599,-2.6329,-2.6521,-2.6674,-2.6691,-2.6691,-2.6691,-2.7046,-2.7469,-2.7469,-2.7911,-2.8664,-2.9799,-3.0917,-3.1984,-3.3031,-3.3751,-3.434,-3.4691,-3.4832,-3.4962,-3.5187,-3.5228,-3.5254,-3.5336,-3.535,-3.5369,-3.5393,-3.5446,-3.546,-3.546,-3.5493,-3.5493,-3.5493,-3.6219,-3.6853,-3.718,-3.745,-3.7488,-3.7238,-3.7247,-3.7905,-3.9315,-3.9372,-3.9772,-4.061,-4.0629,-4.0635,-4.0646,-4.0646,-4.0598,-4.0573,-4.0573,-4.0539,-1.0218,-0.9976,-0.9858,0.0,0.0,0.0,0.0,0.0,0.0,0.0,0.0,0.0,0.0,0.0,0.0,0.0,0.0,0.0,0.0,0.0,0.0,0.0,0.0,0.0,0.0,0.0,0.0,0.0,0.0,0.0,0.0,0.0,0.0,0.0,0.0,0.0,-1.5468,-1.5703,-1.6057,-1.6522,-1.682,-1.7157,-1.7516,-1.8187,-1.8707,-1.9101,-1.9465,-1.9632,-1.969,-1.969,-2.0094,-2.0842,-2.2143,-2.2735,-2.2903,-2.3923,-2.4536,-2.502,-2.5824,-2.6187,-2.6349,-2.6624,-2.6691,-2.6691,-2.6691,-2.6691,-2.6691,-2.6691,-2.6792,-2.7112,-2.8128,-2.9837,-3.1444,-3.2125,-3.3121,-3.3998,-3.4427,-3.4588,-3.4754,-3.4944,-3.5047,-3.5114,-3.5181,-3.5251,-3.5266,-3.5216,-3.5315,-3.5398,-3.5412,-3.546,-3.5493,-3.5493,-3.6219,-3.6372,-3.5584,-3.6238,-3.6353,-3.5565,-3.5493,-3.6642,-3.9181,-3.9277,-3.9662,-4.0469,-4.0489,-4.0489,-4.0489,-4.0489,-4.0489,-4.0489,-4.0489,-4.0489,-1.0291,-0.9915,0.0,0.0,0.0,0.0,0.0,0.0,0.0,0.0,0.0,0.0,0.0,0.0,0.0,0.0,0.0,0.0,0.0,0.0,0.0,0.0,0.0,0.0,0.0,0.0,0.0,0.0,0.0,0.0,0.0,0.0,0.0,0.0,0.0,0.0,-1.5468,-1.5703,-1.6057,-1.6522,-1.6705,-1.7002,-1.7434,-1.8187,-1.8669,-1.8988,-1.9413,-1.9632,-1.969,-1.969,-2.0094,-2.0752,-2.1141,-2.1639,-2.2164,-2.2716,-2.346,-2.429,-2.4951,-2.5688,-2.6349,-2.6624,-2.6691,-2.6691,-2.6691,-2.6691,-2.6742,-2.6792,-2.6876,-2.7026,-2.7618,-2.8666,-3.0039,-3.1693,-3.2911,-3.3807,-3.4148,-3.4293,-3.439,-3.4502,-3.4548,-3.4632,-3.4753,-3.4832,-3.4925,-3.5032,-3.5207,-3.5354,-3.546,-3.5493,-3.5493,-3.5493,-3.5718,-3.5757,-3.5526,-3.5718,-3.5757,-3.5526,-3.5493,-3.6372,-3.8315,-3.8392,-3.9046,-4.0469,-4.0489,-4.0489,-4.0489,-4.0489,-4.0489,-4.0489,-4.0489,-4.0489,-1.0435,0.0,0.0,0.0,0.0,0.0,0.0,0.0,0.0,0.0,0.0,0.0,0.0,0.0,0.0,0.0,0.0,0.0,0.0,0.0,0.0,0.0,0.0,0.0,0.0,0.0,0.0,0.0,0.0,0.0,0.0,0.0,0.0,0.0,0.0,0.0,-1.5334,-1.5659,-1.6001,-1.6479,-1.662,-1.6876,-1.7282,-1.7908,-1.8422,-1.8822,-1.9376,-1.9632,-1.969,-1.969,-1.9929,-2.0333,-2.0617,-2.0985,-2.1499,-2.208,-2.2783,-2.3592,-2.4512,-2.5256,-2.5965,-2.6522,-2.6691,-2.6691,-2.6691,-2.6691,-2.6742,-2.6842,-2.6926,-2.704,-2.7434,-2.8237,-2.9372,-3.115,-3.2345,-3.3259,-3.3873,-3.4049,-3.4124,-3.4197,-3.4245,-3.4316,-3.4473,-3.4586,-3.4713,-3.4889,-3.5141,-3.5354,-3.5493,-3.5493,-3.5493,-3.5493,-3.5493,-3.5493,-3.5493,-3.5493,-3.5493,-3.5493,-3.5493,-3.6103,-3.743,-3.7815,-3.8796,-4.0469,-4.0489,-4.0489,-4.0489,-4.0489,-4.0489,-4.0489,-4.0489,-4.0489,-1.0672,0.0,0.0,0.0,0.0,0.0,0.0,0.0,0.0,0.0,0.0,0.0,0.0,0.0,0.0,0.0,0.0,0.0,0.0,0.0,0.0,0.0,0.0,0.0,0.0,0.0,0.0,0.0,0.0,0.0,0.0,0.0,0.0,0.0,0.0,0.0,-1.5108,-1.5558,-1.6013,0.0,-1.6577,-1.6791,-1.7002,-1.7557,-1.8108,-1.8707,-1.9339,-1.9632,-1.969,-1.969,-1.969,-1.975,-2.0378,-2.064,-2.0813,-2.1758,-2.2378,-2.2889,-2.417,-2.4877,-2.5347,-2.6303,-2.664,-2.6691,-2.6691,-2.6742,-2.6742,-2.6909,-2.6975,-2.7137,-2.7557,-2.8305,-2.9249,-3.0512,-3.1574,-3.2593,-3.3676,-3.3895,-3.3921,-3.4049,-3.4074,-3.4124,-3.4269,-3.4473,-3.4647,-3.4831,-3.5122,-3.5364,-3.5474,-3.5493,-3.5493,-3.5493,-3.5493,-3.5493,-3.5493,-3.5493,-3.5493,-3.5493,-3.5493,-3.5872,-3.668,-3.7546,-3.8738,-4.0354,-4.045,-4.0489,-4.0489,-4.0489,-4.0489,-4.0489,-4.0489,-4.0489,0.0,-1.057,0.0,0.0,0.0,0.0,0.0,0.0,0.0,0.0,0.0,0.0,0.0,0.0,0.0,0.0,0.0,0.0,0.0,0.0,0.0,0.0,0.0,0.0,0.0,0.0,0.0,0.0,0.0,0.0,0.0,0.0,0.0,0.0,0.0,-1.4129,-1.5108,-1.5457,-1.5901,0.0,-1.6479,-1.6705,-1.6918,-1.7516,-1.8305,-1.9176,-1.9465,-1.9632,-1.969,-1.969,-1.969,-1.969,-1.9854,-1.9951,-2.0059,-2.0624,-2.1311,-2.2131,-2.2949,-2.4083,-2.528,-2.568,-2.6234,-2.6742,-2.6842,-2.6842,-2.6909,-2.7215,-2.7341,-2.7496,-2.795,-2.8298,-2.8793,-2.9922,-3.1265,-3.2593,-3.3597,-3.3815,-3.3815,-3.3842,-3.3895,-3.3998,-3.4124,-3.4404,-3.473,-3.5143,-3.5304,-3.5412,-3.5493,-3.5493,-3.5493,-3.5493,-3.5493,-3.5493,-3.5493,-3.5493,-3.5493,-3.5493,-3.5493,-3.5872,-3.668,-3.7546,-3.8488,-3.9527,-4.0181,-4.0489,-4.0489,-4.0489,-4.0489,-4.0489,-4.0489,-4.0489,0.0,0.0,0.0,0.0,0.0,0.0,0.0,0.0,0.0,0.0,0.0,0.0,0.0,0.0,0.0,0.0,0.0,0.0,0.0,0.0,0.0,0.0,0.0,0.0,0.0,0.0,0.0,0.0,0.0,0.0,0.0,0.0,0.0,0.0,-1.2977,-1.3789,-1.4743,-1.5232,-1.5724,-1.6219,-1.6392,-1.6693,-1.7157,-1.7733,-1.8397,-1.9101,-1.9376,-1.9596,-1.969,-1.969,-1.969,-1.969,-1.969,-1.9797,-1.9975,-2.0273,-2.0899,-2.1697,-2.2522,-2.3699,-2.4894,-2.5426,-2.6099,-2.6742,-2.6842,-2.6926,-2.7007,-2.7341,-2.7509,-2.7701,-2.8156,-2.8362,-2.8717,-2.9794,-3.0951,-3.2064,-3.3028,-3.3532,-3.3807,-3.3807,-3.3842,-3.3947,-3.4074,-3.4454,-3.487,-3.5245,-3.5354,-3.5412,-3.5493,-3.5493,-3.5493,-3.5493,-3.5493,-3.5493,-3.5493,-3.5493,-3.5493,-3.5493,-3.5493,-3.5699,-3.6122,-3.693,-3.7796,-3.8661,-3.9488,-3.9931,-3.9931,-3.9931,-3.9931,-3.9912,-3.9488,-3.9523,0.0,0.0,0.0,0.0,0.0,0.0,0.0,0.0,0.0,0.0,0.0,0.0,0.0,0.0,0.0,0.0,0.0,0.0,0.0,0.0,0.0,0.0,0.0,0.0,0.0,0.0,0.0,0.0,0.0,0.0,0.0,0.0,-1.0814,-1.1859,-1.2455,-1.3175,-1.4076,-1.4698,-1.5266,-1.5855,-1.6269,-1.6778,-1.7352,-1.7855,-1.8411,-1.8898,-1.9228,-1.9487,-1.969,-1.969,-1.969,-1.969,-1.969,-1.9854,-2.015,-2.0342,-2.0778,-2.1437,-2.2322,-2.3329,-2.4332,-2.5137,-2.5913,-2.6538,-2.6689,-2.6905,-2.7135,-2.7322,-2.7596,-2.7933,-2.8344,-2.8518,-2.8801,-2.9704,-3.0521,-3.1382,-3.2368,-3.3238,-3.3807,-3.3807,-3.3895,-3.4023,-3.4179,-3.4609,-3.5019,-3.5258,-3.5369,-3.5446,-3.5493,-3.5493,-3.5493,-3.5493,-3.5493,-3.5493,-3.5493,-3.5493,-3.5493,-3.5493,-3.5493,-3.5493,-3.5493,-3.6142,-3.6834,-3.7546,-3.8565,-3.9084,-3.9084,-3.9084,-3.9084,-3.9046,-3.8349,-3.8383,0.0,0.0,0.0,0.0,0.0,0.0,0.0,0.0,0.0,0.0,0.0,0.0,0.0,0.0,0.0,0.0,0.0,0.0,0.0,0.0,0.0,0.0,0.0,0.0,0.0,0.0,0.0,0.0,0.0,0.0,0.0,-0.9803,-1.0278,-1.0937,-1.1497,-1.2159,-1.2904,-1.3538,-1.431,-1.5235,-1.6181,-1.6791,-1.7086,-1.7557,-1.8161,-1.8822,-1.9176,-1.9413,-1.9611,-1.9705,-1.969,-1.969,-1.969,-1.9854,-2.0135,-2.0376,-2.0811,-2.1356,-2.1777,-2.2608,-2.359,-2.4391,-2.5198,-2.5873,-2.6051,-2.6747,-2.7387,-2.7063,-2.762,-2.837,-2.8687,-2.881,-2.89,-2.9099,-2.9764,-3.0754,-3.2284,-3.3238,-3.3807,-3.3807,-3.4049,-3.434,-3.4569,-3.487,-3.5122,-3.5285,-3.5412,-3.5493,-3.5493,-3.5493,-3.5493,-3.5493,-3.5493,-3.5493,-3.5493,-3.5493,-3.5493,-3.5493,-3.5493,-3.5493,-3.5493,-3.5603,-3.5718,-3.5834,-3.7373,-3.8161,-3.8161,-3.8161,-3.8161,-3.8161,-3.8055,-3.8084,-1.2939,0.0,0.0,0.0,0.0,0.0,0.0,0.0,0.0,0.0,0.0,0.0,0.0,0.0,0.0,0.0,0.0,0.0,0.0,0.0,0.0,0.0,0.0,0.0,0.0,0.0,0.0,0.0,0.0,0.0,-0.9098,-0.9418,-0.9835,-1.0432,-1.0948,0.0,-1.2372,-1.2962,-1.3917,-1.5156,-1.5819,-1.6401,-1.696,-1.7337,-1.7922,-1.8669,-1.9026,-1.9339,-1.9611,-1.9654,-1.969,-1.969,-1.969,-1.9904,-2.0235,-2.0426,-2.0877,-2.1448,-2.1721,-2.2488,-2.3414,-2.3765,-2.4435,-2.5108,-2.5322,-2.5801,-2.637,-2.6854,-2.7376,-2.794,-2.8658,-2.8881,-2.8929,-2.8975,-2.9622,-3.0393,-3.1109,-3.2247,-3.3283,-3.3854,-3.4173,-3.4454,-3.4713,-3.4944,-3.5138,-3.5266,-3.5412,-3.5493,-3.5493,-3.5493,-3.5493,-3.5493,-3.5493,-3.5493,-3.5493,-3.5493,-3.5493,-3.5493,-3.5493,-3.5493,-3.5493,-3.5493,-3.5493,-3.5493,-3.668,-3.7276,-3.7276,-3.7276,-3.7291,-3.7324,-3.6864,-3.6954,0.0,0.0,0.0,0.0,0.0,0.0,0.0,0.0,0.0,0.0,0.0,0.0,0.0,0.0,0.0,0.0,0.0,0.0,0.0,0.0,0.0,0.0,0.0,0.0,0.0,0.0,0.0,0.0,0.0,0.0,-0.8672,-0.89,-0.9267,-0.9838,-1.0338,-1.0932,-1.1652,-1.2505,-1.3529,-1.4703,-1.5352,-1.5948,-1.6629,-1.7076,-1.7652,-1.8305,-1.8784,-1.9176,-1.9538,-1.9632,-1.969,-1.969,-1.9726,-1.994,-2.0304,-2.0494,-2.0958,-2.1524,-2.1751,-2.24,-2.3139,-2.3342,-2.3825,-2.4403,-2.4586,-2.5025,-2.5623,-2.6601,-2.7132,-2.7628,-2.8662,-2.8929,-2.8929,-2.8994,-2.9475,-3.0008,-3.0411,-3.1458,-3.2617,-3.3636,-3.3976,-3.4298,-3.4774,-3.5018,-3.519,-3.53,-3.5446,-3.5493,-3.5493,-3.5493,-3.5493,-3.5493,-3.5493,-3.5493,-3.5493,-3.5493,-3.5493,-3.5493,-3.5493,-3.5493,-3.5493,-3.5493,-3.5493,-3.5493,-3.6103,-3.6392,-3.6406,-3.6406,-3.6433,-3.6492,-3.5905,-3.6002,0.0,0.0,0.0,0.0,0.0,0.0,0.0,0.0,0.0,0.0,0.0,0.0,0.0,0.0,0.0,0.0,0.0,0.0,0.0,0.0,0.0,0.0,0.0,0.0,0.0,0.0,0.0,0.0,0.0,0.0,-0.8031,-0.8127,-0.8357,-0.887,-0.9403,-0.989,-1.0391,-1.2014,-1.3008,-1.3414,-1.4768,-1.5529,-1.5797,-1.6632,-1.7282,-1.7747,-1.8383,-1.8898,-1.9339,-1.9538,-1.9632,-1.9726,-1.9762,-1.9975,-2.0339,-2.0662,-2.1103,-2.1554,-2.1794,-2.2094,-2.2479,-2.3173,-2.3556,-2.3773,-2.3895,-2.4805,-2.5843,-2.6159,-2.6931,-2.7876,-2.875,-2.8994,-2.8994,-2.8994,-2.9012,-2.9494,-3.0999,-3.1452,-3.1863,-3.285,-3.3231,-3.3689,-3.4794,-3.5162,-3.5308,-3.5364,-3.546,-3.5493,-3.5493,-3.5493,-3.5493,-3.5493,-3.5493,-3.5493,-3.5493,-3.5493,-3.5493,-3.5493,-3.5493,-3.5493,-3.5493,-3.5493,-3.5493,-3.5493,-3.5532,-3.5559,-3.556,-3.556,-3.5598,-3.5659,-3.5676,-3.5766,0.0,0.0,0.0,0.0,0.0,0.0,0.0,0.0,0.0,0.0,0.0,0.0,0.0,0.0,0.0,0.0,0.0,0.0,0.0,0.0,0.0,0.0,0.0,0.0,0.0,0.0,0.0,0.0,0.0,0.0,-0.7674,-0.7843,-0.8092,-0.8522,-0.8994,-0.9637,-1.0534,-1.1416,-1.2276,-1.3191,-1.3879,-1.4504,-1.5087,-1.5975,-1.6556,-1.6983,-1.793,-1.8644,-1.9176,-1.9501,-1.9632,-1.9726,-1.9762,-2.0045,-2.0392,-2.0695,-2.1135,-2.1631,-2.184,-2.2077,-2.2344,-2.2615,-2.2824,-2.3027,-2.3197,-2.3749,-2.4479,-2.5231,-2.6158,-2.7112,-2.7985,-2.8613,-2.8994,-2.8994,-2.8994,-2.9163,-2.9779,-3.0812,-3.1765,-3.2269,-3.2518,-3.2826,-3.3365,-3.4044,-3.4549,-3.4553,-3.5095,-3.5493,-3.5493,-3.5493,-3.5493,-3.5493,-3.5493,-3.5493,-3.5493,-3.5493,-3.5493,-3.5493,-3.5493,-3.5493,-3.5493,-3.5493,-3.5493,-3.5493,-3.5515,-3.5489,-3.5515,-3.5515,-3.5565,-3.5657,-3.5689,-3.5754,-1.4305,0.0,0.0,0.0,0.0,0.0,0.0,0.0,0.0,0.0,0.0,0.0,0.0,0.0,0.0,0.0,0.0,0.0,0.0,0.0,0.0,0.0,0.0,0.0,0.0,0.0,0.0,0.0,0.0,0.0,-0.724,-0.746,-0.7924,-0.8586,-0.9007,-0.9637,-1.0601,-1.1057,-1.1707,-1.262,-1.3172,-1.3738,-1.4359,-1.531,-1.5996,-1.656,-1.7497,-1.8331,-1.9064,-1.9376,-1.9596,-1.9711,-1.9833,-2.01,-2.0444,-2.0827,-2.1277,-2.1724,-2.1915,-2.2135,-2.231,-2.231,-2.2432,-2.2632,-2.2842,-2.3175,-2.371,-2.4707,-2.5721,-2.6713,-2.7563,-2.8411,-2.8994,-2.8994,-2.8994,-2.904,-2.9152,-3.0072,-3.1043,-3.1516,-3.1789,-3.2081,-3.2549,-3.3206,-3.3695,-3.3698,-3.4474,-3.5064,-3.5064,-3.5334,-3.5493,-3.5493,-3.5493,-3.5493,-3.5493,-3.5493,-3.5493,-3.5493,-3.5493,-3.5493,-3.5493,-3.5493,-3.5493,-3.5493,-3.5509,-3.5515,-3.5528,-3.5534,-3.5593,-3.5737,-3.5735,-3.5818,0.0,0.0,0.0,0.0,0.0,0.0,0.0,0.0,0.0,0.0,0.0,0.0,0.0,0.0,0.0,0.0,0.0,0.0,0.0,0.0,0.0,0.0,0.0,0.0,0.0,0.0,0.0,0.0,0.0,-0.6502,-0.6715,-0.7047,-0.7746,-0.8935,-0.9399,-0.9864,-1.038,-1.0916,-1.1319,-1.1616,-1.2747,-1.3382,-1.3593,-1.4689,-1.5621,-1.6493,-1.7047,-1.7885,-1.8921,-1.925,-1.9523,-1.9726,-2.001,-2.0239,-2.0478,-2.1087,-2.1464,-2.1754,-2.2082,-2.2225,-2.231,-2.231,-2.2432,-2.2632,-2.2842,-2.3175,-2.371,-2.4689,-2.5703,-2.6713,-2.7581,-2.8411,-2.8994,-2.8994,-2.8994,-2.9062,-2.924,-2.9289,-2.9617,-3.0658,-3.1031,-3.148,-3.2469,-3.2746,-3.2852,-3.2872,-3.3603,-3.416,-3.4199,-3.4949,-3.5468,-3.5507,-3.5493,-3.5493,-3.5493,-3.5493,-3.5493,-3.5493,-3.5493,-3.5493,-3.5493,-3.5493,-3.5493,-3.5493,-3.5509,-3.5528,-3.5591,-3.5604,-3.5669,-3.5803,-3.5799,-3.5875,-1.5534,0.0,0.0,0.0,0.0,0.0,0.0,0.0,0.0,0.0,0.0,0.0,0.0,0.0,0.0,0.0,0.0,0.0,0.0,0.0,0.0,0.0,0.0,0.0,0.0,0.0,0.0,0.0,-0.6829,-0.6793,-0.6836,-0.7293,-0.7878,-0.8537,-0.9056,-0.9567,-1.0088,-1.0611,-1.1057,-1.1553,-1.2288,-1.277,-1.3082,-1.4181,-1.4891,-1.5366,-1.6877,-1.7794,-1.8302,-1.9075,-1.9523,-1.9726,-2.001,-2.0239,-2.0561,-2.1087,-2.1495,-2.1797,-2.2111,-2.2225,-2.231,-2.2366,-2.2515,-2.2712,-2.2919,-2.3247,-2.3652,-2.4024,-2.5266,-2.6841,-2.8297,-2.881,-2.8994,-2.8994,-2.8994,-2.904,-2.9178,-2.9289,-2.953,-3.0072,-3.0295,-3.0524,-3.0906,-3.1565,-3.2032,-3.2025,-3.2737,-3.3487,-3.4122,-3.441,-3.4795,-3.543,-3.5493,-3.5493,-3.5493,-3.5493,-3.5493,-3.5493,-3.5493,-3.5493,-3.5493,-3.5493,-3.5493,-3.5493,-3.5554,-3.5591,-3.5591,-3.5604,-3.5679,-3.581,-3.5891,-3.5955,0.0,0.0,0.0,0.0,0.0,0.0,0.0,0.0,0.0,0.0,0.0,0.0,0.0,0.0,0.0,0.0,0.0,0.0,0.0,0.0,0.0,0.0,0.0,0.0,0.0,0.0,0.0,0.0,-0.6901,-0.6823,-0.6914,-0.7335,-0.7795,-0.8283,-0.8854,-0.9346,-0.9872,-1.039,-1.0916,-1.1367,-1.2004,-1.2437,-1.278,-1.3664,-1.4367,-1.4932,-1.6243,-1.7128,-1.7739,-1.8678,-1.9322,-1.9726,-2.0045,-2.0323,-2.0561,-2.1166,-2.157,-2.1857,-2.2123,-2.2282,-2.2349,-2.2405,-2.2579,-2.279,-2.3003,-2.3313,-2.3611,-2.3792,-2.5145,-2.6845,-2.815,-2.8737,-2.8994,-2.8994,-2.8994,-2.904,-2.9218,-2.9289,-2.9454,-2.9787,-2.9988,-3.0138,-3.0286,-3.0758,-3.1129,-3.116,-3.1872,-3.2583,-3.3083,-3.3449,-3.3987,-3.4853,-3.4968,-3.5103,-3.5468,-3.5493,-3.5493,-3.5493,-3.5493,-3.5493,-3.5493,-3.5493,-3.5493,-3.5493,-3.5573,-3.5628,-3.5676,-3.5648,-3.5708,-3.5833,-3.5938,-3.6007,-1.6151,-1.638,0.0,0.0,0.0,0.0,-1.3695,-1.3072,0.0,0.0,0.0,0.0,0.0,0.0,0.0,0.0,0.0,0.0,0.0,0.0,0.0,0.0,0.0,0.0,0.0,0.0,-0.8211,-0.7172,-0.6836,-0.6732,-0.6829,-0.7167,-0.7572,-0.8144,-0.8643,-0.9185,-0.9674,-1.0283,-1.0764,-1.118,-1.1811,-1.2294,-1.2709,-1.3254,-1.3989,-1.4828,-1.5472,-1.6237,-1.719,-1.8106,-1.8932,-1.9656,-2.0135,-2.0407,-2.0613,-2.1276,-2.1615,-2.1857,-2.218,-2.2338,-2.2405,-2.2487,-2.2659,-2.2868,-2.3144,-2.336,-2.3607,-2.3943,-2.5226,-2.6667,-2.7567,-2.8338,-2.8906,-2.8975,-2.8994,-2.9062,-2.9259,-2.9289,-2.9375,-2.9718,-2.9943,-3.0128,-3.0266,-3.0299,-3.0316,-3.0398,-3.1064,-3.1583,-3.1698,-3.2314,-3.3103,-3.3949,-3.4064,-3.4372,-3.5161,-3.5315,-3.5372,-3.5372,-3.5449,-3.5493,-3.5493,-3.5493,-3.5493,-3.5493,-3.5566,-3.5665,-3.5793,-3.5727,-3.5788,-3.5894,-3.5977,-3.6007,-1.6088,-1.6293,-1.6238,-1.5812,0.0,0.0,0.0,-1.3134,0.0,0.0,0.0,0.0,0.0,0.0,0.0,0.0,0.0,0.0,0.0,0.0,0.0,0.0,0.0,0.0,0.0,0.0,-0.9059,-0.7835,-0.6929,-0.6489,-0.6568,-0.6823,-0.7251,-0.7795,-0.825,-0.8854,-0.9527,-1.0079,-1.0582,-1.1057,-1.1774,-1.2258,-1.2544,-1.3263,-1.3801,-1.4252,-1.5422,-1.6124,-1.6553,-1.7492,-1.8347,-1.9129,-1.9986,-2.0475,-2.0778,-2.1308,-2.1675,-2.1928,-2.2209,-2.2338,-2.2405,-2.2542,-2.2764,-2.302,-2.3289,-2.3486,-2.3837,-2.4762,-2.5324,-2.5952,-2.742,-2.7915,-2.8209,-2.8847,-2.8994,-2.904,-2.9197,-2.9262,-2.937,-2.9589,-2.9857,-3.0064,-3.0196,-3.026,-3.0316,-3.0398,-3.0533,-3.091,-3.1621,-3.1833,-3.2256,-3.3064,-3.3141,-3.3218,-3.3391,-3.4045,-3.4449,-3.4449,-3.5122,-3.5493,-3.5493,-3.5493,-3.5493,-3.5493,-3.5565,-3.5659,-3.5803,-3.5795,-3.582,-3.5904,-3.5977,-3.6007,-1.578,-1.5901,-1.58,-1.5457,0.0,0.0,0.0,0.0,0.0,0.0,0.0,0.0,0.0,0.0,0.0,0.0,0.0,0.0,0.0,0.0,0.0,0.0,0.0,0.0,0.0,0.0,-0.943,-0.7508,-0.6588,-0.6106,-0.6142,-0.6398,-0.6823,-0.7447,-0.7987,-0.8602,-0.9248,-0.9853,-1.0428,-1.0954,-1.1516,-1.2066,-1.2508,-1.3148,-1.3669,-1.4046,-1.5043,-1.5624,-1.5866,-1.681,-1.7494,-1.8078,-1.9346,-2.0045,-2.0416,-2.1287,-2.1721,-2.1928,-2.2209,-2.2366,-2.246,-2.2623,-2.2842,-2.3095,-2.336,-2.3638,-2.3969,-2.4549,-2.5051,-2.5605,-2.6374,-2.72,-2.7897,-2.8319,-2.8723,-2.904,-2.9156,-2.924,-2.9368,-2.9589,-2.9806,-2.9988,-3.0174,-3.0266,-3.0318,-3.0398,-3.0398,-3.0552,-3.1006,-3.1064,-3.1371,-3.2218,-3.2295,-3.2468,-3.2872,-3.3295,-3.3737,-3.416,-3.4603,-3.5045,-3.5488,-3.5493,-3.5534,-3.5547,-3.5607,-3.5727,-3.5854,-3.5859,-3.5878,-3.5953,-3.5981,-3.6001,0.0,0.0,0.0,0.0,0.0,-1.3988,0.0,0.0,0.0,-1.1947,0.0,0.0,0.0,0.0,0.0,0.0,0.0,0.0,0.0,0.0,0.0,0.0,0.0,0.0,0.0,0.0,-0.9389,-0.7102,-0.6176,-0.5727,-0.5744,-0.595,-0.6392,-0.7105,-0.7765,-0.839,-0.8975,-0.9616,-1.0235,-1.0878,-1.1292,-1.1847,-1.2508,-1.3045,-1.3555,-1.4019,-1.4721,-1.5118,-1.5356,-1.6188,-1.6638,-1.6969,-1.8563,-1.9468,-1.997,-2.107,-2.1665,-2.1957,-2.2209,-2.2394,-2.2515,-2.2632,-2.2919,-2.3223,-2.3499,-2.3768,-2.4036,-2.4094,-2.4629,-2.5201,-2.5366,-2.6355,-2.742,-2.7714,-2.8301,-2.8838,-2.916,-2.9243,-2.9349,-2.9626,-2.9809,-2.9943,-3.0157,-3.0265,-3.0318,-3.0386,-3.0398,-3.0398,-3.0398,-3.0398,-3.0679,-3.1371,-3.1448,-3.1718,-3.2352,-3.2564,-3.2968,-3.366,-3.3853,-3.4334,-3.5218,-3.5411,-3.5522,-3.5593,-3.5679,-3.5782,-3.5893,-3.5911,-3.5943,-3.5997,-3.5997,-3.5994,0.0,0.0,0.0,0.0,-1.4093,0.0,0.0,0.0,-1.2004,-1.1974,0.0,0.0,0.0,0.0,0.0,0.0,0.0,0.0,0.0,0.0,0.0,0.0,0.0,0.0,0.0,0.0,0.0,-0.7598,-0.616,-0.5381,-0.5443,-0.5517,-0.6007,-0.6914,-0.7454,-0.816,-0.8975,-0.9439,-1.0021,-1.0715,-1.1255,-1.1811,-1.2437,-1.3045,-1.3555,-1.4019,-1.4721,-1.5118,-1.5343,-1.5743,-1.599,-1.6283,-1.7822,-1.9044,-2.0028,-2.0557,-2.1247,-2.2027,-2.2237,-2.2366,-2.2432,-2.2569,-2.2985,-2.3486,-2.3771,-2.3955,-2.4094,-2.417,-2.4263,-2.4502,-2.5219,-2.555,-2.6046,-2.7457,-2.786,-2.818,-2.9092,-2.9188,-2.9237,-2.9626,-2.9754,-2.9874,-3.0085,-3.0221,-3.0324,-3.0398,-3.0398,-3.0398,-3.0398,-3.0398,-3.0436,-3.0533,-3.0552,-3.0571,-3.0679,-3.1391,-3.1891,-3.1987,-3.2641,-3.343,-3.4314,-3.5085,-3.5534,-3.5596,-3.5727,-3.5842,-3.5892,-3.5968,-3.599,-3.6001,-3.6002,-3.5997,0.0,0.0,0.0,0.0,0.0,0.0,0.0,0.0,-1.1434,0.0,0.0,0.0,0.0,0.0,0.0,0.0,0.0,0.0,0.0,0.0,0.0,0.0,0.0,0.0,0.0,0.0,0.0,0.0,0.0,-0.5848,-0.5348,-0.5339,-0.5627,-0.6367,-0.7118,-0.787,-0.8513,-0.9191,-0.9742,-1.0143,-1.062,-1.1098,-1.1472,-1.2016,-1.2723,-1.3574,-1.4188,-1.4788,-1.5343,-1.5654,-1.587,-1.6085,-1.6835,-1.8053,-1.9509,-2.0352,-2.1238,-2.2027,-2.2237,-2.2338,-2.2432,-2.2685,-2.3077,-2.3481,-2.371,-2.3896,-2.4074,-2.417,-2.419,-2.4281,-2.4612,-2.5054,-2.5568,-2.6266,-2.7148,-2.7985,-2.8503,-2.8996,-2.9435,-2.9699,-2.9841,-2.9972,-3.0128,-3.024,-3.0331,-3.0386,-3.0398,-3.0398,-3.0398,-3.0398,-3.0398,-3.0398,-3.0398,-3.0398,-3.0398,-3.0737,-3.116,-3.1679,-3.2929,-3.3814,-3.418,-3.5072,-3.5577,-3.5607,-3.5726,-3.5833,-3.5894,-3.5962,-3.5991,-3.6001,-3.5994,-3.5991,-1.3621,0.0,0.0,0.0,0.0,0.0,0.0,0.0,0.0,0.0,0.0,0.0,0.0,0.0,0.0,0.0,0.0,0.0,0.0,0.0,0.0,0.0,0.0,0.0,0.0,0.0,0.0,0.0,0.0,0.0,-0.5619,-0.5334,-0.5415,-0.5993,-0.6859,-0.7565,-0.8185,-0.8936,-0.9421,-0.9724,-1.006,-1.042,-1.0837,-1.1278,-1.2006,-1.2998,-1.374,-1.4414,-1.5096,-1.555,-1.5841,-1.6024,-1.6219,-1.7279,-1.8833,-1.997,-2.0966,-2.1776,-2.2169,-2.2366,-2.2487,-2.279,-2.3095,-2.3407,-2.3646,-2.3837,-2.4016,-2.417,-2.419,-2.419,-2.419,-2.463,-2.5127,-2.5386,-2.6528,-2.7698,-2.8064,-2.8873,-2.9589,-2.9806,-2.9959,-3.0102,-3.0207,-3.0272,-3.0318,-3.0386,-3.0398,-3.0398,-3.0398,-3.0398,-3.0398,-3.0398,-3.0398,-3.0398,-3.0398,-3.0398,-3.0679,-3.1295,-3.2718,-3.3506,-3.3506,-3.461,-3.523,-3.5248,-3.559,-3.582,-3.5899,-3.5968,-3.5999,-3.5994,-3.6001,-3.5991,0.0,0.0,0.0,-1.2546,0.0,0.0,0.0,0.0,-1.1109,0.0,0.0,0.0,0.0,0.0,0.0,0.0,0.0,0.0,0.0,0.0,0.0,0.0,0.0,0.0,0.0,0.0,0.0,0.0,0.0,0.0,-0.6331,-0.5528,-0.5389,-0.6059,-0.6683,-0.7384,-0.8175,-0.854,-0.905,-0.9697,-0.9786,-1.0178,-1.0794,-1.1229,-1.1755,-1.239,-1.3442,-1.4113,-1.4499,-1.5271,-1.5755,-1.6024,-1.6219,-1.6968,-1.8081,-1.9219,-2.0223,-2.1155,-2.2001,-2.2394,-2.2542,-2.2738,-2.3045,-2.3342,-2.3624,-2.3837,-2.4016,-2.417,-2.419,-2.419,-2.419,-2.4208,-2.4448,-2.5297,-2.6165,-2.7096,-2.8072,-2.8971,-2.9681,-2.994,-3.0095,-3.0223,-3.0286,-3.0312,-3.0305,-3.0398,-3.0398,-3.0398,-3.0398,-3.0398,-3.0398,-3.0398,-3.0398,-3.0398,-3.0398,-3.0398,-3.0398,-3.0436,-3.1275,-3.1775,-3.1775,-3.3371,-3.4287,-3.4345,-3.5234,-3.5768,-3.5898,-3.597,-3.5994,-3.5994,-3.5993,-3.5996,0.0,0.0,-1.2496,-1.2302,0.0,0.0,0.0,0.0,0.0,0.0,0.0,0.0,0.0,0.0,0.0,0.0,0.0,0.0,0.0,0.0,0.0,0.0,0.0,0.0,0.0,0.0,0.0,0.0,0.0,0.0,0.0,-0.6334,-0.5861,-0.5777,-0.658,-0.7244,-0.7736,-0.8257,-0.8702,-0.9037,-0.9144,-0.9384,-0.9684,-1.014,-1.0797,-1.16,-1.2346,-1.3231,-1.4256,-1.4728,-1.5309,-1.587,-1.6151,-1.655,-1.7199,-1.8428,-1.9791,-2.1122,-2.2001,-2.2366,-2.246,-2.2623,-2.2876,-2.3223,-2.3486,-2.375,-2.3958,-2.4094,-2.417,-2.419,-2.419,-2.419,-2.4282,-2.456,-2.5336,-2.6284,-2.7287,-2.8253,-2.916,-2.992,-3.0142,-3.0213,-3.0286,-3.0311,-3.0323,-3.0398,-3.0398,-3.0398,-3.0398,-3.0398,-3.0398,-3.0398,-3.0398,-3.0398,-3.0398,-3.0398,-3.0398,-3.0398,-3.1218,-3.1698,-3.1698,-3.2793,-3.3697,-3.4303,-3.4661,-3.5163,-3.5833,-3.5894,-3.597,-3.5994,-3.6009,-3.5995,-1.2646,-1.2324,0.0,0.0,-1.1338,0.0,-1.0723,0.0,0.0,0.0,0.0,0.0,0.0,0.0,0.0,0.0,0.0,0.0,0.0,0.0,0.0,0.0,0.0,0.0,0.0,0.0,-1.4118,-1.374,0.0,0.0,0.0,0.0,-0.6313,-0.58,-0.6507,-0.7082,-0.7473,-0.7934,-0.8317,-0.8627,-0.8632,-0.8807,-0.912,-0.9514,-1.0107,-1.0873,-1.1556,-1.2574,-1.3798,-1.4308,-1.5017,-1.5827,-1.6083,-1.6344,-1.6755,-1.7974,-1.9558,-2.1204,-2.2029,-2.2366,-2.246,-2.2579,-2.2868,-2.3193,-2.3458,-2.3707,-2.3917,-2.4074,-2.4151,-2.419,-2.419,-2.419,-2.4209,-2.4229,-2.4949,-2.5912,-2.6945,-2.7975,-2.8935,-2.9908,-3.0152,-3.0221,-3.0299,-3.0311,-3.0323,-3.0398,-3.0398,-3.0398,-3.0398,-3.0398,-3.0398,-3.0398,-3.0398,-3.0398,-3.0398,-3.0398,-3.0398,-3.0398,-3.0929,-3.1237,-3.1237,-3.2069,-3.2805,-3.3361,-3.3759,-3.4409,-3.5329,-3.5412,-3.5636,-3.6004,-3.6001,-3.5992]}]]